     2              OBSERVATION DATA    GPS                 RINEX VERSION / TYPE
teqc 1997Jul24 19970814                                     PGM / RUN BY / DATE
                                                            COMMENT
Original Marker Name: SNAP                                  COMMENT
Campaign Name: HPGN 1991                                    COMMENT
4-Character Station Name: SNAP                              COMMENT
6-Character Antenna Code: TRMSST                            COMMENT
Vertical Measurement Point: BPA                             COMMENT
Vertical Offset to Rinex Ref. Point: 0.0000                 COMMENT
Radial Measurement Point: RRP                               COMMENT
Radial Offset to Rinex Ref. Point: 0.0000                   COMMENT
Antenna Height from Field Measurement: 2.2200 m             COMMENT
Original XYZ: -2554470.7821 -4608626.7202 3582135.3491      COMMENT
New XYZ position is based on association with SCEC monument COMMENT
E1E9H7D4+0011. Position of that monument is believed to be  COMMENT
valid to within 1 m horizontally; vertical accuracy         COMMENT
should be no worse than 3-times this value.                 COMMENT
                                                            COMMENT
Revised Rinex header created by UCSD GPS archive for        COMMENT
GSAC on 14-Apr-1999 (1999:104) 04:06:27 GMT                 COMMENT
For assistance contact dagnew@ucsd.edu or hjohnson@ucsd.edu COMMENT
                                                            COMMENT
SANTA PAULA NCMN 1981                                       MARKER NAME
unknown CALIF DEPT TRANSPORTATION                           OBSERVER / AGENCY
622 TRIMBLE 4000 SST NP 4.30 / SP 4.20                      REC # / TYPE / VERS
123 TR 4000SST L1/L2 GEO                                    ANT # / TYPE
 -2554477.0000 -4608627.0000  3582138.0000                  APPROX POSITION XYZ
        2.2200        0.0000        0.0000                  ANTENNA: DELTA H/E/N
     1     1     0                                          WAVELENGTH FACT L1/2
     3    C1    L1    L2                                    # / TYPES OF OBSERV
     0                                                      INTERVAL
  1991     4    25    19    47   45.000000                  TIME OF FIRST OBS
  1991     4    26     1    50    0.000000                  TIME OF LAST OBS
     0                                                      # OF SATELLITES
                                                            END OF HEADER
 91  4 25 19 47 45.0000000  0  4G18G 2G11G19
  20718829.727          -0.67018        -0.33433
  23743372.8364         -0.71956        -0.34471
  23823845.477          -0.96516        -0.38331
  20907626.523          -0.79317        -0.30932
 91  4 25 19 48  0.0000000  0  4G18G 2G11G19
  20723270.703       23340.340 8     18187.44723
  23735429.586      -41742.909 6    -32526.49021
  23818907.055      -25970.251 6    -20236.17521
  20908232.5164       3190.86747      2486.70562
 91  4 25 19 48 15.0000000  0  4G18G 2G11G19
  20727729.297       46772.704 8     36446.41323
  23727491.8914     -83456.77246    -65030.52861
  23813978.852      -51863.473 6    -40412.68321
  20908845.664        6406.289 7      4992.24522
 91  4 25 19 48 30.0000000  0  4G18G 2G11G19
  20732206.289       70303.232 8     54781.86923
  23719561.484     -125135.111 6    -97506.90021
  23809067.3204     -77673.34346    -60524.25661
  20909464.3444       9652.31247      7521.62362
 91  4 25 19 48 45.0000000  0  4G18G 2G11G19
  20736703.438       93935.459 8     73196.57723
  23711635.3914    -166774.06546   -129952.57861
  23804173.078     -103395.895 6    -80567.77821
  20910088.875       12932.485 7     10077.61322
 91  4 25 19 49  0.0000000  0  4G18G 2G11G19
  20741220.539      117675.318 8     91695.14523
  23703720.6414    -208367.69146   -162362.94461
  23799295.055     -129025.008 6   -100538.49721
  20910721.969       16252.688 7     12664.79922
 91  4 25 19 49 15.0000000  0  4G18G 2G11G19
  20745760.055      141525.934 8    110280.02223
  23695814.8674    -249912.84846   -194735.52561
  23794440.133     -154557.265 6   -120433.74621
  20911358.6954      19615.73647     15285.35762
 91  4 25 19 49 30.0000000  0  4G18G 2G11G19
  20750319.813      165486.325 8    128950.43523
  23687916.2974    -291410.02046   -227070.72261
  23789596.234     -179992.982 6   -140253.76321
  20912005.9224      23021.08847     17938.88962
 91  4 25 19 49 45.0000000  0  4G18G 2G11G19
  20754902.102      189563.587 8    147711.92223
  23680031.781     -332851.877 6   -259362.82221
  23784776.1954    -205324.51346   -159992.61061
  20912665.055       26475.924 7     20630.97822
 91  4 25 19 50  0.0000000  0  4G18G 2G11G19
  20759505.250      213758.150 8    166564.80623
  23672155.7344    -374238.03446   -291611.54161
  23779978.5704    -230551.29146   -179649.80361
  20913334.063       29980.419 7     23361.76222
 91  4 25 19 50 15.0000000  0  4G18G 2G11G19
  20764131.539      238073.933 8    185512.14823
  23664292.1954    -415564.39746   -323813.65061
  23775197.5004    -255669.07946   -199222.10561
  20914009.0394      33538.69747     26134.45762
 91  4 25 19 50 30.0000000  0  4G18G 2G11G19
  20768780.719      262508.716 8    204552.22023
  23656436.453     -456832.796 6   -355970.59821
  23770437.617     -280679.552 6   -218710.75921
  20914695.8054      37148.44147     28947.25362
 91  4 25 19 50 45.0000000  0  4G18G 2G11G19
  20773455.031      287061.034 8    223683.87523
  23648596.469     -498044.620 6   -388083.46521
  23765699.2034    -305583.83146   -238116.67561
  20915391.1334      40808.10447     31798.94462
 91  4 25 19 51  0.0000000  0  4G18G 2G11G19
  20778148.156      311729.340 8    242905.91023
  23640765.117     -539201.134 6   -420153.21821
  23760979.188     -330382.919 6   -257440.61921
  20916100.6174      44516.22347     34688.39662
 91  4 25 19 51 15.0000000  0  4G18G 2G11G19
  20782866.344      336513.233 8    262218.01723
  23632941.953     -580302.574 6   -452180.08521
  23756278.5784    -355077.03146   -276682.77161
  20916812.2734      48272.43247     37615.31562
 91  4 25 19 51 30.0000000  0  4G18G 2G11G19
  20787603.766      361412.423 8    281619.96323
  23625131.195     -621348.669 6   -484163.81821
  23751600.961     -379665.755 6   -295842.80221
  20917535.086       52076.663 7     40579.66022
 91  4 25 19 51 45.0000000  0  4G18G 2G11G19
  20792363.164      386428.780 8    301113.20623
  23617330.008     -662337.667 6   -516103.05821
  23746940.258     -404147.070 6   -314919.13621
  20918270.6724      55930.54447     43582.68962
 91  4 25 19 52  0.0000000  0  4G18G 2G11G19
  20797144.977      411556.887 8    320693.52923
  23609540.8524    -703274.84246   -548001.92861
  23742304.133     -428526.050 6   -333915.72421
  20919010.6254      59828.62747     46620.15962
 91  4 25 19 52 15.0000000  0  4G18G 2G11G19
  20801950.586      436801.951 8    340364.98723
  23601763.3054    -744154.98746   -579856.32761
  23737684.352     -452797.236 6   -352828.31621
  20919764.3674      63776.00747     49696.05062
 91  4 25 19 52 30.0000000  0  4G18G 2G11G19
  20806775.063      462159.667 8    360124.22923
  23593994.8984    -784982.03246   -611669.38561
  23733084.641     -476964.369 6   -371659.82621
  20920521.0634      67768.56647     52807.13863
 91  4 25 19 52 45.0000000  0  4G18G 2G11G19
  20811621.977      487631.548 8    379972.42923
  23586233.195     -825754.390 6   -643439.81221
  23728505.078     -501025.653 6   -390408.85221
  20921289.5084      71807.77747     55954.58262
 91  4 25 19 53  0.0000000  0  4G18G 2G11G19
  20816491.258      513218.554 8    399910.33323
  23578486.0634    -866470.62546   -675166.50861
  23723949.672     -524979.395 6   -409074.08721
  20922069.3754      75894.87747     59139.34362
 91  4 25 19 53 15.0000000  0  4G18G 2G11G19
  20821382.195      538918.853 8    419936.52123
  23570748.656     -907132.122 6   -706850.57321
  23719408.750     -548826.981 6   -427656.60121
  20922854.3914      80028.36747     62360.24462
 91  4 25 19 53 30.0000000  0  4G18G 2G11G19
  20826294.047      564735.323 8    440053.23423
  23563020.406     -947736.091 6   -738489.79621
  23714891.914     -572565.402 6   -446154.05621
  20923651.1024      84210.62647     65619.15662
 91  4 25 19 53 45.0000000  0  4G18G 2G11G19
  20831230.258      590667.606 8    460260.19023
  23555305.797     -988282.781 6   -770084.39221
  23710395.4454    -596194.66146   -464566.43161
  20924456.6804      88441.42147     68915.88362
 91  4 25 19 54  0.0000000  0  4G18G 2G11G19
  20836187.227      616717.068 8    480558.45023
  23547599.492    -1028770.639 6   -801633.15521
  23705921.648     -619713.091 6   -482892.46421
  20925271.5784      92722.03447     72251.42963
 91  4 25 19 54 15.0000000  0  4G18G 2G11G19
  20841165.000      642880.471 8    500945.49623
  23539906.734    -1069202.649 6   -833138.38521
  23701467.344     -643123.486 6   -501134.31321
  20926095.9304      97049.25847     75623.29962
 91  4 25 19 54 30.0000000  0  4G18G 2G11G19
  20846166.602      669156.285 8    521420.13823
  23532221.758    -1109580.051 6   -864601.08321
  23697032.852     -666426.962 6   -519292.84021
  20926927.2814     101421.64047     79030.35262
 91  4 25 19 54 45.0000000  0  4G18G 2G11G19
  20851188.391      695548.569 8    541985.53023
  23524548.0474   -1149898.49246   -896017.82161
  23692617.734     -689618.913 6   -537364.47621
  20927768.1254     105843.49047     82475.95262
 91  4 25 19 55  0.0000000  0  4G18G 2G11G19
  20856231.500      722052.503 8    562637.92323
  23516889.047    -1190162.580 6   -927392.21121
  23688225.5944    -712703.77146   -555352.65361
  20928617.8284     110309.93347     85956.29962
 91  4 25 19 55 15.0000000  0  4G18G 2G11G19
  20861297.016      748673.436 8    583381.48223
  23509235.0474   -1230366.88746   -958720.02661
  23683851.4304    -735675.84846   -573252.96061
  20929478.4774     114826.33447     89475.57762
 91  4 25 19 55 30.0000000  0  4G18G 2G11G19
  20866386.578      775408.802 8    604214.20923
  23501594.797    -1270514.146 6   -990003.40121
  23679503.063     -758537.476 6   -591067.19821
  20930345.2504     119389.83347     93031.55562
 91  4 25 19 55 45.0000000  0  4G18G 2G11G19
  20871493.273      802258.359 8    625135.92023
  23493967.734    -1310603.918 6  -1021241.94621
  23675172.9774    -781288.30446   -608795.10561
  20931224.8054     124000.51747     96624.30363
 91  4 25 19 56  0.0000000  0  4G18G 2G11G19
  20876625.102      829223.533 8    646147.72223
  23486348.688    -1350634.575 6  -1052434.44621
  23670867.445     -803926.460 6   -626435.20821
  20932113.0474     128659.90747    100254.99662
 91  4 25 19 56 15.0000000  0  4G18G 2G11G19
  20881779.367      856304.801 8    667249.98723
  23478741.945    -1390605.634 6  -1083580.50921
  23666578.195     -826451.201 6   -643986.93221
  20933006.5944     133368.52647    103924.05662
 91  4 25 19 56 30.0000000  0  4G18G 2G11G19
  20886955.586      883500.965 8    688441.78323
  23471147.1804   -1430517.91746  -1114680.77661
  23662312.875     -848863.422 6   -661450.98221
  20933911.5314     138124.99947    107630.40062
 91  4 25 19 56 45.0000000  0  4G18G 2G11G19
  20892150.570      910810.957 8    709722.27223
  23463562.180    -1470372.113 6  -1145735.77521
  23658073.711     -871163.672 6   -678827.78921
  20934827.3674     142928.50547    111373.40362
 91  4 25 19 57  0.0000000  0  4G18G 2G11G19
  20897371.383      938239.750 8    731095.33123
  23455993.680    -1510163.141 6  -1176741.53921
  23653849.8984    -893346.42346   -696113.03061
  20935749.7034     147784.14147    115157.01662
 91  4 25 19 57 15.0000000  0  4G18G 2G11G19
  20902612.977      965787.365 8    752560.98123
  23448432.477    -1549890.661 6  -1207697.82821
  23649649.852     -915411.252 6   -713306.40421
  20936683.0004     152691.96847    118981.30462
 91  4 25 19 57 30.0000000  0  4G18G 2G11G19
  20907877.578      993450.468 8    774116.62223
  23440885.258    -1589557.839 6  -1238607.11821
  23645473.141     -937361.135 6   -730410.18721
  20937625.9454     157648.71547    122843.71062
 91  4 25 19 57 45.0000000  0  4G18G 2G11G19
  20913163.531     1021230.077 8    795763.04623
  23433347.4384   -1629163.40846  -1269468.38661
  23641318.961     -959194.643 6   -747423.30521
  20938578.9454     162655.35947    126744.99262
 91  4 25 19 58  0.0000000  0  4G18G 2G11G19
  20918472.094     1049126.792 8    817500.72123
  23425821.8444   -1668706.77746  -1300281.18961
  23637187.852     -980910.992 6   -764345.11521
  20939543.1954     167712.54947    130685.67362
 91  4 25 19 58 15.0000000  0  4G18G 2G11G19
  20923802.938     1077139.547 8    839328.81723
  23418308.367    -1708188.864 6  -1331046.22021
  23633071.2114   -1002511.02946   -781176.31661
  20940512.9384     172819.19847    134664.87962
 91  4 25 19 58 30.0000000  0  4G18G 2G11G19
  20929154.484     1105261.939 8    861242.34223
  23410804.5784   -1747615.90546  -1361768.38461
  23628987.2114   -1024000.60946   -797921.43261
  20941490.8444     177968.98947    138677.71062
 91  4 25 19 58 45.0000000  0  4G18G 2G11G19
  20934526.375     1133496.425 8    883243.21423
  23403313.164    -1786984.986 6  -1392445.38221
  23624917.9774   -1045376.62046   -814578.05561
  20942484.2194     183164.58247    142726.23062
 91  4 25 19 59  0.0000000  0  4G18G 2G11G19
  20939921.484     1161844.274 8    905332.42223
  23395833.4924   -1826294.53446  -1423075.99061
  23620873.7664   -1066637.45746   -831144.93461
  20943478.4224     188407.16047    146811.35662
 91  4 25 19 59 15.0000000  0  5G18G 2G11G19G16
  20945338.852     1190306.037 8    927510.39523
  23388363.109    -1865543.676 6  -1453659.52321
  23616849.8444   -1087782.16846   -847621.33061
  20944485.164      193697.486 7    150933.69822
  24367818.4774         -0.67555
 91  4 25 19 59 30.0000000  0  5G18G 2G11G19G16
  20950776.180     1218884.182 8    949779.05223
  23380905.922    -1904729.934 6  -1484194.05721
  23612849.5084   -1108808.11546   -864005.18661
  20945503.4384     199037.87247    155095.03862
  24363389.1094     -23248.85845
 91  4 25 19 59 45.0000000  0  5G18G 2G11G19G16
  20956233.961     1247574.059 8    972134.77723
  23373460.5164   -1943857.58546  -1514682.92461
  23608869.9144   -1129719.23246   -880299.54961
  20946526.6484     204423.91547    159291.96163
  24358986.6564     -46378.30945
 91  4 25 20  0  0.0000000  0  5G18G 2G11G19G16
  20961715.766     1276376.268 8    994578.03323
  23366028.445    -1982926.130 6  -1545125.74421
  23604909.3754   -1150514.95346   -896504.00861
  20947561.0474     209856.15747    163524.88162
  24354611.172      -69388.408 5
 91  4 25 20  0 15.0000000  0  5G18G 2G11G19G16
  20967218.289     1305290.929 8   1017108.91123
  23358602.1024   -2021935.11146  -1575522.13661
  23600976.383    -1171194.511 6   -912617.94321
  20948603.9454     215334.84447    167793.99462
  24350252.367      -92278.703 4
 91  4 25 20  0 30.0000000  0  5G18G 2G11G19G16
  20972742.273     1334317.072 8   1039726.66123
  23351190.633    -2060885.007 6  -1605872.49921
  23597062.5864   -1191758.24546   -928641.62861
  20949652.9774     220859.28247    172098.75962
  24345921.6024    -115049.46444        -0.22071
 91  4 25 20  0 45.0000000  0  5G18G 2G11G19G16
  20978285.5394    1363451.82348   1062429.03663
  23343790.195    -2099778.712 6  -1636179.09121
  23593172.5864   -1212208.82346   -944577.14261
  20950714.9454     226426.47947    176436.84262
  24341611.9614    -137703.43745    -17652.54761
 91  4 25 20  1  0.0000000  0  5G18G 2G11G19G16
  20983850.773     1392696.282 8   1085216.90223
  23336399.297    -2138615.037 6  -1666440.96021
  23589302.8834   -1232545.06746   -960423.56261
  20951781.8054     232037.47047    180809.04462
  24337322.273     -160239.396 5    -35212.95121
 91  4 25 20  1 15.0000000  0  5G18G 2G11G19G16
  20989435.898     1422051.652 8   1108091.19323
  23329020.289    -2177392.416 6  -1696656.90621
  23585455.578    -1252765.207 6   -976179.50721
  20952859.8914     237693.63647    185216.45362
  24333054.008     -182656.008 4    -52680.40221
 91  4 25 20  1 30.0000000  0  5G18G 2G11G19G16
  20995045.359     1451517.603 8   1131051.64823
  23321649.508    -2216110.802 6  -1726826.87921
  23581629.258    -1272868.990 6   -991844.77721
  20953946.1414     243394.87747    189658.98762
  24328809.320     -204953.157 4    -70054.72121
 91  4 25 20  1 45.0000000  0  5G18G 2G11G19G16
  21000672.734     1481091.499 8   1154096.21323
  23314296.3914   -2254772.75946  -1756952.89861
  23577826.1954   -1292858.91046  -1007421.34361
  20955036.0704     249138.26447    194134.35863
  24324590.5784    -227133.06044    -87337.70361
 91  4 25 20  2  0.0000000  0  5G18G 2G11G19G16
  21006319.758     1510772.417 8   1177224.17823
  23306946.6954   -2293378.98746  -1787035.47961
  23574043.2344   -1312735.36346  -1022909.47761
  20956137.8524     254923.23247    198642.13262
  24320392.0864    -249196.37744   -104529.81461
 91  4 25 20  2 15.0000000  0  5G18G 2G11G19G16
  21011989.8984    1540565.88548   1200439.84463
  23299614.3914   -2331923.70446  -1817070.13561
  23570284.8674   -1332492.42946  -1038304.58661
  20957247.8834     260755.14547    203186.48362
  24316219.9144    -271137.34744   -121626.58861
 91  4 25 20  2 30.0000000  0  5G18G 2G11G19G16
  21017680.5164    1570468.12448   1223740.25963
  23292289.672    -2370410.396 6  -1847059.58721
  23566546.211    -1352133.360 6  -1053609.20321
  20958367.5944     266630.54647    207764.72663
  24312061.930     -292959.483 5   -138630.81421
 91  4 25 20  2 45.0000000  0  5G18G 2G11G19G16
  21023390.109     1600477.744 8   1247124.35323
  23284973.7894   -2408840.41646  -1877004.87061
  23562830.3834   -1371659.32646  -1068824.23561
  20959491.9384     272547.93647    212375.67662
  24307934.2424    -314664.12145   -155543.45161
 91  4 25 20  3  0.0000000  0  5G18G 2G11G19G16
  21029120.531     1630594.235 8   1270591.72623
  23277673.6804   -2447213.73946  -1906905.98061
  23559137.0004   -1391070.37546  -1083949.72461
  20960624.9304     278506.93347    217019.06262
  24303826.453     -336251.179 5   -172364.45621
 91  4 25 20  3 15.0000000  0  5G18G 2G11G19G16
  21034873.3524    1660818.20248   1294142.83863
  23270380.9384   -2485529.74146  -1936762.42161
  23555464.4384   -1410365.46346  -1098984.84161
  20961768.2734     284508.24547    221695.40762
  24299739.3134    -357719.97945
 91  4 25 20  3 30.0000000  0  5G18G 2G11G19G16
  21040645.883     1691152.803 8   1317780.16123
  23263104.0004   -2523785.14046  -1966571.63861
  23551814.391    -1429541.315 6  -1113927.05621
  20962918.9064     290555.05347    226407.21162
  24295679.164     -379067.364 5
 91  4 25 20  3 45.0000000  0  5G18G 2G11G19G16
  21046437.094     1721598.184 8   1341503.81023
  23255833.7734   -2561979.47946  -1996333.28761
  23548188.844    -1448597.266 6  -1128775.82721
  20964078.7344     296647.57247    231154.63162
  24291640.719     -400292.558 5        -0.14231
 91  4 25 20  4  0.0000000  0  5G18G 2G11G19G16
  21052252.2114    1752149.22048   1365309.78263
  23248576.5164   -2600117.71046  -2026051.21861
  23544588.3594   -1467538.00046  -1143534.83261
  20965243.3914     302780.71347    235933.70762
  24287621.414     -421400.411 5    -16447.76621
 91  4 25 20  4 15.0000000  0  5G18G 2G11G19G16
  21058087.0004    1782808.94748   1389200.45163
  23241331.172    -2638196.260 6  -2055722.63121
  23541003.727    -1486359.851 6  -1158201.19921
  20966419.3524     308958.12547    240747.27663
  24283627.094     -442387.555 5    -32801.28121
 91  4 25 20  4 30.0000000  0  5G18G 2G11G19G16
  21063941.8284    1813579.86748   1413177.76363
  23234094.2814   -2676212.45746  -2085345.46261
  23537442.2974   -1505060.02746  -1172772.75961
  20967605.0864     315182.08747    245597.12162
  24279656.992     -463251.545 5    -49058.90121
 91  4 25 20  4 45.0000000  0  5G18G 2G11G19G16
  21069819.5394    1844461.36548   1437241.23863
  23226875.7584   -2714166.70946  -2114920.02561
  23533910.078    -1523638.703 6  -1187249.63821
  20968797.4384     321451.99647    250482.76862
  24275711.8524    -483992.64945    -65220.73561
 91  4 25 20  5  0.0000000  0  5G18G 2G11G19G16
  21075717.9924    1875456.15048   1461392.98963
  23219663.023    -2752056.199 6  -2144444.13121
  23530398.9064   -1542092.89546  -1201629.51661
  20969997.7424     327770.75947    255406.48562
  24271786.563     -504607.614 5    -81284.28221
 91  4 25 20  5 15.0000000  0  5G18G 2G11G19G16
  21081637.6414    1906562.60948   1485631.75863
  23212464.195    -2789882.360 6  -2173918.89421
  23526910.648    -1560423.945 6  -1215913.41821
  20971211.8524     334136.65247    260366.92062
  24267889.508     -525097.749 5    -97250.55721
 91  4 25 20  5 30.0000000  0  5G18G 2G11G19G16
  21087578.078     1937781.837 8   1509958.40523
  23205279.109    -2827643.886 6  -2203343.28321
  23523445.203    -1578630.307 6  -1230100.19321
  20972431.4384     340550.93147    265365.06862
  24264013.711     -545461.907 5   -113118.67821
 91  4 25 20  5 45.0000000  0  5G18G 2G11G19G16
  21093539.8054    1969111.54748   1534371.13563
  23198104.742    -2865342.610 6  -2232718.73921
  23520004.4224   -1596713.78746  -1244191.20061
  20973662.3204     347011.51647    270399.29062
  24260162.258     -565702.244 5   -128890.29121
 91  4 25 20  6  0.0000000  0  5G18G 2G11G19G16
  21099521.4454    2000550.54048   1558869.02263
  23190943.797    -2902979.682 6  -2262046.15521
  23516585.539    -1614675.225 6  -1258187.10821
  20974898.4144     353517.12047    275468.59462
  24256333.992     -585819.521 6   -144566.04521
 91  4 25 20  6 15.0000000  0  5G18G 2G11G19G16
  21105525.266     2032102.725 8   1583455.11523
  23183792.836    -2940550.962 6  -2291322.30621
  23513191.586    -1632510.491 6  -1272084.69621
  20976148.3054     360071.64747    280576.01762
  24252531.133     -605809.870 6   -160142.85921
 91  4 25 20  6 30.0000000  0  5G18G 2G11G19G16
  21111551.0634    2063761.43948   1608124.21463
  23176655.258    -2978062.872 6  -2320552.20521
  23509820.3364   -1650225.89346  -1285888.88461
  20977401.7344     366668.77447    285716.63862
  24248750.1414    -625679.37146   -175625.52661
 91  4 25 20  6 45.0000000  0  5G18G 2G11G19G16
  21117596.0704    2095530.84448   1632879.56563
  23169527.617    -3015510.807 6  -2349732.25021
  23506473.867    -1667816.512 6  -1299595.84521
  20978666.2194     373313.05047    290893.99662
  24244991.1334    -645423.33146   -191010.35961
 91  4 25 20  7  0.0000000  0  5G18G 2G11G19G16
  21123661.9304    2127413.38548   1657723.07363
  23162414.391    -3052892.512 6  -2378860.68421
  23503152.875    -1685279.793 6  -1313203.57521
  20979940.0474     380006.36847    296109.56562
  24241256.672     -665039.532 5   -206295.65421
 91  4 25 20  7 15.0000000  0  5G18G 2G11G19G16
  21129751.5634    2159408.77248   1682654.51663
  23155311.922    -3090207.668 6  -2407937.26021
  23499851.211    -1702615.418 6  -1326711.83121
  20981223.5554     386748.95347    301363.53363
  24237552.4924    -684527.71745   -221481.18461
 91  4 25 20  7 30.0000000  0  5G18G 2G11G19G16
  21135862.5394    2191515.44148   1707672.66663
  23148225.859    -3127457.477 6  -2436962.91621
  23496577.5164   -1719824.47746  -1340121.45261
  20982514.5314     393539.41647    306654.80562
  24233865.7194    -703889.15745   -236567.96161
 91  4 25 20  7 45.0000000  0  5G18G 2G11G19G16
  21141991.1414    2223731.87348   1732776.34963
  23141148.586    -3164643.486 6  -2465938.85921
  23493326.781    -1736908.331 6  -1353433.52621
  20983816.1484     400376.06147    311982.06162
  24230203.539     -723125.177 5   -251556.99421
 91  4 25 20  8  0.0000000  0  5G18G 2G11G19G16
  21148142.7894    2256059.22648   1757966.46463
  23134087.188    -3201764.320 6  -2494864.01421
  23490097.063    -1753865.448 6  -1366646.83921
  20985124.6954     407260.14047    317346.27962
  24226568.9064    -742234.76945   -266447.51361
 91  4 25 20  8 15.0000000  0  5G18G 2G11G19G16
  21154317.0784    2288502.21648   1783246.68563
  23127033.898    -3238815.090 6  -2523734.57721
  23486898.563    -1770690.688 6  -1379757.40321
  20986446.3754     414196.57447    322751.29162
  24222960.0394    -761212.64845   -281235.40861
 91  4 25 20  8 30.0000000  0  5G18G 2G11G19G16
  21160512.2194    2321060.21947   1808616.53063
  23119997.625    -3275796.017 6  -2552550.71321
  23483720.1334   -1787384.28646  -1392765.36761
  20987778.3594     421184.77047    328196.64462
  24219372.188     -780059.422 5   -295921.14121
 91  4 25 20  8 45.0000000  0  5G18G 2G11G19G16
  21166729.5234    2353729.02047   1834072.70563
  23112972.953    -3312711.084 6  -2581315.53821
  23480565.898    -1803950.079 6  -1405673.75821
  20989115.5004     428220.68147    333679.17262
  24215806.711     -798778.667 5   -310507.50221
 91  4 25 20  9  0.0000000  0  5G18G 2G11G19G16
  21172969.3914    2386510.63948   1859616.79563
  23105959.6954   -3349558.08546  -2610027.30761
  23477441.219    -1820385.676 6  -1418480.69521
  20990462.5704     435306.51247    339200.60162
  24212269.750     -817367.826 5   -324992.51821
 91  4 25 20  9 15.0000000  0  5G18G 2G11G19G16
  21179227.4224    2419403.40147   1885247.48863
  23098960.273    -3386338.662 6  -2638687.33121
  23474334.6804   -1836692.40646  -1431187.21561
  20991821.7504     442440.60447    344759.62862
  24208761.133     -835828.645 5   -339377.49921
 91  4 25 20  9 30.0000000  0  5G18G 2G11G19G16
  21185508.2974    2452406.61147   1910964.24563
  23091975.109    -3423052.999 6  -2667295.74321
  23471258.6174   -1852870.44046  -1443793.44261
  20993187.7584     449622.51347    350355.92662
  24205269.1724    -854161.58345   -353662.85261
 91  4 25 20  9 45.0000000  0  5G18G 2G11G19G16
  21191809.2584    2485521.54848   1936768.05763
  23085000.688    -3459699.676 6  -2695851.43221
  23468204.9534   -1868918.19746  -1456298.15361
  20994564.4534     456853.46847    355990.43162
  24201809.352     -872365.285 5   -367847.50321
 91  4 25 20 10  0.0000000  0  5G18G 2G11G19G16
  21198132.6724    2518748.68148   1962659.30263
  23078040.086    -3496277.818 6  -2724353.70821
  23465173.7584   -1884834.69446  -1468700.59161
  20995947.1484     464134.21447    361663.74462
  24198364.734     -890438.410 5   -381930.41821
 91  4 25 20 10 15.0000000  0  5G18G 2G11G19G16
  21204476.9224    2552089.28048   1988638.95663
  23071093.063    -3532785.788 6  -2752801.31721
  23462170.1174   -1900618.23446  -1480999.43161
  20997346.1414     471466.37747    367377.11862
  24194953.1564    -908379.72645   -395910.60561
 91  4 25 20 10 30.0000000  0  5G18G 2G11G19G16
  21210842.8984    2585541.99447   2014705.97563
  23064159.8444   -3569224.86546  -2781195.24261
  23459191.281    -1916269.812 6  -1493195.43021
  20998749.0164     478848.51747    373129.43962
  24191566.1884    -926190.48745   -409789.06461
 91  4 25 20 10 45.0000000  0  5G18G 2G11G19G16
  21217229.9924    2619102.91048   2040857.30963
  23057233.453    -3605598.754 6  -2809538.36221
  23456237.6954   -1931793.07446  -1505291.45461
  21000163.5234     486276.75747    378917.67462
  24188198.9924    -943874.28445   -423568.59661
 91  4 25 20 11  0.0000000  0  5G18G 2G11G19G16
  21223637.7974    2652773.26848   2067093.92063
  23050324.8284   -3641906.00346  -2837829.56261
  23453309.109    -1947186.540 6  -1517286.34921
  21001583.4844     493752.34647    384742.81363
  24184857.0234    -961429.86045   -437248.21261
 91  4 25 20 11 15.0000000  0  5G18G 2G11G19G16
  21230064.1484    2686552.75048   2093415.55863
  23043430.898    -3678146.912 6  -2866069.06821
  23450406.0474   -1962450.12146  -1529180.01761
  21003018.1804     501275.19247    390604.77262
  24181542.5944    -978857.15045   -450827.88761
 91  4 25 20 11 30.0000000  0  5G18G 2G11G19G16
  21236511.7814    2720437.99647   2119819.61863
  23036545.609    -3714324.457 6  -2894259.20321
  23447528.766    -1977586.650 6  -1540974.70321
  21004455.3524     508842.05247    396501.02662
  24178245.234     -996159.094 5   -464309.87121
 91  4 25 20 11 45.0000000  0  5G18G 2G11G19G16
  21242981.9534    2754431.08848   2146307.70563
  23029674.516    -3750436.233 6  -2922398.09221
  23444669.1804   -1992593.63446  -1552668.41661
  21005905.2114     516455.09647    402433.26562
  24174982.227    -1013333.342 5   -477692.35021
 91  4 25 20 12  0.0000000  0  5G18G 2G11G19G16
  21249472.4534    2788533.08148   2172880.65163
  23022814.0084   -3786480.79146  -2950484.60461
  23441838.531    -2007469.592 6  -1564260.05721
  21007362.7114     524115.71047    408402.57962
  24171739.2114   -1030378.24145   -490974.05861
 91  4 25 20 12 15.0000000  0  6G18G 2G11G19G16G 6
  21255979.8204    2822743.27048   2199537.90763
  23015966.445    -3822458.730 6  -2978519.19121
  23439032.586    -2022214.907 6  -1575749.89521
  21008829.9224     531823.13247    414408.36263
  24168517.7194   -1047294.63045   -504155.62861
  24597342.9694     -28071.20944
 91  4 25 20 12 30.0000000  0  6G18G 2G11G19G16G 6
  21262510.7034    2857062.31448   2226279.98163
  23009134.9924   -3858369.32546  -3006501.31361
  23436251.773    -2036828.465 6  -1587137.06921
  21010304.4064     539577.92247    420451.06162
  24165324.414    -1064081.779 5   -517236.48321
  24592004.5164     -56122.69644
 91  4 25 20 12 45.0000000  0  6G18G 2G11G19G16G 6
  21269062.6954    2891490.85548   2253107.37863
  23002314.9064   -3894211.35446  -3034430.01261
  23433497.445    -2051309.250 6  -1598420.77821
  21011792.7114     547381.05247    426531.42062
  24162152.406    -1080738.468 5   -530215.67821
  24586673.6024     -84154.26344
 91  4 25 20 13  0.0000000  0  6G18G 2G11G19G16G 6
  21275635.7034    2926027.47848   2280018.99463
  22995507.469    -3929986.277 6  -3062306.41521
  23430765.898    -2065658.423 6  -1609601.93821
  21013283.6954     555231.05147    432648.29962
  24159005.586    -1097266.062 5   -543094.28921
  24581340.766     -112167.292 4
 91  4 25 20 13 15.0000000  0  6G18G 2G11G19G16G 6
  21282228.4924    2960675.14348   2307017.13963
  22988712.7424   -3965690.83046  -3090128.00161
  23428061.820    -2079872.696 6  -1620677.97421
  21014788.1414     563131.15747    438804.22762
  24155887.7814   -1113661.40745   -555869.83361
  24576014.7664    -140158.79344
 91  4 25 20 13 30.0000000  0  6G18G 2G11G19G16G 6
  21288843.4694    2995431.19448   2334099.73963
  22981931.3984   -4001327.36446  -3117896.56161
  23425380.742    -2093954.209 6  -1631650.56421
  21016299.9224     571079.00747    444997.34962
  24152791.3284   -1129926.69345   -568544.04461
  24570694.117     -168131.350 4        -0.43331
 91  4 25 20 13 45.0000000  0  6G18G 2G11G19G16G 6
  21295476.1414    3030292.28048   2361264.18663
  22975161.1954   -4036898.93246  -3145614.52161
  23422725.6024   -2107905.97846  -1642522.06361
  21017821.8834     579071.29547    451225.11062
  24149719.2894   -1146065.03745   -581119.34561
  24565376.039     -196088.212 4    -21784.80921
 91  4 25 20 14  0.0000000  0  6G18G 2G11G19G16G 6
  21302130.5704    3065261.55148   2388512.93063
  22968405.2664   -4072402.09346  -3173279.16561
  23420093.5234   -2121724.36146  -1653289.64061
  21019352.7894     587111.37347    457490.10862
  24146677.2814   -1162072.89345   -593592.96461
  24560055.9614    -224025.99444    -43554.32961
 91  4 25 20 14 15.0000000  0  6G18G 2G11G19G16G 6
  21308806.1174    3100339.90848   2415846.68163
  22961663.4924   -4107835.95446  -3200889.82261
  23417492.680    -2135408.160 6  -1663952.31321
  21020890.0234     595200.08246    463792.99662
  24143654.7114   -1177949.42645   -605964.26561
  24554749.219     -251943.958 4    -65308.39021
 91  4 25 20 14 30.0000000  0  6G18G 2G11G19G16G 6
  21315503.0394    3135527.65448   2443265.66663
  22954933.5164   -4143199.72046  -3228445.84361
  23414913.3834   -2148956.60846  -1674509.53661
  21022437.7894     603338.14047    470134.34162
  24140658.0704   -1193693.75945   -618232.53561
  24549432.1094    -279841.62144    -87046.63361
 91  4 25 20 14 45.0000000  0  6G18G 2G11G19G16G 6
  21322216.8444    3170820.94348   2470766.89263
  22948215.750    -4178496.902 6  -3255950.00521
  23412360.3054   -2162373.23846  -1684964.05261
  21023996.0394     611521.82346    476511.23162
  24137689.8204   -1209309.22345   -630400.41661
  24544128.789     -307722.577 4   -108771.86121
 91  4 25 20 15  0.0000000  0  6G18G 2G11G19G16G 6
  21328956.0234    3206224.21248   2498353.82063
  22941513.789    -4213722.932 6  -3283398.71021
  23409834.836    -2175653.268 6  -1695312.11221
  21025563.2114     619755.63747    482927.18862
  24134741.461    -1224791.424 5   -642464.43321
  24538828.297     -335582.605 3   -130480.78021
 91  4 25 20 15 15.0000000  0  6G18G 2G11G19G16G 6
  21335713.3674    3241735.14248   2526024.63763
  22934822.289    -4248880.063 6  -3310793.73421
  23407331.195    -2188798.659 6  -1705555.25721
  21027140.2814     628037.29547    489380.42762
  24131816.977    -1240142.771 5   -654426.49921
  24533529.055     -363423.951 4   -152175.14021
 91  4 25 20 15 30.0000000  0  6G18G 2G11G19G16G 6
  21342489.9774    3277352.93848   2553778.72763
  22928144.539    -4283968.942 6  -3338135.58021
  23404857.0864   -2201809.84846  -1715693.84361
  21028723.1564     636366.05447    495870.36762
  24128921.859    -1255363.855 5   -666287.06021
  24528234.1644    -391247.44344   -173855.58861
 91  4 25 20 15 45.0000000  0  6G18G 2G11G19G16G 6
  21349289.7194    3313082.70048   2581620.06263
  22921481.898    -4318983.809 6  -3365419.74721
  23402406.742    -2214681.208 6  -1725723.45721
  21030318.5784     644747.43847    502401.31562
  24126053.344    -1270449.018 5   -678041.72921
  24522943.0164    -419047.55443   -195517.80061
 91  4 25 20 16  0.0000000  0  6G18G 2G11G19G16G 6
  21356109.805     3348921.620 7   2609546.45123
  22914830.258    -4353927.386 6  -3392648.37421
  23399983.6414   -2227415.23946  -1735646.06961
  21031924.6414     653178.75647    508971.17462
  24123207.703    -1285400.702 5   -689692.36221
  24517655.703     -446827.236 3   -217164.07721
 91  4 25 20 16 15.0000000  0  6G18G 2G11G19G16G 6
  21362950.6024    3384869.03347   2637557.38563
  22908195.5704   -4388799.87146  -3419821.60561
  23397587.3134   -2240012.11746  -1745461.81361
  21033537.1564     661659.41447    515579.47762
  24120386.7114   -1300219.32645   -701239.31461
  24512377.1334    -474586.95444   -238794.79961
 91  4 25 20 16 30.0000000  0  6G18G 2G11G19G16G 6
  21369811.1174    3420923.41047   2665651.66463
  22901572.242    -4423603.010 6  -3446940.80021
  23395214.8524   -2252473.21146  -1755171.74261
  21035157.8134     670187.96447    522225.10262
  24117592.570    -1314906.207 5   -712683.61121
  24507091.0234    -502328.29343   -260411.23461
 91  4 25 20 16 45.0000000  0  6G18G 2G11G19G16G 6
  21376692.6954    3457086.30047   2693830.49863
  22894962.953    -4458335.018 6  -3474004.57421
  23392872.3834   -2264796.89146  -1764774.60261
  21036792.2114     678765.98747    528909.27262
  24114820.4694   -1329460.11445   -724024.29361
  24501823.539     -530049.875 3   -282012.27421
 91  4 25 20 17  0.0000000  0  6G18G 2G11G19G16G 6
  21383594.0164    3493354.56047   2722091.44163
  22888369.164    -4492998.442 6  -3501014.90221
  23390551.188    -2276985.605 6  -1774272.29421
  21038432.3054     687390.67047    535629.80362
  24112078.266    -1343883.409 5   -735263.22921
  24496550.883     -557754.577 4   -303600.12621
 91  4 25 20 17 15.0000000  0  6G18G 2G11G19G16G 6
  21390516.828     3529731.960 7   2750437.42523
  22881785.8364   -4527589.42346  -3527968.78161
  23388260.313    -2289035.216 6  -1783661.57521
  21040085.1094     696065.91747    542389.73062
  24109360.6414   -1358172.34345   -746397.40761
  24491281.180     -585438.530 3   -325171.84221
 91  4 25 20 17 30.0000000  0  6G18G 2G11G19G16G 6
  21397459.609     3566214.729 7   2778865.51023
  22875214.6484   -4562111.37446  -3554868.88261
  23385989.727    -2300948.989 6  -1792945.02821
  21041743.9924     704788.12947    549186.26562
  24106667.0234   -1372330.05045   -757429.37661
  24486017.8364    -613105.25944   -346730.15061
 91  4 25 20 17 45.0000000  0  6G18G 2G11G19G16G 6
  21404421.680     3602803.893 7   2807376.50423
  22868658.320    -4596562.995 6  -3581714.17221
  23383752.258    -2312725.538 6  -1802121.53921
  21043412.6484     713558.68547    556020.46162
  24103996.617    -1386355.435 5   -768358.21721
  24480753.2664    -640753.77944   -368274.25561
 91  4 25 20 18  0.0000000  0  6G18G 2G11G19G16G 6
  21411406.227     3639505.104 7   2835974.81023
  22862117.0704   -4630938.38546  -3608500.06661
  23381536.750    -2324358.795 6  -1811186.40121
  21045089.9694     722383.25847    562896.75462
  24101353.922    -1400242.418 5   -779179.23521
  24475497.383     -668378.203 4   -389799.59721
 91  4 25 20 18 15.0000000  0  6G18G 2G11G19G16G 6
  21418411.258     3676309.663 7   2864653.63923
  22855589.8984   -4665246.24746  -3635233.33861
  23379349.250    -2335857.359 6  -1820146.30721
  21046779.9534     731252.95547    569808.20762
  24098734.961    -1413999.763 5   -789899.23521
  24470241.242     -695987.464 4   -411313.09221
 91  4 25 20 18 30.0000000  0  6G18G 2G11G19G16G 6
  21425433.273     3713218.464 7   2893413.69823
  22849073.6564   -4699485.31246  -3661913.01361
  23377186.7664   -2347219.78746  -1829000.14561
  21048475.4844     740169.06947    576755.82962
  24096144.4304   -1427626.05445   -800517.10461
  24464992.930     -723580.497 4   -432813.94921
 91  4 25 20 18 45.0000000  0  6G18G 2G11G19G16G 6
  21432475.727     3750231.774 7   2922255.19123
  22842571.125    -4733654.934 6  -3688538.57721
  23375049.695    -2358445.251 6  -1837747.24121
  21050182.9384     749132.23447    583740.11262
  24093572.625    -1441120.668 5   -811032.36721
  24459745.484     -751156.718 5   -454301.75321
 91  4 25 20 19  0.0000000  0  6G18G 2G11G19G16G 6
  21439541.1254    3787353.44547   2951181.12163
  22836081.6174   -4767751.04946  -3715106.86061
  23372941.461    -2369529.794 6  -1846384.52921
  21051897.0164     758146.16747    590763.96162
  24091031.852    -1454479.938 5   -821442.18821
  24454504.4224    -778712.37244   -475773.49161
 91  4 25 20 19 15.0000000  0  6G18G 2G11G19G16G 6
  21446627.094     3824584.138 7   2980192.00923
  22829608.5704   -4801772.54246  -3741616.99461
  23370860.883    -2380472.184 6  -1854911.05121
  21053623.6334     767212.08447    597828.31562
  24088515.813    -1467702.341 5   -831745.37121
  24449259.0474    -806246.52644   -497228.50861
 91  4 25 20 19 30.0000000  0  6G18G 2G11G19G16G 6
  21453730.789     3861919.329 7   3009284.31723
  22823147.7034   -4835723.80946  -3768072.41261
  23368801.531    -2391276.642 6  -1863330.09421
  21055357.7664     776325.37547    604929.58162
  24086027.859    -1480792.631 5   -841945.57621
  24444019.3834    -833763.75744   -518670.28861
 91  4 25 20 19 45.0000000  0  6G18G 2G11G19G16G 6
  21460855.453     3899359.467 7   3038458.40723
  22816700.688    -4869604.348 6  -3794472.71721
  23366772.172    -2401942.518 6  -1871641.14821
  21057101.8594     785486.64047    612068.22962
  24083559.8054   -1493750.09645   -852042.28561
  24438792.398     -861263.726 5   -540098.65321
 91  4 25 20 20  0.0000000  0  6G18G 2G11G19G16G 6
  21468001.141     3936904.441 7   3067714.18623
  22810268.1804   -4903414.06246  -3820817.82961
  23364769.6414   -2412469.57946  -1879844.04161
  21058850.9924     794695.69947    619244.11862
  24081119.6724   -1506574.55045   -862035.35661
  24433560.6804    -888746.37744   -561513.50561
 91  4 25 20 20 15.0000000  0  6G18G 2G11G19G16G 6
  21475166.563     3974558.220 7   3097054.74623
  22803847.6484   -4937148.67046  -3847104.42461
  23362795.070    -2422853.433 6  -1887935.34421
  21060616.6564     803956.85846    626460.60762
  24078705.5554   -1519261.90345   -871921.60161
  24428336.7584    -916207.62845   -582911.74261
 91  4 25 20 20 30.0000000  0  6G18G 2G11G19G16G 6
  21482351.5554    4012318.65647   3126478.41963
  22797442.609    -4970809.900 6  -3873333.84021
  23360845.781    -2433095.758 6  -1895916.35321
  21062385.6804     813268.24347    633716.23162
  24076317.4774   -1531813.82645   -881702.29861
  24423112.6884    -943649.44045   -604294.75461
 91  4 25 20 20 45.0000000  0  6G18G 2G11G19G16G 6
  21489557.703     4050183.159 7   3155983.18123
  22791049.063    -5004400.122 6  -3899507.93021
  23358921.836    -2443198.878 6  -1903788.90321
  21064169.9144     822627.34947    641009.04262
  24073952.813    -1544232.524 6   -891379.19921
  24417897.125     -971074.350 5   -625664.62621
 91  4 25 20 21  0.0000000  0  6G18G 2G11G19G16G 6
  21496782.5394    4088153.46747   3185570.39163
  22784672.5084   -5037917.26746  -3925625.06761
  23357026.9064   -2453160.54546  -1911551.23361
  21065960.3134     832036.22346    648340.63162
  24071615.0394   -1556516.12945   -900950.85561
  24412681.016     -998480.387 5   -647019.81221
 91  4 25 20 21 15.0000000  0  6G18G 2G11G19G16G 6
  21504028.359     4126227.015 7   3215238.04423
  22778305.906    -5071364.093 6  -3951687.42421
  23355155.383    -2462983.301 6  -1919205.32121
  21067757.7974     841492.13347    655708.87262
  24069303.1484   -1568667.40745   -910419.38161
  24407469.031    -1025870.476 5   -668362.52721
 91  4 25 20 21 30.0000000  0  6G18G 2G11G19G16G 6
  21511293.594     4164404.560 7   3244986.73223
  22771954.1484   -5104739.17146  -3977693.86261
  23353316.086    -2472665.587 6  -1926749.94021
  21069565.6094     850996.35847    663114.76762
  24067017.297    -1580684.992 5   -919783.72121
  24402256.758    -1053243.223 5   -689691.75521
 91  4 25 20 21 45.0000000  0  6G18G 2G11G19G16G 6
  21518578.094     4202688.218 7   3274818.10723
  22765618.313    -5138040.113 6  -4003642.53321
  23351500.5554   -2482205.07146  -1934183.29661
  21071385.0864     860551.03747    670559.96562
  24064754.8284   -1592566.54445   -929042.06061
  24397053.320    -1080596.661 5   -711005.94721
 91  4 25 20 22  0.0000000  0  6G18G 2G11G19G16G 6
  21525882.281     4241076.124 7   3304730.71523
  22759295.2504   -5171268.66146  -4029534.79561
  23349708.477    -2491603.250 6  -1941506.53721
  21073210.5474     870154.53647    678043.21162
  24062521.4384   -1604313.42046   -938195.48961
  24391849.391    -1107932.489 5   -732306.41221
 91  4 25 20 22 15.0000000  0  6G18G 2G11G19G16G 6
  21533206.844     4279569.362 7   3334725.39623
  22752985.953    -5204423.569 6  -4055369.68121
  23347949.5634   -2500858.79646  -1948718.64461
  21075049.3284     879807.88647    685565.30462
  24060308.438    -1615924.882 6   -947243.36021
  24386649.5864   -1135249.90845   -753592.52061
 91  4 25 20 22 30.0000000  0  6G18G 2G11G19G16G 6
  21540551.461     4318164.529 7   3364799.50323
  22746690.344    -5237507.564 6  -4081149.30621
  23346215.4774   -2509974.46046  -1955821.74361
  21076893.5084     889508.23647    693124.01962
  24058127.867    -1627403.728 6   -956187.93721
  24381457.969    -1162551.573 5   -774866.38621
 91  4 25 20 22 45.0000000  0  6G18G 2G11G19G16G 6
  21547915.266     4356859.962 7   3394951.74223
  22740407.7424   -5270522.41446  -4106875.05062
  23344505.5634   -2518951.76546  -1962817.03661
  21078750.3914     899253.91747    700718.05262
  24055969.6174   -1638751.61146   -965030.41261
  24376261.547    -1189839.482 5   -796129.50821
 91  4 25 20 23  0.0000000  0  6G18G 2G11G19G16G 6
  21555298.586     4395660.085 7   3425185.55923
  22734139.734    -5303463.108 6  -4132543.02021
  23342826.266    -2527785.852 6  -1969700.73621
  21080611.5314     909049.65747    708351.09762
  24053832.6884   -1649963.32445   -973766.81061
  24371072.000    -1217108.891 5   -817378.20221
 91  4 25 20 23 15.0010000  0  6G18G 2G11G19G16G 6
  21562701.997     4434564.700 7   3455500.79523
  22727883.106    -5336334.305 6  -4158156.82722
  23341172.2784   -2536479.61246  -1976475.07861
  21082488.4114     918893.55247    716021.66362
  24051723.2084   -1661042.31745   -982399.77661
  24365888.2084   -1244364.17545   -838615.88561
 91  4 25 20 23 30.0010000  0  6G18G 2G11G19G16G 6
  21570122.841     4473568.458 7   3485893.29023
  22721644.106    -5369131.978 6  -4183713.35221
  23339542.700    -2545031.879 6  -1983139.17921
  21084367.9814     928784.15347    723728.62262
  24049644.3724   -1671987.32946   -990928.37661
  24360702.8884   -1271602.05744   -859840.01061
 91  4 25 20 23 45.0010000  0  6G18G 2G11G19G16G 6
  21577566.185     4512674.635 7   3516365.59423
  22715414.872    -5401857.444 6  -4209213.60522
  23337943.130    -2553442.222 6  -1989692.68021
  21086261.5834     938722.94646    731473.13862
  24047583.4424   -1682798.05446   -999352.30861
  24355523.8104   -1298823.58444   -881051.40561
 91  4 25 20 24  0.0010000  0  6G18G 2G11G19G16G 6
  21585027.685     4551882.073 7   3546916.79423
  22709201.497    -5434511.496 6  -4234658.21221
  23336371.6694   -2561711.40946  -1996136.18761
  21088158.9354     948709.03347    739254.49962
  24045551.489    -1693475.527 6  -1007672.44321
  24350343.8884   -1326029.82044   -902250.86261
 91  4 25 20 24 15.0010000  0  6G18G 2G11G19G16G 6
  21592507.497     4591189.506 7   3577545.91423
  22703000.5604   -5467095.03546  -4260047.87161
  23334823.005    -2569840.389 6  -2002470.44021
  21090070.2554     958741.36447    747071.89662
  24043544.614    -1704020.798 5  -1015889.52821
  24345170.2394   -1353221.87044   -923439.28561
 91  4 25 20 24 30.0010000  0  6G18G 2G11G19G16G 6
  21600005.911     4630596.336 7   3608252.48223
  22696814.888    -5499608.443 6  -4285382.88221
  23333301.8724   -2577829.46546  -2008695.68861
  21091989.4814     968819.23547    754924.78062
  24041565.8024   -1714434.12246  -1024003.80661
  24340001.7944   -1380400.37845   -944617.14361
 91  4 25 20 24 45.0010000  0  6G18G 2G11G19G16G 6
  21607525.685     4670105.677 7   3639038.93123
  22690641.677    -5532048.005 6  -4310660.35421
  23331810.200    -2585674.984 6  -2014809.06521
  21093915.7864     978946.17846    762815.90062
  24039609.9584   -1724711.98145  -1032012.53861
  24334830.497    -1407561.825 5   -965781.72021
 91  4 25 20 25  0.0010000  0  6G18G 2G11G19G16G 6
  21615060.153     4709716.842 7   3669904.71823
  22684482.958    -5564414.526 6  -4335880.91521
  23330343.896    -2593377.281 6  -2020810.84021
  21095850.9744     989121.86447    770744.99862
  24037679.927    -1734855.029 6  -1039916.24321
  24329662.653    -1434706.793 5   -986933.44621
 91  4 25 20 25 15.0010000  0  6G18G 2G11G19G16G 6
  21622618.724     4749424.293 7   3700845.54523
  22678334.599    -5596713.212 6  -4361048.60922
  23328904.3644   -2600941.69846  -2026705.18561
  21097796.1144     999340.84546    778707.84462
  24035772.4194   -1744868.54045  -1047718.97761
  24324503.177    -1461840.890 5  -1008076.71221
 91  4 25 20 25 30.0010000  0  6G18G 2G11G19G16G 6
  21630192.458     4789232.565 7   3731864.92523
  22672203.786    -5628939.448 6  -4386159.85222
  23327493.864    -2608363.440 6  -2032488.34721
  21099748.5994    1009607.55447    786707.86962
  24033894.239    -1754748.022 6  -1055417.24421
  24319339.528    -1488959.644 5  -1029208.00521
 91  4 25 20 25 45.0010000  0  6G18G 2G11G19G16G 6
  21637788.935     4829143.890 7   3762964.61523
  22666083.599    -5661090.500 6  -4411212.51622
  23326107.6224   -2615639.85746  -2038158.27461
  21101712.7784    1019924.59446    794747.11762
  24032038.4424   -1764490.60346  -1063008.88061
  24314184.958    -1516060.553 4  -1050325.41721
 91  4 25 20 26  0.0010000  0  6G18G 2G11G19G16G 6
  21645403.450     4869156.688 7   3794143.37523
  22659978.958    -5693167.659 6  -4436207.59422
  23324748.0134   -2622772.00546  -2043715.78961
  21103684.7394    1030290.50047    802824.44262
  24030211.4034   -1774097.69446  -1070494.92161
  24309029.3564   -1543145.07144  -1071430.06661
 91  4 25 20 26 15.0010000  0  6G18G 2G11G19G16G 6
  21653033.692     4909265.685 7   3825397.09023
  22653889.700    -5725176.083 7  -4461149.11421
  23323419.9894   -2629764.81346  -2049164.72361
  21105667.2164    1040700.19647    810935.88662
  24028409.2164   -1783574.53446  -1077879.46361
  24303878.0604   -1570218.28445  -1092525.87661
 91  4 25 20 26 30.0010000  0  6G18G 2G11G19G16G 6
  21660686.567     4949472.658 7   3856727.15323
  22647810.935    -5757113.457 6  -4486035.27721
  23322115.278    -2636616.163 6  -2054503.43121
  21107657.4504    1051155.76446    819083.07762
  24026629.9114   -1792918.85745  -1085160.75761
  24298727.8644   -1597278.25344  -1113611.37761
 91  4 25 20 26 45.0010000  0  6G18G 2G11G19G16G 6
  21668355.013     4989783.081 7   3888137.82123
  22641747.435    -5788974.400 6  -4510861.87122
  23320838.4194   -2643320.33146  -2059727.45261
  21109656.7554    1061662.95547    827270.49462
  24024878.177    -1802125.013 5  -1092334.38621
  24293581.763    -1624319.487 5  -1134682.28021
 91  4 25 20 27  0.0010000  0  6G18G 2G11G19G16G 6
  21676046.528     5030192.073 7   3919625.29723
  22635698.763    -5820763.377 6  -4535632.40221
  23319592.1224   -2649881.75946  -2064840.24361
  21111664.1854    1072216.99647    835494.41662
  24023149.8334   -1811197.44445  -1099403.78561
  24288436.325    -1651346.778 4  -1155742.31321
 91  4 25 20 27 15.0010000  0  6G18G 2G11G19G16G 6
  21683753.872     5070697.185 7   3951187.67023
  22629661.888    -5852482.507 7  -4560348.50321
  23318368.4274   -2656302.48346  -2069843.39761
  21113683.5834    1082815.63247    843753.08662
  24021450.5134   -1820138.77746  -1106371.06161
  24283292.4194   -1678362.28544  -1176793.18561
 91  4 25 20 27 30.0010000  0  6G18G 2G11G19G16G 6
  21691480.224     5111299.425 7   3982825.73423
  22623641.411    -5884130.499 7  -4585009.17421
  23317175.9814   -2662581.33346  -2074736.00661
  21115707.2784    1093460.10246    852047.47563
  24019771.3804   -1828947.56445  -1113235.04361
  24278162.1064   -1705365.06045  -1197834.11761
 91  4 25 20 27 45.0010000  0  6G18G 2G11G19G16G 6
  21699227.083     5152002.389 7   4014542.28023
  22617632.5754   -5915703.63147  -4609611.51462
  23316008.8564   -2668714.35646  -2079514.97861
  21117742.4744    1104154.20446    860380.53362
  24018122.685    -1837620.198 5  -1119992.97221
  24273024.685    -1732351.490 5  -1218862.32221
 91  4 25 20 28  0.0010000  0  6G18G 2G11G19G16G 6
  21706991.731     5192805.197 7   4046336.63223
  22611639.841    -5947202.630 7  -4634156.07922
  23314866.4894   -2674702.17846  -2084180.80861
  21119785.9744    1114897.18847    868751.68462
  24016498.6144   -1846157.25945  -1126645.20961
  24267889.927    -1759322.216 5  -1239878.29821
 91  4 25 20 28 15.0010000  0  6G18G 2G11G19G16G 6
  21714773.708     5233706.254 7   4078207.53623
  22605657.9194   -5978628.47747  -4658643.65362
  23313758.849    -2680545.711 6  -2088734.19721
  21121839.0524    1125687.91946    877160.04162
  24014899.0054   -1854559.81545  -1133192.66261
  24262759.9744   -1786278.55345  -1260883.06361
 91  4 25 20 28 30.0010000  0  6G18G 2G11G19G16G 6
  21722575.403     5274705.074 7   4110154.62223
  22599691.7314   -6009981.48347  -4683074.46861
  23312671.6384   -2686245.14746  -2093175.31061
  21123901.8964    1136525.93046    885605.23562
  24013326.9114   -1862828.27345  -1139635.61761
  24257633.356    -1813220.944 5  -1281876.94421
 91  4 25 20 28 45.0010000  0  6G18G 2G11G19G16G 6
  21730395.817     5315804.322 7   4142179.95423
  22593740.067    -6041259.060 6  -4707446.50422
  23311617.060    -2691797.841 6  -2097502.07621
  21125973.8804    1147413.93846    894089.39462
  24011779.2944   -1870959.86445  -1145971.92361
  24252514.356    -1840146.874 5  -1302858.02021
 91  4 25 20 29  0.0010000  0  6G18G 2G11G19G16G 6
  21738238.356     5357002.011 7   4174282.00423
  22587800.419    -6072462.594 6  -4731760.84822
  23310587.7394   -2697205.04446  -2101715.47461
  21128054.3644    1158350.57147    902611.44262
  24010258.9664   -1878956.35245  -1152202.97661
  24247389.122    -1867057.742 5  -1323827.32921
 91  4 25 20 29 15.0010000  0  6G18G 2G11G19G16G 6
  21746094.130     5398298.327 7   4206460.90123
  22581877.0284   -6103591.69746  -4756017.19262
  23309585.9744   -2702466.36846  -2105815.19761
  21130146.5994    1169335.74846    911171.30862
  24008762.2244   -1886817.18945  -1158328.31361
  24242273.685    -1893953.660 5  -1344785.03721
 91  4 25 20 29 30.0010000  0  6G18G 2G11G19G16G 6
  21753972.146     5439692.405 7   4238715.97823
  22575968.692    -6134647.233 6  -4780216.20422
  23308611.8644   -2707582.42146  -2109801.71361
  21132242.7244    1180368.75946    919768.45962
  24007292.8254   -1894543.20345  -1164348.58861
  24237152.036    -1920835.373 5  -1365731.65921
 91  4 25 20 29 45.0010000  0  6G18G 2G11G19G16G 6
  21761869.169     5481185.796 7   4271048.44023
  22570073.5604   -6165627.04646  -4804356.22362
  23307665.825    -2712551.249 6  -2113673.52121
  21134354.5994    1191451.68746    928404.49962
  24005846.950    -1902132.581 5  -1170262.39721
  24232042.403    -1947700.936 5  -1386665.70421
 91  4 25 20 30  0.0010000  0  6G18G 2G11G19G16G 6
  21769783.903     5522779.542 7   4303459.10123
  22564191.692    -6196529.880 6  -4828436.26022
  23306748.1064   -2717371.42846  -2117429.50261
  21136471.4664    1202585.71046    937080.35862
  24004429.2004   -1909583.86645  -1176068.59561
  24226936.255    -1974549.161 5  -1407586.21821
 91  4 25 20 30 15.0010000  0  6G18G 2G11G19G16G 6
  21777717.825     5564472.260 7   4335946.88223
  22558327.435    -6227357.041 6  -4852457.31922
  23305861.4034   -2722044.21046  -2121070.62061
  21138600.9034    1213769.41546    945794.92762
  24003034.6304   -1916898.64645  -1181768.43461
  24221829.3024   -2001381.57945  -1428494.44461
 91  4 25 20 30 30.0010000  0  6G18G 2G11G19G16G 6
  21785671.708     5606268.176 7   4368515.08223
  22552474.3254   -6258103.83646  -4876415.76862
  23304998.7554   -2726564.76446  -2124593.12261
  21140739.5524    1225007.47147    954551.85162
  24001673.8724   -1924072.11345  -1187358.16661
  24216727.700    -2028193.720 5  -1449386.87821
 91  4 25 20 30 45.0010000  0  6G18G 2G11G19G16G 6
  21793643.528     5648160.841 7   4401158.66723
  22546639.2004   -6288776.22947  -4900316.23762
  23304166.091    -2730939.009 6  -2128001.61121
  21142886.8024    1236293.97046    963346.52062
  24000333.177    -1931110.205 5  -1192842.40921
  24211624.4034   -2054991.66645  -1470268.22561
 91  4 25 20 31  0.0010000  0  6G18G 2G11G19G16G 6
  21801634.411     5690151.972 7   4433878.98023
  22540814.0364   -6319372.72546  -4924157.57162
  23303361.4504   -2735165.23446  -2131294.76561
  21145042.0524    1247630.64246    972180.28562
  23999022.1854   -1938011.39345  -1198219.97061
  24206531.216    -2081773.729 5  -1491137.21421
 91  4 25 20 31 15.0010000  0  6G18G 2G11G19G16G 6
  21809644.3024    5732238.94447   4466673.98363
  22535006.8174   -6349895.49246  -4947941.44862
  23302585.7864   -2739245.72946  -2134474.36561
  21147209.9114    1259014.81946    981051.06962
  23997726.9814   -1944777.79045  -1203492.48261
  24201433.388    -2108542.489 5  -1511995.85421
 91  4 25 20 31 30.0010000  0  6G18G 2G11G19G16G 6
  21817669.817     5774423.353 7   4499544.90523
  22529212.7634   -6380342.44146  -4971666.24562
  23301836.4274   -2743178.39146  -2137538.76561
  21149385.7084    1270448.62946    989960.52662
  23996473.708    -1951407.479 5  -1208658.49821
  24196345.7474   -2135296.13645  -1532842.66061
 91  4 25 20 31 45.0010000  0  6G18G 2G11G19G16G 6
  21825715.419     5816705.318 7   4532491.84623
  22523433.0444   -6410713.64046  -4995332.02262
  23301117.5134   -2746962.98446  -2140487.78961
  21151571.3334    1281932.08146    998908.66562
  23995234.6384   -1957900.77945  -1213718.22361
  24191257.5994   -2162034.62345  -1553677.70461
 91  4 25 20 32  0.0010000  0  6G18G 2G11G19G16G 6
  21833779.208     5859085.978 7   4565515.69222
  22517669.1854   -6441007.73146  -5018937.70962
  23300425.786    -2750598.150 6  -2143320.37421
  21153766.2944    1293466.46746   1007896.49662
  23994027.5754   -1964256.30745  -1218670.57861
  24186172.2164   -2188756.83145  -1574500.05261
 91  4 25 20 32 15.0010000  0  6G18G 2G11G19G16G 6
  21841866.356     5901564.672 7   4598615.93022
  22511919.1854   -6471224.97646  -5042483.52662
  23299759.771    -2754084.273 6  -2146036.81721
  21155973.0524    1305051.32746   1016923.64863
  23992840.9194   -1970474.39945  -1223515.84561
  24181087.1384   -2215462.90545  -1595309.81461
 91  4 25 20 32 30.0010000  0  6G18G 2G11G19G16G 6
  21849966.028     5944137.055 7   4631789.16722
  22506184.3494   -6501368.92247  -5065972.22462
  23299128.450    -2757424.890 6  -2148639.88921
  21158184.3494    1316682.96046   1025987.25462
  23991684.817    -1976558.738 5  -1228256.91321
  24176009.1924   -2242157.04145  -1616110.30461
 91  4 25 20 32 45.0010000  0  6G18G 2G11G19G16G 6
  21858086.450     5986807.354 7   4665038.70122
  22500457.9974   -6531435.29946  -5089400.47662
  23298520.4744   -2760615.56846  -2151126.12761
  21160408.1924    1328365.82646   1035090.78462
  23990551.521    -1982505.132 5  -1232890.48621
  24170934.036    -2268834.878 5  -1636898.05621
 91  4 25 20 33  0.0010000  0  6G18G 2G11G19G16G 6
  21866223.661     6029573.136 7   4698362.64122
  22494753.5364   -6561426.45647  -5112770.12462
  23297940.239    -2763658.547 6  -2153497.26921
  21162637.7554    1340097.50547   1044232.34162
  23989445.2474   -1988315.71545  -1237418.20861
  24165858.825    -2295498.724 5  -1657674.94921
 91  4 25 20 33 15.0010000  0  6G18G 2G11G19G16G 6
  21874382.481     6072438.697 7   4731764.32522
  22489061.3644   -6591337.98546  -5136077.71162
  23297391.5754   -2766549.24246  -2155749.75361
  21164881.6854    1351882.35846   1053415.33862
  23988367.255    -1993986.187 5  -1241836.76721
  24160787.888    -2322144.317 5  -1678437.58421
 91  4 25 20 33 30.0010000  0  6G18G 2G11G19G16G 6
  21882555.255     6115401.151 7   4765241.50722
  22483385.0914   -6621172.27147  -5159325.11762
  23296867.9274   -2769289.97746  -2157885.37361
  21167135.7314    1363717.89646   1062637.83262
  23987314.6854   -1999518.99645  -1246148.04961
  24155717.9424   -2348774.20645  -1699188.00161
 91  4 25 20 33 45.0010000  0  6G18G 2G11G19G16G 6
  21890749.685     6158461.185 7   4798794.72622
  22477720.3254   -6650928.28747  -5182511.53362
  23296373.3884   -2771879.89646  -2159903.48661
  21169396.5214    1375605.01946   1071900.51862
  23986293.0674   -2004913.19745  -1250351.33361
  24150657.161    -2375387.588 5  -1719925.54021
 91  4 25 20 34  0.0010000  0  6G18G 2G11G19G16G 6
  21898963.239     6201613.869 7   4832420.14222
  22472072.8334   -6680610.86447  -5205640.72662
  23295910.544    -2774323.719 6  -2161807.75221
  21171666.5754    1387539.00547   1081199.72662
  23985287.9894   -2010173.78645  -1254450.49561
  24145593.880    -2401989.328 5  -1740654.00921
 91  4 25 20 34 15.0010000  0  6G18G 2G11G19G16G 6
  21907192.302     6244857.767 7   4866116.64022
  22466439.1464   -6710221.28747  -5228713.69062
  23295473.4424   -2776622.57046  -2163599.05361
  21173948.5284    1399518.45146   1090534.35462
  23984310.403    -2015302.045 5  -1258446.56521
  24140530.044    -2428581.011 5  -1761374.63321
 91  4 25 20 34 30.0010000  0  6G18G 2G11G19G16G 6
  21915437.481     6288195.770 7   4899886.45523
  22460818.1924   -6739756.22247  -5251727.83262
  23295065.333    -2778773.159 6  -2165274.82721
  21176235.0284    1411546.89647   1099907.16462
  23983359.5214   -2020294.63045  -1262336.89061
  24135475.0754   -2455159.36545  -1782084.87361
 91  4 25 20 34 45.0010000  0  6G18G 2G11G19G16G 6
  21923701.833     6331626.525 7   4933728.55323
  22455212.880    -6769216.449 7  -5274683.77122
  23294683.9424   -2780776.15846  -2166835.60161
  21178535.8644    1423623.47446   1109317.47762
  23982436.606    -2025152.196 5  -1266121.99821
  24130418.8494   -2481725.10345  -1802785.29161
 91  4 25 20 35  0.0010000  0  6G18G 2G11G19G16G 6
  21931987.356     6375152.840 7   4967645.11723
  22449620.177    -6798599.297 7  -5297579.40822
  23294331.8024   -2782629.06246  -2168279.41561
  21180840.0214    1435750.58447   1118767.16762
  23981537.9974   -2029872.61445  -1269800.26461
  24125366.114    -2508275.793 5  -1823473.97221
 91  4 25 20 35 15.0010000  0  6G18G 2G11G19G16G 6
  21940285.185     6418771.432 7   5001633.57823
  22444043.388    -6827907.835 7  -5320417.14522
  23294006.3804   -2784334.64646  -2169608.44261
  21183160.7714    1447925.05446   1128253.76262
  23980667.0994   -2034458.95645  -1273374.04761
  24120317.333    -2534814.781 5  -1844153.54921
 91  4 25 20 35 30.0010000  0  6G18G 2G11G19G16G 6
  21948603.458     6462481.800 7   5035693.56122
  22438478.8884   -6857142.17847  -5343197.06962
  23293709.9354   -2785892.93346  -2170822.68861
  21185482.4974    1460147.17747   1137777.49062
  23979818.1534   -2038911.09545  -1276843.24961
  24115266.6694   -2561342.02945  -1864823.97261
 91  4 25 20 35 45.0010000  0  6G18G 2G11G19G16G 6
  21956939.614     6506284.263 7   5069825.30123
  22432931.4744   -6886301.78647  -5365918.74762
  23293440.5834   -2787303.40446  -2171921.74361
  21187818.9744    1472417.23046   1147338.56562
  23978995.7784   -2043228.53645  -1280207.49561
  24110227.0524   -2587857.26945  -1885485.03761
 91  4 25 20 36  0.0010000  0  6G18G 2G11G19G16G 6
  21965291.083     6550178.789 7   5104028.78122
  22427395.3254   -6915386.07847  -5388581.75162
  23293200.8494   -2788565.44246  -2172905.14561
  21190162.0284    1484735.59047   1156937.28462
  23978201.5754   -2047410.81945  -1283466.41461
  24105179.849    -2614360.165 5  -1906136.46821
 91  4 25 20 36 15.0010000  0  6G18G 2G11G19G16G 6
  21973662.349     6594167.423 7   5138305.58922
  22421877.763    -6944392.910 7  -5411184.39022
  23292987.3724   -2789676.86946  -2173771.19161
  21192518.2634    1497104.50147   1166575.39262
  23977431.911    -2051455.809 5  -1286618.37921
  24100139.747    -2640848.423 5  -1926776.50821
 91  4 25 20 36 30.0010000  0  6G18G 2G11G19G16G 6
  21982050.575     6638244.862 7   5172651.59522
  22416367.4504   -6973327.59047  -5433730.80762
  23292807.880    -2790642.830 6  -2174523.87521
  21194877.8804    1509518.61347   1176248.71863
  23976686.2864   -2055368.90745  -1289667.53261
  24095104.091    -2667327.502 5  -1947409.39421
 91  4 25 20 36 45.0010000  0  6G18G 2G11G19G16G 6
  21990456.208     6682416.017 7   5207070.61922
  22410879.083    -7002184.829 7  -5456216.88922
  23292651.2004   -2791457.94746  -2175159.02761
  21197253.5914    1521983.22147   1185961.39663
  23975966.271    -2059145.018 5  -1292609.97821
  24090065.153    -2693792.186 5  -1968031.06221
 91  4 25 20 37  0.0010000  0  6G18G 2G11G19G16G 6
  21998881.356     6726681.534 7   5241563.18223
  22405400.3254   -7030963.62347  -5478641.83262
  23292522.7714   -2792121.30646  -2175675.91961
  21199629.6534    1534499.26846   1195714.15462
  23975273.981    -2062783.101 5  -1295444.84321
  24085031.833    -2720241.747 5  -1988640.92921
 91  4 25 20 37 15.0010000  0  6G18G 2G11G19G16G 6
  22007320.372     6771039.409 7   5276127.70222
  22399940.521    -7059665.649 7  -5501006.95822
  23292426.2784   -2792634.49246  -2176075.80061
  21202025.0054    1547065.13346   1205505.73763
  23974609.185    -2066284.891 5  -1298173.52121
  24079998.966    -2746677.854 5  -2009240.35421
 91  4 25 20 37 30.0010000  0  6G18G 2G11G19G16G 6
  22015778.896     6815488.806 7   5310763.54422
  22394492.6064   -7088291.64147  -5523312.84862
  23292357.927    -2792998.265 6  -2176359.24721
  21204424.5524    1559680.04747   1215335.53862
  23973968.7314   -2069651.24445  -1300796.66561
  24074971.6304   -2773101.61245  -2029830.10761
 91  4 25 20 37 45.0010000  0  6G18G 2G11G19G16G 6
  22024254.060     6860030.545 7   5345471.34522
  22389061.122    -7116840.461 7  -5545558.59622
  23292317.7944   -2793211.44446
  21206834.6144    1572345.01246   1225204.33562
  23973352.216    -2072881.253 5  -1303313.56821
  24069944.4034   -2799511.82145  -2050409.32261
 91  4 25 20 38  0.0010000  0  6G18G 2G11G19G16G 6
  22032751.528     6904665.591 7   5380251.84722
  22383643.5754   -7145310.72447  -5567743.13162
  23292306.9424   -2793272.50446
  21209252.9114    1585061.49647   1235113.28563
  23972764.825    -2075973.548 5  -1305723.16721
  24064923.6614   -2825907.09345  -2070976.90861
 91  4 25 20 38 15.0010000  0  6G18G 2G11G19G16G 6
  22041259.349     6949390.029 7   5415102.00722
  22378237.481    -7173706.140 7  -5589869.34222
  23292322.8644   -2793185.28046
  21211683.8644    1597825.69746   1245059.40862
  23972204.7474   -2078931.82945  -1308028.35461
  24059900.067    -2852291.614 5  -2091536.09921
 91  4 25 20 38 30.0010000  0  6G18G 2G11G19G16G 6
  22049789.013     6994206.460 7   5450023.84622
  22372850.505    -7202023.871 7  -5611935.02422
  23292366.0054   -2792946.98146
  21214121.7554    1610640.31746   1255044.82362
  23971668.169    -2081753.339 5  -1310226.93721
  24054882.122    -2878662.402 5  -2112084.60821
 91  4 25 20 38 45.0010000  0  6G18G 2G11G19G16G 6
  22058332.747     7039108.695 7   5485012.55022
  22367474.927    -7230269.979 7  -5633944.89322
  23292439.3804   -2792563.33546
  21216569.9504    1623499.36246   1265064.85662
  23971156.599    -2084444.034 5  -1312323.61021
  24049867.411    -2905025.647 5  -2132627.23621
 91  4 25 20 39  0.0010000  0  6G18G 2G11G19G16G 6
  22066898.130     7084105.891 7   5520075.24222
  22362115.497    -7258434.965 7  -5655891.55422
  23292539.9584   -2792024.90246  -2175600.76361
  21219028.0134    1636412.28546   1275126.87262
  23970670.8174   -2086994.59445  -1314311.07461
  24044850.997    -2931371.942 5  -2153156.64921
 91  4 25 20 39 15.0010000  0  6G18G 2G11G19G16G 6
  22075476.169     7129194.914 7   5555209.49422
  22356770.919    -7286521.631 7  -5677777.18422
  23292675.091    -2791334.485 6  -2175062.76621
  21221495.3884    1649376.26846   1285228.67462
  23970209.927    -2089408.001 5  -1316191.69121
  24039839.724    -2957704.165 5  -2173675.10421
 91  4 25 20 39 30.0010000  0  6G18G 2G11G19G16G 6
  22084072.067     7174373.964 7   5590413.89722
  22351440.567    -7314531.562 7  -5699603.01922
  23292832.9034   -2790493.57846  -2174407.51661
  21223971.1924    1662389.73047   1295369.03363
  23969777.317    -2091685.696 5  -1317966.54721
  24034832.771    -2984024.108 5  -2194183.98221
 91  4 25 20 39 45.0010000  0  6G18G 2G11G19G16G 6
  22092687.653     7219642.599 7   5625688.10322
  22346124.161    -7342464.914 7  -5721369.18722
  23293019.763    -2789502.395 6  -2173635.14821
  21226455.8494    1675452.41546   1305547.74562
  23969367.9274   -2093828.27445  -1319636.11861
  24029829.9504   -3010331.84145  -2214683.33261
 91  4 25 20 40  0.0010000  0  6G18G 2G11G19G16G 6
  22101318.5444    7265001.93447   5661032.98162
  22340824.942    -7370320.352 7  -5743074.64122
  23293239.896    -2788359.335 6  -2172744.44621
  21228951.9114    1688565.79246   1315765.96462
  23968989.028    -2095833.923 5  -1321198.98921
  24024822.2784   -3036626.26245  -2235172.33661
 91  4 25 20 40 15.0010000  0  6G18G 2G11G19G16G 6
  22109969.208     7310448.480 7   5696445.82122
  22335537.278    -7398100.951 7  -5764721.77822
  23293486.4114   -2787067.65446  -2171737.93461
  21231454.7784    1701726.53046   1326021.08062
  23968631.958    -2097706.067 5  -1322657.82521
  24019819.044    -3062910.625 5  -2255653.48221
 91  4 25 20 40 30.0010000  0  6G18G 2G11G19G16G 6
  22118629.638     7355986.888 7   5731930.23322
  22330266.677    -7425801.657 7  -5786306.66022
  23293758.4814   -2785622.36346  -2170611.73061
  21233970.4114    1714939.92546   1336317.22862
  23968302.2634   -2099440.14345  -1324009.07961
  24014825.653    -3089179.945 5  -2276122.90321
 91  4 25 20 40 45.0010000  0  6G18G 2G11G19G16G 6
  22127313.349     7401611.714 7   5767481.99622
  22325008.216    -7453427.901 7  -5807833.52622
  23294066.208    -2784028.780 6  -2169369.97021
  21236495.1064    1728200.47346   1346650.11962
  23967994.8884   -2101041.24045  -1325256.73061
  24009827.7164   -3115439.79145  -2296584.95061
 91  4 25 20 41  0.0010000  0  6G18G 2G11G19G16G 6
  22136014.0214    7447324.85847   5803102.57062
  22319766.8254   -7480977.48947  -5829300.65262
  23294396.8174   -2782284.77146  -2168011.00261
  21239028.0604    1741510.27646   1357021.39262
  23967716.786    -2102507.436 5  -1326399.25221
  24004829.5914   -3141688.07445  -2317037.97861
 91  4 25 20 41 15.0010000  0  6G18G 2G11G19G16G 6
  22144728.974     7493125.405 7   5838791.25022
  22314539.396    -7508450.901 7  -5850708.42022
  23294755.3494   -2780390.65846  -2166535.06361
  21241569.8104    1754868.99946   1367430.78662
  23967463.3644   -2103838.97645  -1327436.82461
  23999836.1064   -3167925.22145  -2337482.33361
 91  4 25 20 41 30.0010000  0  6G18G 2G11G19G16G 6
  22153459.802     7539010.116 7   5874545.51622
  22309324.380    -7535851.298 7  -5872059.29822
  23295143.9274   -2778349.65246  -2164944.67061
  21244117.9504    1768273.39847   1377875.77162
  23967236.310    -2105039.275 5  -1328372.15521
  23994843.810    -3194154.684 5  -2357920.70721
 91  4 25 20 41 45.0010000  0  6G18G 2G11G19G16G 6
  22162211.0754    7584986.21147   5910370.98262
  22304125.138    -7563171.516 7  -5893347.70122
  23295562.817    -2776154.551 6  -2163234.19421
  21246680.8564    1781730.47746   1388361.80062
  23967035.0134   -2106101.35345  -1329199.77861
  23989855.669    -3220369.274 5  -2378347.50421
 91  4 25 20 42  0.0010000  0  6G18G 2G11G19G16G 6
  22170974.989     7631049.509 7   5946264.40822
  22298941.052    -7590414.960 7  -5914576.27922
  23296007.325    -2773808.622 6  -2161406.19621
  21249249.9664    1795237.00847   1398886.36862
  23966858.0674   -2107028.66945  -1329922.38961
  23984870.7784   -3246572.53945  -2398765.46061
 91  4 25 20 42 15.0010000  0  6G18G 2G11G19G16G 6
  22179756.9664    7677198.65947   5982224.72462
  22293773.458    -7617582.677 7  -5935745.84622
  23296483.2784   -2771312.94546  -2159461.51361
  21251830.0914    1808791.88046   1409448.59962
  23966705.778    -2107822.116 5  -1330540.69821
  23979885.3174   -3272765.54445  -2419175.42661
 91  4 25 20 42 30.0010000  0  6G18G 2G11G19G16G 6
  22188556.192     7723430.217 7   6018249.25922
  22288613.856    -7644677.769 7  -5956858.83022
  23296986.4744   -2768670.75946  -2157402.66761
  21254417.9974    1822391.81946   1420045.94962
  23966579.9664   -2108485.30845  -1331057.47361
  23974904.9814   -3298951.57945  -2439579.94261
 91  4 25 20 42 45.0010000  0  6G18G 2G11G19G16G 6
  22197368.9114    7769748.66247   6054341.49662
  22283474.364    -7671695.807 7  -5977911.77022
  23297517.0054   -2765877.55446  -2155226.13461
  21257013.9274    1836041.25446   1430681.86862
  23966475.177    -2109013.691 5  -1331469.22721
  23969918.3564   -3325126.36845  -2459975.70661
 91  4 25 20 43  0.0010000  0  6G18G 2G11G19G16G 6
  22206199.4354    7816152.60247   6090500.34862
  22278346.216    -7698637.741 7  -5998905.40822
  23298077.4894   -2762934.30246  -2152932.69161
  21259621.8104    1849739.16847   1441355.56062
  23966405.489    -2109408.211 5  -1331776.66821
  23964944.3494   -3351290.88245  -2480363.46061
 91  4 25 20 43 15.0010000  0  6G18G 2G11G19G16G 6
  22215047.9424    7862639.94347   6126724.19162
  22273232.247    -7725505.435 7  -6019841.19322
  23298666.3564   -2759842.69146  -2150523.63961
  21262237.5914    1863483.74746   1452065.61362
  23966353.958    -2109670.806 5  -1331981.33021
  23959961.7474   -3377447.04945  -2500744.71961
 91  4 25 20 43 30.0010000  0  6G18G 2G11G19G16G 6
  22223908.833     7909212.461 7   6163014.40822
  22268135.638    -7752296.875 7  -6040717.56222
  23299283.3724   -2756600.79846  -2147997.48961
  21264860.7634    1877277.17647   1462813.73063
  23966331.2314   -2109799.70645
  23954993.435    -3403593.078 5  -2521118.08521
 91  4 25 20 43 45.0010000  0  6G18G 2G11G19G16G 6
  22232786.896     7955873.137 7   6199373.31922
  22263051.841    -7779008.851 7  -6061532.01222
  23299929.5054   -2753205.48346  -2145351.78661
  21267496.7784    1891122.66946   1473602.42362
  23966330.3024   -2109791.69245
  23950018.5604   -3429725.77845  -2541481.03561
 91  4 25 20 44  0.0010000  0  6G18G 2G11G19G16G 6
  22241683.7864    8002615.62547   6235795.98062
  22257983.271    -7805647.507 7  -6082289.33222
  23300603.3644   -2749662.74646  -2142591.20861
  21270139.2784    1905013.99246   1484426.82462
  23966357.153    -2109653.217 5
  23945043.1144   -3455851.34745  -2561838.47361
 91  4 25 20 44 15.0010000  0  6G18G 2G11G19G16G 6
  22250592.8564    8049441.12047   6272283.32262
  22252927.474    -7832211.341 7  -6102988.35122
  23301305.2314   -2745971.03646  -2139714.54461
  21272793.3884    1918952.63546   1495288.09662
  23966408.0674   -2109382.65845
  23940075.606    -3481968.342 5  -2582189.18921
 91  4 25 20 44 30.0010000  0  6G18G 2G11G19G16G 6
  22259519.2474    8096352.03947   6308837.22662
  22247887.028    -7858697.602 7  -6123626.92022
  23302035.989    -2742127.617 6  -2136719.66421
  21275454.1224    1932941.46147   1506188.47462
  23966490.989    -2108977.106 5  -1331440.89721
  23935109.4424   -3508074.08745  -2602531.18361
 91  4 25 20 44 45.0010000  0  6G18G 2G11G19G16G 6
  22268462.606     8143348.693 7   6345457.93622
  22242862.333    -7885105.530 7  -6144204.45322
  23302798.4424   -2738131.69046  -2133605.95861
  21278126.0994    1946981.09746   1517128.44062
  23966590.208    -2108436.242 5  -1331019.48421
  23930142.513    -3534168.021 5  -2622863.97321
 91  4 25 20 45  0.0010000  0  6G18G 2G11G19G16G 6
  22277421.8964    8190431.16347   6382145.51762
  22237853.396    -7911435.054 7  -6164720.89022
  23303586.442    -2733983.342 6  -2130373.47121
  21280807.4034    1961071.55746   1528108.01262
  23966718.646    -2107760.082 5  -1330492.65221
  23925177.2474   -3560250.18445  -2643187.53661
 91  4 25 20 45 15.0010000  0  6G18G 2G11G19G16G 6
  22286397.9424    8237598.28547   6418899.05762
  22232856.6924   -7937686.93547  -6185176.83462
  23304408.7554   -2729683.23346  -2127022.73561
  21283496.8804    1975211.96846   1539126.50562
  23966871.591    -2106949.443 5  -1329860.99621
  23920217.2554   -3586321.34245  -2663502.58961
 91  4 25 20 45 30.0010000  0  6G18G 2G11G19G16G 6
  22295388.739     8284850.562 7   6455718.95622
  22227875.411    -7963860.230 7
  23305251.3884   -2725230.32646  -2123552.94761
  21286198.5524    1989403.42847   1550184.77762
  23967055.1774   -2106003.40845  -1329123.86661
  23915255.552    -3612380.629 5
 91  4 25 20 45 45.0010000  0  6G18G 2G11G19G16G 6
  22304397.7554    8332186.26447   6492603.86262
  22222910.575    -7989956.675 7
  23306131.3494   -2720626.32346  -2119965.41361
  21288909.2634    2003644.37746   1561281.60862
  23967257.4194   -2104924.02745  -1328282.81661
  23910296.841    -3638429.836 5
 91  4 25 20 46  0.0010000  0  6G18G 2G11G19G16G 6
  22313421.9034    8379608.27847   6529556.01762
  22217959.646    -8015973.123 7
  23307034.6924   -2715868.20646  -2116257.79061
  21291631.4744    2017937.75346   1572419.29462
  23967488.505    -2103708.111 5  -1327335.40321
  23905341.606    -3664465.992 5
 91  4 25 20 46 15.0010000  0  6G18G 2G11G19G16G 6
  22322463.2474    8427113.60147   6566573.08662
  22213023.9114   -8041912.33047  -6266391.14362
  23307968.5134   -2710958.71346  -2112432.21861
  21294358.9194    2032280.74346   1583595.64062
  23967744.3024   -2102358.56245  -1326283.84561
  23900390.8174   -3690491.89845  -2744673.76161
 91  4 25 20 46 30.0010000  0  6G18G 2G11G19G16G 6
  22331519.9744    8474702.49647   6603655.28362
  22208103.0994   -8067773.31847  -6286542.49962
  23308932.3494   -2705897.10046  -2108488.10261
  21297096.3724    2046674.20747   1594811.31662
  23968028.3254   -2100874.37645  -1325127.37561
  23895438.724    -3716506.751 5  -2764944.93521
 91  4 25 20 46 45.0010000  0  6G18G 2G11G19G16G 6
  22340591.5754    8522375.19547   6640802.77862
  22203193.4194   -8093555.89147  -6306632.74962
  23309925.3174   -2700683.07346  -2104425.23061
  21299846.7244    2061118.38846   1606066.51362
  23968336.200    -2099255.715 5  -1323866.11421
  23890490.794    -3742510.620 5  -2785207.50821
 91  4 25 20 47  0.0010000  0  6G18G 2G11G19G16G 6
  22349678.2004    8570133.54747   6678017.01362
  22198304.3494   -8119257.94347  -6326660.25562
  23310947.3884   -2695314.31746  -2100241.79061
  21302602.294     2075615.586 7   1617363.01922
  23968668.724    -2097500.101 5  -1322498.13821
  23885547.8644   -3768501.11645  -2805459.68761
 91  4 25 20 47 15.0010000  0  6G18G 2G11G19G16G 6
  22358780.8334    8617970.27247   6715292.32262
  22193427.0214   -8144886.43447  -6346630.44762
  23311995.7714   -2689797.86846  -2095943.25261
  21305372.4744    2090158.68546   1628695.29662
  23969030.8024   -2095614.95245  -1321029.21761
  23880604.450    -3794485.481 5  -2825707.09521
 91  4 25 20 47 30.0010000  0  6G18G 2G11G19G16G 6
  22367901.8564    8665890.91047   6752633.01962
  22188564.1694   -8170435.52547  -6366538.76862
  23313074.5054   -2684127.76146  -2091524.99261
  21308148.4584    2104753.64047   1640067.97862
  23969413.849    -2093594.358 5  -1319454.78021
  23875658.2394   -3820457.70945  -2845945.02961
 91  4 25 20 47 45.0010000  0  6G18G 2G11G19G16G 6
  22377034.7244    8713890.80047   6790035.46862
  22183719.0604   -8195909.90147  -6386388.86662
  23314182.2084   -2678308.69346  -2086990.65161
  21310936.9424    2119395.78646   1651477.43162
  23969822.161    -2091443.000 5  -1317778.44721
  23870718.716    -3846422.599 5  -2866177.25421
 91  4 25 20 48  0.0010000  0  6G18G 2G11G19G16G 6
  22386186.2084    8761973.63247   6827502.54562
  22178885.4744   -8221305.35647  -6406177.47162
  23315319.3804   -2672336.58046  -2082337.06161
  21313730.9194    2134089.42247   1662927.01562
  23970254.5754   -2089156.91245  -1315997.10561
  23865781.1224   -3872376.09445  -2886400.58761
 91  4 25 20 48 15.0010000  0  6G18G 2G11G19G16G 6
  22395349.4354    8810137.43047   6865032.71362
  22174068.0214   -8246623.69247  -6425905.97762
  23316482.0604   -2666213.16446  -2077565.57261
  21316539.0214    2148832.76546   1674415.32262
  23970720.130    -2086738.193 5  -1314112.44321
  23860842.614    -3898320.265 5  -2906616.68121
 91  4 25 20 48 30.0010000  0  6G18G 2G11G19G16G 6
  22404531.7944    8858385.59447   6902628.61462
  22169265.0754   -8271861.19847  -6445571.50262
  23317676.8804   -2659934.75846  -2072673.30161
  21319353.4814    2163629.60047   1685945.31562
  23971203.7474   -2084183.17645  -1312121.57261
  23855911.067    -3924251.010 5  -2926822.29021
 91  4 25 20 48 45.0010000  0  6G18G 2G11G19G16G 6
  22413728.4274    8906713.52547   6940286.68262
  22164475.7864   -8297021.85947  -6465177.15062
  23318902.5834   -2653505.43646  -2067663.44461
  21322177.9664    2178475.76946   1697513.74762
  23971712.013    -2081495.727 5  -1310027.47821
  23850976.2244   -3950172.84645  -2947020.95361
 91  4 25 20 49  0.0010000  0  6G18G 2G11G19G16G 6
  22422941.0994    8955125.62847   6978010.33062
  22159703.8494   -8322101.55147  -6484719.69862
  23320154.4274   -2646921.00646  -2062532.72661
  21325013.3644    2193375.45447   1709123.88862
  23972257.9194   -2078672.02045  -1307827.24961
  23846047.646    -3976081.562 5  -2967209.40221
 91  4 25 20 49 15.0010000  0  6G18G 2G11G19G16G 6
  22432170.5524    9003622.24247   7015799.83162
  22154946.4194   -8347099.60347  -6504198.63662
  23321439.0994   -2640180.72946  -2057280.56161
  21327858.544     2208329.430 6   1720776.32222
  23972816.4814   -2075711.58545  -1305520.44961
  23841115.8724   -4001976.53845  -2987387.15061
 91  4 25 20 49 30.0010000  0  6G18G 2G11G19G16G 6
  22441410.0674    9052196.28847   7053649.67862
  22150203.3804   -8372022.37547  -6523618.91562
  23322748.231    -2633291.170 6  -2051912.09021
  21330713.1464    2223331.08447   1732465.91762
  23973408.3494   -2072620.83245  -1303112.12461
  23836193.0604   -4027864.28045  -3007559.26661
 91  4 25 20 49 45.0010000  0  6G18G 2G11G19G16G 6
  22450671.8174    9100852.38547   7091563.45862
  22145477.2474   -8396865.20347  -6542976.89962
  23324088.1304   -2626247.70446  -2046423.67561
  21333577.8964    2238385.20346   1744196.39162
  23974019.458    -2069395.391 5  -1300598.84721
  23831265.8104   -4053740.24745  -3027722.19461
 91  4 25 20 50  0.0010000  0  6G18G 2G11G19G16G 6
  22459944.7784    9149588.51147   7129539.59962
  22140765.4424   -8421629.83147  -6562273.94962
  23325458.2634   -2619052.04646  -2040816.67161
  21336452.0364    2253490.18347   1755966.49762
  23974660.4274   -2066036.94245  -1297981.92161
  23826342.0054   -4079606.27945  -3047877.38261
 91  4 25 20 50 15.0010000  0  6G18G 2G11G19G16G 6
  22469235.3884    9198405.23347   7167578.54062
  22136066.9584   -8446315.46347  -6581509.43962
  23326859.0754   -2611703.34046  -2035090.41661
  21339337.3334    2268646.72546   1767776.77662
  23975321.114    -2062544.438 5  -1295260.52221
  23821426.989    -4105461.482 5  -3068024.12621
 91  4 25 20 50 30.0010000  0  6G18G 2G11G19G16G 6
  22478540.3334    9247306.31047   7205683.20662
  22131384.5754   -8470918.07247  -6600680.24262
  23328286.2784   -2604197.70346  -2029241.87161
  21342231.0214    2283858.72847   1779630.28062
  23976015.4974   -2058914.09045  -1292431.72661
  23816509.2784   -4131301.98945  -3088159.42661
 91  4 25 20 50 45.0010000  0  6G18G 2G11G19G16G 6
  22487859.841     9296285.907 7   7243849.06622
  22126717.3724   -8495443.23647  -6619790.69762
  23329743.2314   -2596540.54346  -2023275.26061
  21345136.2554    2299120.67646   1791522.69662
  23976731.341    -2055151.906 5  -1289500.19221
  23811594.739    -4157133.357 6  -3108287.59321
 91  4 25 20 51  0.0010000  0  6G18G 2G11G19G16G 6
  22497200.3104    9345346.38547   7282077.94662
  22122067.3644   -8519888.40547  -6638838.81862
  23331227.8964   -2588729.51846  -2017188.75661
  21348047.8174    2314435.24646   1803456.12162
  23977473.0364   -2051255.24145  -1286463.87461
  23806678.356    -4182953.213 6  -3128406.79221
 91  4 25 20 51 15.0010000  0  6G18G 2G11G19G16G 6
  22506546.6224    9394483.69446   7320366.68762
  22117429.7164   -8544257.18547  -6657827.41962
  23332743.3964   -2580768.20746  -2010985.14361
  21350973.7784    2329798.83946   1815427.74662
  23978235.989    -2047227.991 5  -1283325.78221
  23801763.9814   -4208765.14545  -3148519.83461
 91  4 25 20 51 30.0010000  0  6G18G 2G11G19G16G 6
  22515912.9814    9443699.71747   7358716.77162
  22112806.8414   -8568547.44547  -6676754.83262
  23334285.1774   -2572654.41246  -2004662.70761
  21353908.1694    2345213.68446   1827439.30062
  23979033.036    -2043067.963 5  -1280084.24921
  23796855.4194   -4234567.04046  -3168625.05461
 91  4 25 20 51 45.0010000  0  6G18G 2G11G19G16G 6
  22525295.0444    9492994.49047   7397128.21562
  22108199.9194   -8592759.04547  -6695620.95262
  23335860.6774   -2564388.03546  -1998221.38561
  21356852.8254    2360679.98146   1839490.95562
  23979846.8884   -2038775.02345  -1276739.14461
  23791947.388    -4260358.924 5  -3188722.45421
 91  4 25 20 52  0.0010000  0  6G18G 2G11G19G16G 6
  22534689.5214    9542366.88547   7435600.14362
  22103606.2784   -8616892.80947  -6714426.41862
  23337462.7314   -2555970.03946  -1991661.92061
  21359802.3964    2376196.78546   1851581.95962
  23980689.536    -2034350.392 5  -1273291.42021
  23787043.255    -4286141.658 5  -3208812.74221
 91  4 25 20 52 15.0010000  0  6G18G 2G11G19G16G 6
  22544100.9274    9591816.35347   7474132.13262
  22099028.1464   -8640948.89447  -6733171.35462
  23339090.950    -2547400.618 6  -1984984.45721
  21362766.3964    2391763.80046   1863712.09962
  23981557.075    -2029794.146 5  -1269741.12921
  23782134.0994   -4311915.66345  -3228896.20561
 91  4 25 20 52 30.0010000  0  6G18G 2G11G19G16G 6
  22553524.2314    9641342.31947   7512723.72362
  22094466.3884   -8664927.72547  -6751856.09862
  23340751.9194   -2538680.05446  -1978189.21261
  21365736.8254    2407380.92046   1875881.27362
  23982448.4974   -2025106.99845  -1266088.84161
  23777235.5054   -4337681.09845  -3248973.00761
 91  4 25 20 52 45.0010000  0  6G18G 2G11G19G16G 6
  22562965.4894    9690942.29147   7551372.98262
  22089918.4194   -8688831.35347  -6770482.24162
  23342440.544    -2529810.604 6  -1971277.96621
  21368719.2554    2423045.96446   1888087.79762
  23983362.6464   -2020291.41045  -1262336.48561
  23772331.396    -4363440.296 5  -3269044.95521
 91  4 25 20 53  0.0010000  0  6G18G 2G11G19G16G 6
  22572417.513     9740615.676 7   7590079.44722
  22085381.8254   -8712660.00747  -6789049.96262
  23344155.5214   -2520792.43046  -1964250.81761
  21371709.3254    2438758.73346   1900331.50462
  23984304.5364   -2015347.51045  -1258484.16061
  23767428.450    -4389193.468 5  -3289112.19521
 91  4 25 20 53 15.0010000  0  6G18G 2G11G19G16G 6
  22581881.5604    9790362.55946   7628843.18262
  22080861.2164   -8736413.34747  -6807558.99762
  23345901.2944   -2511625.33346  -1957107.63761
  21374709.5054    2454519.42246   1912612.55562
  23985270.1774   -2010275.16045  -1254531.69461
  23762529.872    -4414940.460 5  -3309174.61421
 91  4 25 20 53 30.0010000  0  6G18G 2G11G19G16G 6
  22591360.7944    9840182.17046   7667663.59862
  22076356.0914   -8760092.03247  -6826009.85962
  23347675.3254   -2502309.83846  -1949848.82361
  21377717.3644    2470327.56446   1924930.57862
  23986259.5444   -2005074.95645  -1250479.64761
  23757632.5914   -4440681.84445  -3329232.69161
 91  4 25 20 53 45.0010000  0  6G18G 2G11G19G16G 6
  22600858.8024    9890081.04446   7706545.76761
  22071867.0364   -8783689.44547  -6844397.38962
  23349474.5834   -2492839.30846  -1942469.18861
  21380734.4424    2486189.90446   1937290.83962
  23987277.435    -1999740.234 5  -1246322.76821
  23752735.513    -4466411.014 5  -3349281.25121
 91  4 25 20 54  0.0010000  0  6G18G 2G11G19G16G 6
  22610365.0524    9940056.61746   7745487.70762
  22067389.8564   -8807207.71147  -6862723.25362
  23351307.2004   -2483216.09546  -1934970.58561
  21383763.6854    2502104.32946   1949691.68062
  23988314.3884   -1994273.33145  -1242062.86561
  23747845.567    -4492130.251 5  -3369322.04221
 91  4 25 20 54 15.0010000  0  6G18G 2G11G19G16G 6
  22619892.4814    9990109.05246   7784489.53762
  22062931.9894   -8830646.19647  -6880986.94862
  23353165.7554   -2473439.54046  -1927352.49961
  21386801.2864    2518071.38446   1962133.53362
  23989382.2634   -1988673.86945  -1237699.69661
  23742944.810    -4517838.887 5  -3389354.60521
 91  4 25 20 54 30.0010000  0  6G18G 2G11G19G16G 6
  22629429.505    10040235.843 6   7823549.29822
  22058485.3024   -8854007.43347  -6899190.45162
  23355056.9114   -2463512.15446  -1919616.88061
  21389849.7394    2534088.66746   1974614.53262
  23990471.591    -1982944.493 5  -1233235.30221
  23738058.9504   -4543539.41845  -3409380.82261
 91  4 25 20 54 45.0010000  0  6G18G 2G11G19G16G 6
  22638982.5054   10090438.42546   7862668.12561
  22054055.5284   -8877289.47747  -6917332.24562
  23356975.6064   -2453432.21246  -1911762.38261
  21392908.1064    2550157.92246   1987136.01962
  23991585.208    -1977083.448 5  -1228668.30121
  23733169.2164   -4569230.22145  -3429399.47861
 91  4 25 20 55  0.0010000  0  6G18G 2G11G19G16G 6
  22648550.8884   10140712.87746   7901842.95862
  22049636.9664   -8900496.12947  -6935415.29462
  23358921.8564   -2443203.41146  -1903791.89561
  21395973.0214    2566275.45546   1999695.12662
  23992726.411    -1971094.601 5  -1224001.71121
  23728282.692    -4594915.003 5  -3449413.45021
 91  4 25 20 55 15.0010000  0  6G18G 2G11G19G16G 6
  22658133.466    10191061.440 6   7941075.52422
  22045235.2004   -8923624.96547  -6953437.70163
  23360896.7634   -2432823.38846  -1895703.57561
  21399051.2394    2582443.77546   2012293.80762
  23993889.5524   -1964975.51845  -1219233.65861
  23723397.075    -4620591.280 5  -3469420.79621
 91  4 25 20 55 30.0010000  0  6G18G 2G11G19G16G 6
  22667725.9424   10241485.48846   7980366.91762
  22040850.8804   -8946674.11347  -6971398.01662
  23362901.4114   -2422290.28146  -1887495.96261
  21402136.6384    2598664.66546   2024933.45762
  23995083.052    -1958724.711 5  -1214362.94621
  23718509.161    -4646257.463 5  -3489420.26721
 91  4 25 20 55 45.0010000  0  6G18G 2G11G19G16G 6
  22677339.052    10291986.215 6   8019718.05522
  22036478.9584   -8969642.38847  -6989295.31462
  23364932.7634   -2411602.82446  -1879168.07861
  21405234.7864    2614939.61246   2037615.22662
  23996293.1774   -1952341.08245  -1209388.75461
  23713632.442    -4671912.240 5  -3509410.86721
 91  4 25 20 56  0.0010000  0  6G18G 2G11G19G16G 6
  22686963.841    10342562.271 6   8059127.89122
  22032124.216    -8992530.868 7  -7007130.43423
  23366996.9034   -2400762.28646  -1870720.91161
  21408341.0284    2631267.38646   2050338.16062
  23997533.6614   -1945825.68645  -1204311.85061
  23708751.7244   -4697556.90545  -3529393.57561
 91  4 25 20 56 15.0010000  0  6G18G 2G11G19G16G 6
  22696601.8494   10393214.60446   8098597.17461
  22027784.7394   -9015338.19147  -7024902.31562
  23369091.5364   -2389767.29046  -1862153.39561
  21411459.3884    2647649.40346   2063103.36362
  23998797.2714   -1939177.12745  -1199131.22061
  23703875.091    -4723189.976 5  -3549367.27421
 91  4 25 20 56 30.0010000  0  6G18G 2G11G19G16G 6
  22706252.661    10443942.611 6   8138125.41521
  22023458.8644   -9038064.69647  -7042611.22462
  23371210.0054   -2378618.20346  -1853465.79261
  21414586.9354    2664085.55447   2075910.74762
  24000092.4424   -1932396.27245  -1193847.48261
  23698993.5994   -4748811.79845  -3569332.19561
 91  4 25 20 56 45.0010000  0  6G18G 2G11G19G16G 6
  22715923.8104   10494747.13546   8177713.28661
  22019150.6854   -9060709.34247  -7060256.34662
  23373363.599    -2367314.013 6  -1844657.34621
  21417726.7084    2680576.75447   2088761.02862
  24001403.747    -1925481.881 5  -1188459.69521
  23694121.1614   -4774421.38645  -3589287.59061
 91  4 25 20 57  0.0010000  0  6G18G 2G11G19G16G 6
  22725605.1694   10545625.98946   8217359.07461
  22014855.481    -9083273.948 7  -7077839.10022
  23375541.7554   -2355856.67446  -1835729.55561
  21420873.2244    2697121.03747   2101652.66662
  24002745.2554   -1918436.20345  -1182969.60861
  23689248.3564   -4800020.73745  -3609235.01061
 91  4 25 20 57 15.0010000  0  6G18G 2G11G19G16G 6
  22735302.903    10596577.829 6   8257061.73821
  22010578.7634   -9105759.51447  -7095360.25962
  23377750.3884   -2344247.29346  -1826683.28461
  21424034.5524    2713717.41946   2114584.90862
  24004114.2314   -1911260.28745  -1177378.05861
  23684382.841    -4825611.003 5  -3629175.32721
 91  4 25 20 57 30.0010000  0  6G18G 2G11G19G16G 6
  22745009.9814   10647607.05846   8296824.70661
  22006313.067    -9128161.403 7  -7112816.22222
  23379990.5994   -2332481.18746  -1817514.89161
  21427200.5834    2730370.69347   2127561.47662
  24005505.3024   -1903949.58945  -1171681.46061
  23679513.653    -4851187.446 5  -3649104.88421
 91  4 25 20 57 45.0010000  0  6G18G 2G11G19G16G 6
  22754734.9424   10698713.13346   8336647.55861
  22002067.935    -9150479.850 7  -7130207.16222
  23382258.4894   -2320558.62846  -1808224.58861
  21430380.7474    2747080.70246   2140582.25662
  24006923.036    -1896504.611 5  -1165880.24721
  23674649.4584   -4876750.30845  -3669023.88361
 91  4 25 20 58  0.0010000  0  6G18G 2G11G19G16G 6
  22764475.3494   10749893.38446   8376528.21261
  21997834.8174   -9172717.46547  -7147535.11262
  23384558.4194   -2308482.32646  -1798814.48161
  21433568.5524    2763844.94947   2153645.30162
  24008360.3414   -1888927.84745  -1159976.33661
  23669787.310    -4902302.215 5  -3688934.33121
 91  4 25 20 58 15.0010000  0  6G18G 2G11G19G16G 6
  22774230.1064   10801148.45946   8416467.16461
  21993619.466    -9194872.947 7  -7164799.07322
  23386886.9504   -2296251.12946  -1789283.68261
  21436771.1224    2780664.64946   2166751.55262
  24009830.3024   -1881218.44145  -1153969.08161
  23664927.685    -4927841.994 5  -3708835.31921
 91  4 25 20 58 30.0010000  0  6G18G 2G11G19G16G 6
  22783999.1854   10852481.62746   8456466.97761
  21989419.028    -9216943.046 7  -7181996.50023
  23389241.6854   -2283861.90646  -1779629.74761
  21439985.0134    2797542.97446   2179903.49162
  24011323.2554   -1873373.34045  -1147856.07861
  23660065.677    -4953366.610 5  -3728724.51721
 91  4 25 20 58 45.0010000  0  6G18G 2G11G19G16G 6
  22793780.6064   10903889.33146   8496524.85861
  21985235.0674   -9238931.00647  -7199129.91762
  23391630.7634   -2271317.84546  -1769855.15961
  21443209.5524    2814476.77446   2193098.65262
  24012839.810    -1865395.840 5  -1141639.91321
  23655213.7004   -4978879.08645  -3748604.23661
 91  4 25 20 59  0.0010000  0  6G18G 2G11G19G16G 6
  22803578.4034   10955368.33246   8536638.29961
  21981065.7554   -9260839.62547  -7216201.51162
  23394044.8724   -2258621.72746  -1759962.07861
  21446437.3254    2831463.41147   2206334.98362
  24014381.372    -1857288.393 5  -1135322.49421
  23650362.3334   -5004382.33145  -3768476.75661
 91  4 25 20 59 15.0010000  0  6G18G 2G11G19G16G 6
  22813384.958    11006919.837 6   8576808.22821
  21976912.481    -9282667.676 7  -7233210.33322
  23396492.0444   -2245772.27746  -1749949.53561
  21449681.7394    2848504.17246   2219613.49462
  24015951.1694   -1849050.37845  -1128903.31961
  23645511.7004   -5029875.08346  -3788341.11361
 91  4 25 20 59 30.0010000  0  6G18G 2G11G19G16G 6
  22823210.505    11058545.675 6   8617036.07921
  21972774.7784   -9304413.12847  -7250154.78763
  23398965.5914   -2232767.68646  -1739816.09361
  21452933.5214    2865601.31947   2232935.93862
  24017544.591    -1840679.585 5  -1122380.68521
  23640660.7474   -5055355.25645  -3808195.66961
 91  4 25 20 59 45.0010000  0  6G18G 2G11G19G16G 6
  22833046.1224   11110245.55846   8657321.63561
  21968652.4664   -9326076.00147  -7267034.88663
  23401471.5054   -2219608.01546  -1729561.80961
  21456197.5134    2882754.70146   2246302.20262
  24019164.794    -1832176.334 5  -1115754.85621
  23635814.2944   -5080822.98846  -3828040.52861
 91  4 25 21  0  0.0010000  0  6G18G 2G11G19G16G 6
  22842903.4814   11162020.05646   8697665.33061
  21964545.153    -9347655.479 7  -7283850.01323
  23404005.0834   -2206292.53846  -1719186.13061
  21459471.4664    2899964.99947   2259712.81762
  24020804.5834   -1823540.36145  -1109025.58661
  23630970.7084   -5106277.56846  -3847875.14161
 91  4 25 21  0 15.0010000  0  6G18G 2G11G19G16G 6
  22852766.8494   11213871.38046   8738068.89361
  21960457.208    -9369148.929 7  -7300598.09823
  23406567.4744   -2192818.56946  -1708686.93661
  21462760.7864    2917235.04046   2273169.98362
  24022475.466    -1814768.837 5  -1102190.69121
  23626128.317    -5131716.339 6  -3867697.42221
 91  4 25 21  0 30.0010000  0  6G18G 2G11G19G16G 6
  22862648.9424   11265793.99746   8778527.99961
  21956380.349    -9390561.541 7  -7317283.19723
  23409161.153    -2179191.446 6  -1698068.41021
  21466055.958     2934559.619 7   2286669.64322
  24024169.2164   -1805867.14845  -1095254.37861
  23621294.0134   -5157144.51846  -3887511.46561
 91  4 25 21  0 45.0010000  0  6G18G 2G11G19G16G 6
  22872545.692    11317792.669 6   8819046.37121
  21952323.442    -9411888.447 7  -7333901.51323
  23411786.9114   -2165406.29446  -1687326.74461
  21469363.0444    2951943.63246   2300215.61962
  24025886.1694   -1796830.67645  -1088213.04561
  23616453.380    -5182557.208 6  -3907313.43121
 91  4 25 21  1  0.0010000  0  6G18G 2G11G19G16G 6
  22882451.755    11369864.339 6   8859621.61321
  21948280.1144   -9433132.30847  -7350455.11663
  23414439.3104   -2151465.89446  -1676464.09661
  21472683.4814    2969384.45247   2313805.85962
  24027635.435    -1787662.000 5  -1081068.71321
  23611622.3564   -5207957.20646  -3927105.51061
 91  4 25 21  1 15.0010000  0  6G18G 2G11G19G16G 6
  22892373.950    11422005.093 6   8900250.69721
  21944250.677    -9454296.833 7  -7366946.90123
  23417117.974    -2137373.991 6  -1665483.40621
  21476012.8174    2986878.50946   2327437.58362
  24029402.481    -1778364.941 5  -1073824.30521
  23606792.9894   -5233348.12546  -3946890.50261
 91  4 25 21  1 30.0010000  0  6G18G 2G11G19G16G 6
  22902307.5914   11474212.44046   8940931.67761
  21940240.872    -9475384.211 7  -7383378.57123
  23419827.3884   -2123132.91146  -1654386.47661
  21479351.2004    3004423.45247   2341108.95862
  24031198.856    -1768942.086 5  -1066481.91321
  23601960.442    -5258732.280 6  -3966670.23121
 91  4 25 21  1 45.0010000  0  6G18G 2G11G19G16G 6
  22912259.0994   11526492.77346   8981669.52661
  21936242.966    -9496387.773 7  -7399744.92823
  23422567.6224   -2108736.05646  -1643168.15361
  21482702.388     3022026.117 6   2354825.30622
  24033013.724    -1759386.952 5  -1059036.42621
  23597131.513    -5284103.042 6  -3986439.50421
 91  4 25 21  2  0.0010000  0  6G18G 2G11G19G16G 6
  22922220.3804   11578842.30746   9022461.30461
  21932260.630    -9517311.023 7  -7416048.70523
  23425335.536    -2094187.082 6  -1631831.31321
  21486060.5214    3039683.21947   2368584.08062
  24034856.794    -1749702.857 5  -1051490.46221
  23592302.294    -5309463.893 6  -4006201.08021
 91  4 25 21  2 15.0010000  0  6G18G 2G11G19G16G 6
  22932198.2784   11631265.02146   9063310.10961
  21928294.372    -9538149.897 7  -7432286.74023
  23428134.5444   -2079482.01646  -1620372.82661
  21489433.1304    3057398.74246   2382388.37362
  24036725.716    -1739886.074 5  -1043841.09221
  23587480.356    -5334810.893 6  -4025951.84821
 91  4 25 21  2 30.0010000  0  6G18G 2G11G19G16G 6
  22942184.817    11683761.272 6   9104216.20021
  21924346.536    -9558903.435 7  -7448458.27023
  23430962.9664   -2064619.98946  -1608792.03761
  21492815.317     3075173.604 7   2396238.90522
  24038618.6224   -1729936.41345  -1036088.17661
  23582660.536    -5360143.131 6  -4045691.12021
 91  4 25 21  2 45.0010000  0  6G18G 2G11G19G16G 6
  22952188.0214   11736327.76546   9145177.03961
  21920412.731    -9579575.021 7  -7464565.94923
  23433821.239    -2049604.208 6  -1597091.44421
  21496207.888     3093004.664 6   2410133.22622
  24040536.333    -1719856.694 5  -1028233.93721
  23577840.396    -5385463.902 6  -4065421.45221
 91  4 25 21  3  0.0010000  0  6G18G 2G11G19G16G 6
  22962206.6924   11788967.16046   9186194.68461
  21916494.888    -9600161.699 7  -7480607.46223
  23436707.1384   -2034431.88846  -1585268.86661
  21499611.099     3110894.803 7   2424073.58122
  24042478.8414   -1709644.12945  -1020276.16061
  23573026.013    -5410770.221 6  -4085140.51821
 91  4 25 21  3 15.0010000  0  6G18G 2G11G19G16G 6
  22972236.8414   11841679.68946   9227269.31461
  21912594.099    -9620662.689 7  -7496582.21123
  23439625.481    -2019102.384 6  -1573323.81021
  21503028.091     3128844.859 7   2438060.62322
  24044450.3964   -1699298.30245  -1012214.55261
  23568215.4424   -5436061.37746  -4104847.76061
 91  4 25 21  3 30.0010000  0  6G18G 2G11G19G16G 6
  22982280.349    11894462.300 6   9268398.55121
  21908708.653    -9641080.739 7  -7512492.33323
  23442571.271    -2003618.553 6  -1561258.50321
  21506456.810     3146851.934 7   2452092.09922
  24046443.5604   -1688821.98045  -1004051.26061
  23563402.911    -5461340.347 6  -4124545.51121
 91  4 25 21  3 45.0010000  0  6G18G 2G11G19G16G 6
  22992338.0994   11947316.71646   9309583.74661
  21904838.497    -9661413.879 7  -7528336.28623
  23445548.591    -1987978.526 6  -1549071.49021
  21509893.7714    3164918.04347   2466169.57662
  24048460.3884   -1678213.30745   -995784.86261
  23558597.0364   -5486605.01246  -4144232.12261
 91  4 25 21  4  0.0010000  0  6G18G 2G11G19G16G 6
  23002411.958    12000243.053 6   9350824.97721
  21900985.974    -9681662.371 7  -7544114.28223
  23448552.677    -1972182.459 6  -1536762.87721
  21513345.177     3183043.232 6   2480293.08522
  24050502.325    -1667472.703 5   -987415.61521
  23553791.528    -5511855.575 6  -4163907.74521
 91  4 25 21  4 15.0010000  0  6G18G 2G11G19G16G 6
  23012494.5214   12053241.76246   9392122.60661
  21897150.052    -9701824.966 7  -7559825.34823
  23451590.052    -1956229.132 6  -1524331.73021
  21516802.4274    3201228.84447   2494463.68462
  24052575.786    -1656598.944 5   -978942.63921
  23548989.7394   -5537090.65646  -4183571.29061
 91  4 25 21  4 30.0010000  0  6G18G 2G11G19G16G 6
  23022595.0054   12106312.77446   9433476.57461
  21893327.302    -9721901.620 7  -7575469.44223
  23454654.669    -1940118.613 6  -1511778.09221
  21520274.255     3219474.982 7   2508681.44122
  24054670.9194   -1645592.44745   -970366.24261
  23544190.2164   -5562310.33946  -4203222.84161
 91  4 25 21  4 45.0010000  0  6G18G 2G11G19G16G 6
  23032708.3724   12159453.27246   9474884.69561
  21889522.810    -9741894.753 7  -7591048.46523
  23457750.950    -1923853.536 6  -1499104.02421
  21523759.075     3237779.305 6   2522944.53122
  24056788.4814   -1634455.66345   -961688.31561
  23539389.4194   -5587517.10946  -4222864.33361
 91  4 25 21  5  0.0010000  0  6G18G 2G11G19G16G 6
  23042836.419    12212663.612 6   9516347.22621
  21885735.231    -9761803.827 7  -7606561.98223
  23460875.317    -1907433.464 6  -1486309.17321
  21527250.0444    3256142.24746   2537253.30562
  24058931.599    -1623188.559 5   -952908.83221
  23534600.1614   -5612710.55946  -4242495.44961
 91  4 25 21  5 15.0010000  0  6G18G 2G11G19G16G 6
  23052971.849    12265944.386 6   9557864.63621
  21881962.458    -9781627.625 7  -7622009.04823
  23464029.9584   -1890857.36746  -1473392.74861
  21530758.474     3274564.867 7   2551608.57722
  24061104.2714   -1611790.04045   -944026.95561
  23529806.6464   -5637889.51046  -4262115.27061
 91  4 25 21  5 30.0010000  0  6G18G 2G11G19G16G 6
  23063123.5914   12319293.18346   9599435.06861
  21878206.544    -9801368.857 7  -7637391.78123
  23467210.630    -1874127.980 6  -1460356.87421
  21534275.356     3293044.677 7   2566008.41922
  24063295.8644   -1600262.63845   -935044.64361
  23525018.2474   -5663056.61246  -4281725.84261
 91  4 25 21  5 45.0010000  0  6G18G 2G11G19G16G 6
  23073289.9664   12372710.51246   9641058.89861
  21874466.153    -9821026.456 7  -7652709.34523
  23470425.794    -1857244.302 6  -1447200.78021
  21537803.950     3311582.787 6   2580453.68322
  24065516.5604   -1588605.63745   -925961.36461
  23520231.4114   -5688210.73546  -4301326.31961
 91  4 25 21  6  0.0010000  0  6G18G 2G11G19G16G 6
  23083466.3564   12426194.34846   9682734.55661
  21870738.708    -9840602.243 7  -7667963.15823
  23473667.247    -1840208.185 6  -1433925.89521
  21541343.958     3330177.403 7   2594942.98322
  24067756.4744   -1576821.02045   -916778.63561
  23515446.942    -5713353.770 6  -4320918.15321
 91  4 25 21  6 15.0010000  0  6G18G 2G11G19G16G 6
  23093655.450    12479745.542 6   9724462.70421
  21867030.864    -9860094.998 7  -7683152.27323
  23476937.817    -1823018.594 6  -1420531.42521
  21544890.3174    3348829.85746   2609477.34962
  24070021.606    -1564907.544 5   -907495.48521
  23510662.231    -5738484.494 6  -4340500.40421
 91  4 25 21  6 30.0010000  0  6G18G 2G11G19G16G 6
  23103861.2474   12533365.08846   9766244.10061
  21863337.083    -9879503.564 7  -7698275.78223
  23480238.716    -1805674.407 6  -1407016.49321
  21548450.7944    3367541.38647   2624057.75762
  24072317.091    -1552864.402 5   -898111.31621
  23505880.4744   -5763601.66746  -4360072.08061
 91  4 25 21  6 45.0010000  0  6G18G 2G11G19G16G 6
  23114077.560    12587055.342 6   9808080.61021
  21859659.8334   -9898825.38247  -7713331.70363
  23483570.6144   -1788173.19546  -1393379.19861
  21552022.0914    3386314.59346   2638686.21462
  24074631.8414   -1540689.18845   -888624.22661
  23501108.7314   -5788702.75346  -4379631.21261
 91  4 25 21  7  0.0010000  0  6G18G 2G11G19G16G 6
  23124308.0754   12640815.47646   9849971.56061
  21855999.716    -9918060.948 7  -7728320.41423
  23486930.724    -1770515.426 6  -1379619.92221
  21555606.536     3405149.059 7   2653362.41122
  24076973.427    -1528382.613 5   -879034.77121
  23496331.4814   -5813788.33346  -4399178.29361
 91  4 25 21  7 15.0010000  0  6G18G 2G11G19G16G 6
  23134553.1304   12694646.52946   9891917.77661
  21852357.122    -9937208.991 7  -7743240.91923
  23490319.138    -1752699.976 6  -1365737.77121
  21559204.7004    3424046.23647   2668087.47562
  24079343.9194   -1515943.31545   -869341.89861
  23491562.099    -5838856.999 6  -4418712.18121
 91  4 25 21  7 30.0010000  0  6G18G 2G11G19G16G 6
  23144808.7004   12748549.67646   9933920.16461
  21848728.997    -9956268.263 7  -7758092.25523
  23493742.544    -1734725.613 6  -1351731.79121
  21562810.3724    3443007.55547   2682862.52062
  24081734.3884   -1503370.42345   -859544.92561
  23486794.341    -5863907.596 6  -4438231.98721
 91  4 25 21  7 45.0010000  0  6G18G 2G11G19G16G 6
  23155078.4194   12802518.46146   9975973.70761
  21845117.5364   -9975244.86947  -7772879.18163
  23497189.911    -1716598.512 6  -1337606.79221
  21566431.7944    3462026.81146   2697682.71062
  24084149.489    -1490670.244 5   -849648.78321
  23482031.130    -5888946.145 6  -4457742.39921
 91  4 25 21  8  0.0010000  0  6G18G 2G11G19G16G 6
  23165360.356    12856556.848 6  10018081.47121
  21841523.927    -9994134.338 7  -7787598.20523
  23500667.567    -1698314.526 6  -1323359.55221
  21570062.3104    3481108.18647   2712551.30862
  24086592.208    -1477838.607 5   -839650.18121
  23477270.6144   -5913968.37146  -4477240.10261
 91  4 25 21  8 15.0010000  0  6G18G 2G11G19G16G 6
  23175657.7554   12910663.24546  10060242.24861
  21837945.7394  -10012938.01747  -7802250.38163
  23504177.192    -1679875.118 6  -1308991.19821
  21573704.2394    3500250.56746   2727467.44362
  24089059.4114   -1464876.74945   -829550.13361
  23472507.880    -5938975.730 6  -4496726.22821
 91  4 25 21  8 30.0010000  0  6G18G 2G11G19G16G 6
  23185967.8724   12964837.46946  10102455.86361
  21834384.880   -10031655.973 7  -7816835.75723
  23507719.021    -1661280.151 6  -1294501.63521
  21577355.8724    3519454.27546   2742431.36362
  24091549.614    -1451785.028 5   -819348.87321
  23467752.7004   -5963967.90846  -4516200.49761
 91  4 25 21  8 45.0010000  0  6G18G 2G11G19G16G 6
  23196286.1924   13019075.43046  10144719.14761
  21830836.989   -10050291.903 7  -7831357.21823
  23511280.896    -1642533.598 6  -1279893.94821
  21581026.2394    3538715.53047   2757440.12762
  24094066.669    -1438567.197 5   -809049.34021
  23463000.3104   -5988948.64846  -4535665.88461
 91  4 25 21  9  0.0010000  0  6G18G 2G11G19G16G 6
  23206620.1384   13073374.08946  10187029.72361
  21827306.0994  -10068848.71047  -7845817.02763
  23514879.130    -1623638.450 6  -1265170.47121
  21584701.6144    3558031.57247   2772491.58262
  24096604.6064   -1425226.23545   -798653.87361
  23458250.7554   -6013920.93546  -4555124.68061
 91  4 25 21  9 15.0010000  0  6G18G 2G11G19G16G 6
  23216965.1144   13127737.32446  10229390.62961
  21823789.614   -10087322.131 7  -7860211.85923
  23518505.560    -1604590.593 6  -1250328.01221
  21588387.2004    3577406.55347   2787588.96562
  24099168.3174   -1411758.46045   -788159.60561
  23453499.614    -6038880.631 6  -4574573.66821
 91  4 25 21  9 30.0010000  0  6G18G 2G11G19G16G 6
  23227322.2714   13182161.51346  10271799.02461
  21820290.630   -10105715.635 7  -7874544.41823
  23522156.974    -1585393.603 6  -1235369.34021
  21592084.0214    3596837.04447   2802729.60262
  24101751.560    -1398167.167 5   -777569.06421
  23448751.9664   -6063831.05446  -4594015.43461
 91  4 25 21  9 45.0010000  0  6G18G 2G11G19G16G 6
  23237689.8174   13236645.24646  10314253.82161
  21816805.0214  -10124030.31747  -7888815.56063
  23525838.622    -1566048.555 6
  21595793.4114    3616322.07347
  24104366.442    -1384453.723 5   -766883.34821
  23444003.7164   -6088773.22646  -4613450.76661
 91  4 25 21 10  0.0010000  0  6G18G 2G11G19G16G 6
  23248069.7394   13291185.38946  10356752.56861
  21813334.903   -10142269.003 7  -7903027.47823
  23529549.6694   -1546558.53846
  21599508.6224    3635858.72347
  24106994.981    -1370621.364 5   -756104.96821
  23439259.786    -6113710.224 6  -4632882.06721
 91  4 25 21 10 15.0010000  0  6G18G 2G11G19G16G 6
  23258459.9034   13345783.93546  10399296.82761
  21809879.7634  -10160429.65047  -7917178.59463
  23533282.3254   -1526921.61146
  21603237.8494    3655449.04946
  24109647.458    -1356668.084 5   -745232.37321
  23434517.1694   -6138640.02546  -4652307.76861
 91  4 25 21 10 30.0010000  0  6G18G 2G11G19G16G 6
  23268860.997    13400441.480 6  10441887.04821
  21806436.864   -10178511.174 7  -7931268.04923
  23537049.013    -1507136.799 6  -1174390.07721
  21606973.7004    3675094.36047   2863709.30462
  24112332.997    -1342593.123 5   -734264.97821
  23429775.2394   -6163561.39446  -4671726.89561
 91  4 25 21 10 45.0010000  0  6G18G 2G11G19G16G 6
  23279270.0834   13455154.68946  10484520.65661
  21803012.0054  -10196516.52047  -7945298.14963
  23540842.185    -1487207.183 6  -1158860.52021
  21610726.2944    3694791.76147   2879057.92762
  24115029.786    -1328399.553 5   -723205.13521
  23425031.2084   -6188477.30446  -4691141.76061
 91  4 25 21 11  0.0010000  0  6G18G 2G11G19G16G 6
  23289695.4664   13509926.04246  10527199.57161
  21799600.7944  -10214443.13547  -7959266.90363
  23544663.646    -1467130.305 6  -1143216.22221
  21614486.1534    3714544.00846   2894449.27962
  24117755.403    -1314084.587 5   -712050.72621
  23420296.1464   -6213385.16846  -4710550.36461
 91  4 25 21 11 15.0010000  0  6G18G 2G11G19G16G 6
  23300129.8964   13564758.30446  10569925.94761
  21796205.216   -10232288.346 7  -7973172.21823
  23548509.497    -1446903.586 6  -1127455.15721
  21618255.2244    3734353.92646   2909885.57562
  24120500.1224   -1299646.17945   -700800.09461
  23415551.646    -6238282.180 6  -4729950.52321
 91  4 25 21 11 30.0010000  0  6G18G 2G11G19G16G 6
  23310574.6694   13619651.46746  10612699.76761
  21792824.8724  -10250051.67647  -7987013.73463
  23552391.497    -1426526.506 6  -1111576.92921
  21622032.685     3754222.002 7   2925367.18122
  24123274.7004   -1285083.87345   -689452.93761
  23410821.7084   -6263167.80346  -4749341.80861
 91  4 25 21 11 45.0010000  0  6G18G 2G11G19G16G 6
  23321032.231    13674602.620 6  10655518.77421
  21789460.3724  -10267735.44847  -8000793.25963
  23556296.575    -1406001.637 6  -1095583.54821
  21625827.7634    3774145.52746   2940892.00462
  24126066.950    -1270400.494 5   -678011.42621
  23406083.0214   -6288044.56046  -4768726.18061
 91  4 25 21 12  0.0010000  0  6G18G 2G11G19G16G 6
  23331501.638    13729611.758 6  10698382.97921
  21786109.2314  -10285339.63547  -8014510.76863
  23560227.7784   -1385328.97546  -1079474.99861
  21629625.4814    3794125.09047   2956460.48962
  24128887.7784   -1255595.66945   -666475.29561
  23401350.9584   -6312912.26046  -4788103.49061
 91  4 25 21 12 15.0010000  0  6G18G 2G11G19G16G 6
  23341978.567    13784681.267 6  10741294.20821
  21782773.8414  -10302861.49247  -8028164.12563
  23564193.153    -1364505.914 6  -1063249.25721
  21633440.2164    3814163.37446   2972074.72362
  24131727.403    -1240666.875 5   -654842.58721
  23396619.692    -6337768.180 6  -4807471.62921
 91  4 25 21 12 30.0010000  0  6G18G 2G11G19G16G 6
  23352469.4584   13839813.89046  10784254.63061
  21779458.1464  -10320298.13147  -8041751.07663
  23568183.989    -1343529.838 6  -1046904.28921
  21637263.4974    3834263.31247   2987737.00562
  24134590.6224   -1225611.71145   -643111.37261
  23391898.7314   -6362609.45346  -4826828.35161
 91  4 25 21 12 45.0010000  0  6G18G 2G11G19G16G 6
  23362973.7474   13895004.03446  10827259.87061
  21776154.4974  -10337654.67847  -8055275.61963
  23572201.005    -1322406.079 6  -1030444.23321
  21641101.8804    3854419.68946   3003443.26662
  24137477.5134   -1210435.60245   -631285.93861
  23387169.294    -6387441.359 6  -4846177.78121
 91  4 25 21 13  0.0010000  0  6G18G 2G11G19G16G 6
  23373487.599    13950254.595 6  10870312.17121
  21772865.630   -10354928.342 7  -8068735.57923
  23576250.630    -1301131.675 6  -1013866.79321
  21644948.2474    3874635.43747   3019195.78962
  24140389.911    -1195135.840 5   -619364.12321
  23382445.935    -6412260.910 6  -4865517.58021
 91  4 25 21 13 15.0010000  0  6G18G 2G11G19G16G 6
  23384010.6534   14005562.10246  10913408.86161
  21769594.8644  -10372122.14347  -8082133.30863
  23580328.349    -1279709.812 6   -997174.45921
  21648805.388     3894907.625 6   3034992.28522
  24143325.3724   -1179715.79545   -607348.60861
  23377727.778    -6437071.109 6  -4884850.09121
 91  4 25 21 13 30.0010000  0  6G18G 2G11G19G16G 6
  23394544.1464   14060926.94246  10956550.22861
  21766337.6304  -10389235.53547  -8095468.37863
  23584429.419    -1258139.906 6   -980366.75921
  21652674.3644    3915237.23647   3050833.53562
  24146284.1614   -1164174.61045   -595238.71161
  23373006.935    -6461871.165 6  -4904174.70021
 91  4 25 21 13 45.0010000  0  6G18G 2G11G19G16G 6
  23405094.013    14116350.291 6  10999737.17421
  21763096.466   -10406267.122 7  -8108739.70223
  23588563.927    -1236420.958 6   -963442.92521
  21656554.4744    3935625.40946   3066720.40962
  24149264.8024   -1148511.59645   -583033.83961
  23368287.255    -6486659.922 6  -4923490.50121
 91  4 25 21 14  0.0010000  0  6G18G 2G11G19G16G 6
  23415653.544    14171834.969 6  11042971.91221
  21759871.9194  -10423213.62347  -8121944.73163
  23592726.013    -1214549.804 6   -946400.48621
  21660445.4664    3956075.56947   3082655.59062
  24152268.888    -1132723.356 5   -570731.43021
  23363575.2714   -6511434.00046  -4942794.87761
 91  4 25 21 14 15.0010000  0  6G18G 2G11G19G16G 6
  23426220.1924   14227372.04046  11086247.48661
  21756661.5134  -10440083.81947  -8135090.29863
  23596913.747    -1192535.288 6   -929246.33321
  21664347.435     3976579.067 6   3098632.33022
  24155295.7474   -1116818.85945   -558338.41661
  23358860.6384   -6536202.16846  -4962094.65061
 91  4 25 21 14 30.0010000  0  6G18G 2G11G19G16G 6
  23436803.0604   14282967.96546  11129568.91661
  21753467.6614  -10456871.34647  -8148171.44963
  23601131.5364   -1170371.21346   -911975.65961
  21668261.1304    3997142.27947   3114655.60162
  24158348.177    -1100791.746 5   -545849.85221
  23354148.8104   -6560957.98146  -4981384.80361
 91  4 25 21 14 45.0010000  0  6G18G 2G11G19G16G 6
  23447391.747    14338621.196 6  11172934.99921
  21750289.4424  -10473576.98047  -8161188.79063
  23605378.3024   -1148058.41746   -894589.07861
  21672185.341     4017764.393 6   3130724.76722
  24161417.630    -1084643.021 5   -533266.52921
  23349440.099    -6585702.224 6  -5000665.91921
 91  4 25 21 15  0.0010000  0  6G18G 2G11G19G16G 6
  23457990.8024   14394328.71446  11216343.37561
  21747125.4274  -10490203.44547  -8174144.43863
  23609652.9894   -1125599.70446   -877088.81261
  21676118.9894    4038443.08447   3146838.02762
  24164511.7314   -1068375.96045   -520591.00361
  23344733.6924   -6610437.53046  -5019940.08461
 91  4 25 21 15 15.0010000  0  6G18G 2G11G19G16G 6
  23468603.2314   14450094.13146  11259796.87161
  21743975.8644  -10506746.99947  -8187035.48063
  23613955.911    -1102991.749 6   -859472.24721
  21680065.622     4059181.949 6   3162998.16722
  24167632.458    -1051986.940 5   -507820.43921
  23340028.3254   -6635160.34846  -5039204.51061
 91  4 25 21 15 30.0010000  0  6G18G 2G11G19G16G 6
  23479225.7084   14505915.59846  11303294.05061
  21740843.2784  -10523209.21747  -8199863.14363
  23618288.7394   -1080236.21946   -841740.69661
  21684022.5754    4079979.30547   3179203.88862
  24170770.888    -1035477.729 5   -494956.21221
  23335327.278    -6659872.100 6  -5058460.32221
 91  4 25 21 15 45.0010000  0  6G18G 2G11G19G16G 6
  23489856.856    14561790.719 6  11346833.03021
  21737724.8494  -10539592.36647  -8212629.19763
  23622642.7554   -1057335.21846   -823895.77961
  21687993.5754    4100833.18746   3195453.66062
  24173935.4424   -1018850.61345   -482000.10761
  23330625.8104   -6684574.97446  -5077709.19661
 91  4 25 21 16  0.0010000  0  6G18G 2G11G19G16G 6
  23500500.646    14617717.412 6  11390412.20421
  21734621.6304  -10555898.29747  -8225335.08463
  23627030.317    -1034290.917 6   -805939.21321
  21691969.9034    4121741.76446   3211746.04662
  24177124.966    -1002107.844 5   -468953.90221
  23325924.4894   -6709270.77646  -5096952.58461
 91  4 25 21 16 15.0010000  0  6G18G 2G11G19G16G 6
  23511154.9814   14673701.02846  11434035.72861
  21731536.4114  -10572121.33847  -8237976.37763
  23631441.075    -1011097.504 6   -787866.44721
  21695962.810     4142710.742 6   3228085.49822
  24180332.481     -985243.774 5   -455813.15421
  23321227.474    -6733953.832 6  -5116186.02621
 91  4 25 21 16 30.0010000  0  6G18G 2G11G19G16G 6
  23521820.216    14729739.375 6  11477701.89221
  21728464.5524  -10588263.39847  -8250554.56763
  23635886.075     -987757.179 6   -769679.19621
  21699963.317     4163738.357 6   3244470.63822
  24183562.599     -968260.349 5   -442579.40521
  23316534.8724   -6758625.94646  -5135410.93061
 91  4 25 21 16 45.0010000  0  6G18G 2G11G19G16G 6
  23532491.755    14785826.936 6  11521406.40721
  21725406.7784  -10604329.74747  -8263073.76463
  23640351.4274    -964275.48746   -751381.80861
  21703974.5214    4184819.35846   3260897.38462
  24186818.5994    -951163.39045   -429257.20161
  23311840.8334   -6783292.44246  -5154631.47361
 91  4 25 21 17  0.0010000  0  6G18G 2G11G19G16G 6
  23543176.2474   14841966.14846  11565151.18261
  21722363.4034  -10620317.60647  -8275531.80163
  23644849.356     -940649.795 6   -732972.19921
  21707993.2634    4205956.57446   3277367.93462
  24190094.224     -933950.298 5   -415844.50921
  23307148.3564   -6807950.70146  -5173845.58661
 91  4 25 21 17 15.0010000  0  6G18G 2G11G19G16G 6
  23553867.794    14898153.945 6  11608933.80021
  21719335.6774  -10636230.08847  -8287931.10563
  23649369.9814    -916883.24646   -714452.84761
  21712028.6774    4227147.08846   3293880.01362
  24193392.3964    -916624.41845   -402343.91661
  23302456.505    -6832603.517 6  -5193055.46521
 91  4 25 21 17 30.0010000  0  6G18G 2G11G19G16G 6
  23564569.060    14954393.555 6  11652756.79121
  21716322.3104  -10652063.51447  -8300268.80363
  23653918.2164    -892972.42546   -695821.06161
  21716074.302     4248394.498 6   3310436.42522
  24196709.216     -899182.077 5   -388752.59621
  23297768.122    -6857247.230 6  -5212258.24021
 91  4 25 21 17 45.0010000  0  6G18G 2G11G19G16G 6
  23575282.700    15010685.100 6  11696620.25521
  21713325.1064  -10667817.07047  -8312544.26563
  23658499.8334    -868916.73746   -677076.40661
  21720126.7004    4269699.81546   3327037.95762
  24200052.2864    -881622.87945   -375070.19961
  23293077.3644   -6881881.15546  -5231453.39161
 91  4 25 21 18  0.0010000  0  6G18G 2G11G19G16G 6
  23586003.380    15067023.139 6  11740519.95121
  21710340.7474  -10683496.35747  -8324761.85863
  23663103.388     -844721.844 6   -658223.26021
  21724188.981     4291057.318 6   3343680.16222
  24203410.817     -863952.156 5   -361300.88821
  23288390.919    -6906510.729 6  -5250645.15721
 91  4 25 21 18 15.0010000  0  6G18G 2G11G19G16G 6
  23596730.833    15123415.496 6  11784461.96821
  21707372.8644  -10699093.42947  -8336915.38563
  23667736.9504    -820379.73746   -639255.42361
  21728265.6464    4312475.34046   3360369.52262
  24206797.5834    -846162.51845   -347438.95161
  23283706.5134   -6931127.89346  -5269827.24761
 91  4 25 21 18 30.0010000  0  6G18G 2G11G19G16G 6
  23607475.247    15179860.570 6  11828445.06121
  21704420.6534  -10714609.48747  -8349005.78263
  23672395.1064    -795891.75946   -620173.90961
  21732353.7864    4333952.78146   3377105.18262
  24210205.810     -828255.335 5   -333485.40321
  23279026.005    -6955733.705 6  -5289000.48721
 91  4 25 21 18 45.0010000  0  6G18G 2G11G19G16G 6
  23618226.271    15236353.852 6  11872465.72421
  21701483.6534  -10730049.05847  -8361036.58263
  23677082.3254    -771262.54946   -600982.33961
  21736451.4584    4355485.20246   3393883.68562
  24213635.9974    -810235.17845   -319443.81761
  23274343.560    -6980332.725 6  -5308168.44921
 91  4 25 21 19  0.0010000  0  6G18G 2G11G19G16G 6
  23628985.583    15292899.095 6  11916526.87621
  21698560.7554  -10745407.97947  -8373004.53963
  23681797.3024    -746488.27346   -581677.74861
  21740557.0364    4377076.65846   3410708.18962
  24217089.0214    -792098.20445   -305311.21161
  23269663.755    -7004920.844 6  -5327327.91021
 91  4 25 21 19 15.0010000  0  6G18G 2G11G19G16G 6
  23639754.2554   15349492.59046  11960625.63061
  21695652.5914  -10760689.67847  -8384912.32563
  23686541.1464    -721572.43846   -562262.83961
  21744677.6464    4398723.87846   3427576.14562
  24220559.0134    -773848.17445   -291090.50661
  23264987.0524   -7029501.47646  -5346481.52461
 91  4 25 21 19 30.0010000  0  6G18G 2G11G19G16G 6
  23650531.106    15406138.602 6  12004765.30921
  21692759.0994  -10775889.55947  -8396756.35363
  23691309.8884    -696510.55146   -542734.13261
  21748807.4194    4420431.61946   3444491.25662
  24224057.1144    -755480.73245   -276778.33961
  23260310.7474   -7054069.97646  -5365625.69261
 91  4 25 21 19 45.0010000  0  6G18G 2G11G19G16G 6
  23661327.052    15462835.955 6  12048944.99921
  21689882.6464  -10791008.51547  -8408537.32163
  23696102.2164    -671303.67146   -523092.43461
  21752954.0834    4442198.95246   3461452.80662
  24227573.606     -736996.820 5   -262375.39121
  23255639.2944   -7078627.07046  -5384760.96761
 91  4 25 21 20  0.0010000  0  6G18G 2G11G19G16G 6
  23672124.599    15519579.506 6  12093160.67721
  21687019.4034  -10806051.40847  -8420259.01963
  23700926.7714    -645956.87846   -503341.72361
  21757104.427     4464021.167 6   3478457.12022
  24231115.005     -718401.325 5   -247885.48621
  23250964.997    -7103177.672 6  -5403891.17521
 91  4 25 21 20 15.0010000  0  6G18G 2G11G19G16G 6
  23682927.325    15576372.537 6  12137414.90821
  21684172.8414  -10821014.85147  -8431918.81963
  23705778.7474    -620466.86246   -483479.40661
  21761268.4034    4485901.72346   3495506.89662
  24234672.8884    -699691.41445   -233306.43761
  23246296.2004   -7127718.25446  -5423013.58861
 91  4 25 21 20 30.0010000  0  6G18G 2G11G19G16G 6
  23693747.122    15633216.457 6  12181708.80021
  21681339.2244  -10835897.13747  -8443515.37363
  23710655.3494    -594832.04346   -463504.26061
  21765444.9424    4507842.33746   3512603.46862
  24238259.1614    -680865.68245   -218637.16161
  23241631.825    -7152247.130 6  -5442126.87721
 91  4 25 21 20 45.0010000  0  6G18G 2G11G19G16G 6
  23704572.989    15690111.893 6  12226042.83921
  21678523.2714  -10850697.60347  -8455048.17663
  23715562.9034    -569051.79246   -443415.78161
  21769628.9894    4529843.94546   3529747.56862
  24241861.263     -661923.232 5   -203876.91021
  23236962.4504   -7176763.47446  -5461230.39861
 91  4 25 21 21  0.0010000  0  6G18G 2G11G19G16G 6
  23715409.0134   15747050.90446  12270410.82361
  21675721.1924  -10865423.63047  -8466522.97263
  23720494.1384    -543133.82946   -423220.00561
  21773826.7714    4551899.16346   3546933.44462
  24245485.9504    -642871.86945   -189031.81261
  23232299.497    -7201274.548 6  -5480329.82221
 91  4 25 21 21 15.0010000  0  6G18G 2G11G19G16G 6
  23726251.8334   15804038.37946  12314816.57061
  21672933.6464  -10880070.05047  -8477935.73863
  23725455.8414    -517073.43146   -402913.23461
  21778034.1144    4574013.08746   3564165.06062
  24249134.7864    -623706.70945   -174098.04161
  23227636.8884   -7225775.48346  -5499421.34361
 91  4 25 21 21 30.0010000  0  6G18G 2G11G19G16G 6
  23737104.669    15861074.831 6  12359260.47921
  21670162.6924  -10894636.20247  -8489285.95963
  23730440.8334    -490869.78446   -382494.83361
  21782254.810     4596186.611 6   3581443.12222
  24252800.6464    -604427.19445   -159075.16961
  23222975.349    -7250265.351 6  -5518504.24721
 91  4 25 21 21 45.0010000  0  6G18G 2G11G19G16G 6
  23747969.5914   15918161.71646  12403743.70261
  21667405.4814  -10909120.42447  -8500572.33563
  23735453.489     -464521.358 6   -361963.62021
  21786486.286     4618421.467 6   3598768.96622
  24256491.4034    -585032.20245   -143962.30361
  23218321.6304   -7274742.38346  -5537577.13661
 91  4 25 21 22  0.0010000  0  6G18G 2G11G19G16G 6
  23758839.3804   15975296.20446  12448264.01161
  21664666.9814  -10923525.27947  -8511796.86863
  23740495.8334    -438030.88146   -341321.72861
  21790728.739     4640715.153 6   3616140.65622
  24260204.544     -565523.993 5   -128761.19521
  23213662.771    -7299209.153 6  -5556642.03521
 91  4 25 21 22 15.0010000  0  6G18G 2G11G19G16G 6
  23769723.747    16032483.226 6  12492825.24721
  21661939.8804  -10937845.53147  -8522955.47663
  23745562.2314    -411393.36146   -320565.25561
  21794983.239     4663072.841 6   3633562.21522
  24263938.692     -545897.850 5   -113468.21421
  23209011.052    -7323660.445 6  -5575694.87321
 91  4 25 21 22 30.0010000  0  6G18G 2G11G19G16G 6
  23780616.755    16089716.078 6  12537422.19721
  21659229.8414  -10952087.47747  -8534053.06763
  23750656.8884    -384615.32246   -299699.28861
  21799247.552     4685488.384 6   3651028.85922
  24267696.3414    -526160.29045    -98088.39661
  23204356.419    -7348102.546 6  -5594740.56221
 91  4 25 21 22 45.0010000  0  6G18G 2G11G19G16G 6
  23791517.435    16146998.286 6  12582057.60221
  21656534.9504  -10966247.60247  -8545086.89863
  23755781.716     -357693.335 6   -278721.13721
  21803526.442     4707965.379 6   3668543.38222
  24271472.521     -506307.965 5    -82619.15921
  23199712.606    -7372531.756 6  -5613776.19421
 91  4 25 21 23  0.0010000  0  6G18G 2G11G19G16G 6
  23802425.4194   16204323.75946  12626726.73561
  21653855.2714  -10980331.58347  -8556061.40063
  23760929.192     -330633.188 6   -257635.34921
  21807813.474     4730498.366 6   3686101.53822
  24275273.9114    -486346.91945    -67065.19561
  23195061.560    -7396953.689 6  -5632806.17221
 91  4 25 21 23 15.0010000  0  6G18G 2G11G19G16G 6
  23813343.5214   16261694.69746  12671431.28861
  21651189.388   -10994337.000 7  -8566974.68723
  23766106.966     -303432.610 6   -236440.11421
  21812113.849     4753089.809 6   3703705.24622
  24279090.481     -466274.804 5    -51424.70921
  23190416.4664   -7421366.01946  -5651828.64661
 91  4 25 21 23 30.0010000  0  6G18G 2G11G19G16G 6
  23824267.075    16319107.279 6  12716168.28021
  21648538.7244  -11008267.39547  -8577829.50563
  23771309.3104    -276095.16146   -215138.24061
  21816426.638     4775736.511 6   3721352.00822
  24282929.958     -446095.302 5    -35700.54621
  23185771.747    -7445771.944 6  -5670846.13621
 91  4 25 21 23 45.0010000  0  6G18G 2G11G19G16G 6
  23835199.739    16376566.771 6  12760941.83821
  21645904.005   -11022117.440 7  -8588621.72223
  23776538.3644    -248615.81246   -193725.78761
  21820743.724     4798443.520 6   3739045.76422
  24286796.091     -425803.280 5    -19888.68121
  23181128.1064   -7470166.24446  -5689854.59061
 91  4 25 21 24  0.0010000  0  6G18G 2G11G19G16G 6
  23846141.138    16434067.176 6  12805747.27821
  21643282.6854  -11035892.60647  -8599355.59463
  23781793.2784    -221000.38646   -172207.31261
  21825073.505     4821205.500 6   3756782.36022
  24290675.810     -405404.743 5     -3993.82721
  23176485.364    -7494554.437 6  -5708858.26021
 91  4 25 21 24 15.0010000  0  6G18G 2G11G19G16G 6
  23857094.356    16491606.419 6  12850582.96921
  21640674.138   -11049595.190 7  -8610032.90523
  23787073.6224    -193251.09646   -150584.52861
  21829413.927     4844020.363 6   3774560.15122
  24294575.872     -384901.752 5     11982.43821
  23171848.731    -7518938.477 6  -5727858.70321
 91  4 25 21 24 30.0010000  0  6G18G 2G11G19G16G 6
  23868051.661    16549190.863 6  12895453.88621
  21638082.9194  -11063218.26547  -8620648.25763
  23792381.4034    -165361.26446   -128852.22761
  21833767.021     4866894.969 6   3792384.50222
  24298497.435     -364287.702 5     28045.19521
  23167206.6774   -7543311.47646  -5746850.56361
 91  4 25 21 24 45.0010000  0  6G18G 2G11G19G16G 6
  23879016.231    16606816.429 6  12940356.84421
  21635503.7864  -11076765.59847  -8631204.59563
  23797713.7164    -137334.77046   -107013.43761
  21838134.2554    4889825.79546   3810252.66562
  24302446.075     -343566.675 5     44191.36721
  23162573.4034   -7567677.12046  -5765836.67861
 91  4 25 21 25  0.0010000  0  6G18G 2G11G19G16G 6
  23889990.4814   16664480.03546  12985289.45561
  21632941.044   -11090240.242 7  -8641704.29023
  23803075.6774    -109174.86146    -85070.69261
  21842503.997     4912809.911 6   3828162.34522
  24306405.575     -322741.971 5     60418.32821
  23157936.6464   -7592038.35946  -5784819.37561
 91  4 25 21 25 15.0010000  0  6G18G 2G11G19G16G 6
  23900970.0914   16722184.13846  13030253.60561
  21630389.919   -11103639.234 7  -8652145.03923
  23808458.333      -80878.941 6    -63021.96521
  21846892.841     4935850.147 6   3846115.76222
  24310389.685     -301811.152 5     76727.92021
  23153301.700    -7616392.442 6  -5803796.48521
 91  4 25 21 25 30.0010000  0  6G18G 2G11G19G16G 6
  23911958.052    16779928.685 6  13075249.27721
  21627854.8494  -11116962.46947  -8662526.75363
  23813870.200      -52446.704 6    -40867.02721
  21851284.771     4958947.000 6   3864113.29422
  24314393.646     -280773.954 5     93120.44721
  23148668.747    -7640738.852 6  -5822767.62721
 91  4 25 21 25 45.0010000  0  6G18G 2G11G19G16G 6
  23922954.802    16837720.272 6  13120281.60621
  21625333.856   -11130203.220 7  -8672844.19623
  23819307.856      -23871.705 6    -18600.83521
  21855694.646     4982107.351 6   3882160.30722
  24318414.6384    -259623.91345    109600.85661
  23144040.3804   -7665070.84446  -5841727.53261
 91  4 25 21 26  0.0010000  0  6G18G 2G11G19G16G 6
  23933961.419    16895554.567 6  13165347.21021
  21622831.3254  -11143365.56347  -8683100.54263
  23824769.849        4841.630 6      3773.14621
  21860110.247     5005326.892 6   3900253.43722
  24322460.9584    -238365.50145    126165.77461
  23139412.1224   -7689392.59246  -5860679.44461
 91  4 25 21 26 15.0010000  0  6G18G 2G11G19G16G 6
  23944974.4894   16953431.64246  13210446.15761
  21620340.349   -11156449.082 7  -8693295.46623
  23830261.185       33693.697 6     26255.23121
  21864541.286     5028606.193 6   3918393.14022
  24326528.5994    -216998.53945    142815.23261
  23134785.1774   -7713703.48546  -5879622.91161
 91  4 25 21 26 30.0010000  0  6G18G 2G11G19G16G 6
  23956000.935    17011355.461 6  13255581.52221
  21617866.724   -11169449.510 7  -8703425.64923
  23835781.9504      62688.51646     48848.56361
  21868980.958     5051949.706 6   3936582.87122
  24330616.7084    -195518.87045    159552.52461
  23130160.2864   -7737999.25546  -5898554.58461
 91  4 25 21 26 45.0010000  0  6G18G 2G11G19G16G 6
  23967025.833    17069326.211 5  13300753.46321
  21615408.380   -11182366.709 7  -8713490.97523
  23841324.075       91826.170 6     71553.18921
  21873440.396     5075357.720 6   3954822.87622
  24334724.4424    -173926.49245    176377.65761
  23125542.0834   -7762279.52046  -5917474.17661
 91  4 25 21 27  0.0010000  0  6G18G 2G11G19G16G 6
  23978071.653    17127342.364 6  13345960.77421
  21612966.8254  -11195201.86147  -8723492.36863
  23846894.013      121105.321 6     94368.05221
  21877905.911     5098829.230 6   3973112.34822
  24338852.560     -152222.540 5    193289.69321
  23120924.091    -7786545.458 6  -5936382.61821
 91  4 25 21 27 15.0010000  0  6G18G 2G11G19G16G 6
  23989119.544    17185407.402 6  13391206.18221
  21610539.396   -11207951.030 7  -8733426.75923
  23852494.5914     150529.52146    117295.95661
  21882386.0524    5122367.97046   3991454.20962
  24343007.7944    -130403.63445    210291.33061
  23116308.7314   -7810793.12746  -5955276.80861
 91  4 25 21 27 30.0010000  0  6G18G 2G11G19G16G 6
  24000180.6064   17243522.70246  13436490.76961
  21608130.325   -11220612.839 7  -8743293.08223
  23858120.2084     180100.04146    140337.88661
  21886875.231     5145975.546 6   4009849.70522
  24347183.8884    -108468.64345    227383.41161
  23111699.6694   -7835021.05446  -5974155.62661
 91  4 25 21 27 45.0010000  0  6G18G 2G11G19G16G 6
  24011247.669    17301686.579 5  13481813.18721
  21605737.997   -11233188.323 7  -8753092.13523
  23863779.091      209815.653 6    163492.85721
  21891381.9894    5169650.96546   4028298.07362
  24351377.3964     -86418.85045    244564.93461
  23107092.419    -7859230.168 6  -5993019.77821
 91  4 25 21 28  0.0010000  0  6G18G 2G11G19G16G 6
  24022320.341    17359895.212 5  13527170.49821
  21603360.005   -11245681.565 7  -8762827.10623
  23869457.692      239672.409 6    186757.82221
  21895898.9744    5193390.48946   4046796.39662
  24355591.794      -64258.441 5    261832.67321
  23102489.8414   -7883424.37746  -6011872.32261
 91  4 25 21 28 15.0010000  0  6G18G 2G11G19G16G 6
  24033408.0284   17418153.08645  13572566.17561
  21600999.185   -11258087.590 7  -8772494.11723
  23875166.911      269674.702 6    210136.19021
  21900431.263     5217199.001 6   4065348.47022
  24359835.4504     -41982.84245    279190.14661
  23097886.7554   -7907598.76546  -6030709.41461
 91  4 25 21 28 30.0010000  0  6G18G 2G11G19G16G 6
  24044508.325    17476459.614 6  13617999.75221
  21598654.099   -11270406.806 7  -8782093.48523
  23880903.1464     299822.02146    233627.56661
  21904971.8494    5241075.95846   4083953.88462
  24364093.653      -19592.317 5    296637.21921
  23093291.317    -7931753.585 6  -6049531.26521
 91  4 25 21 28 45.0010000  0  6G18G 2G11G19G16G 6
  24055610.450    17534811.788 6  13663468.91421
  21596325.403   -11282641.978 7  -8791627.36323
  23886665.6774     330111.27346    257229.53861
  21909529.9194    5265018.75446   4102610.59962
  24368377.599        2909.704 5    314171.16221
  23088697.2004   -7955891.75446  -6068340.14561
 91  4 25 21 29  0.0010000  0  6G18G 2G11G19G16G 6
  24066723.3644   17593208.56945  13708972.82361
  21594014.794   -11294793.864 7  -8801096.34123
  23892457.630      360541.727 6    280941.52921
  21914099.2164    5289027.06946   4121318.36562
  24372677.5754      25522.22645    331791.14561
  23084108.3804   -7980013.70946  -6087136.37961
 91  4 25 21 29 15.0010000  0  6G18G 2G11G19G16G 6
  24077844.567    17651654.469 5  13754515.00021
  21591719.614   -11306857.881 7  -8810496.85123
  23898276.614      391117.863 6    304767.05021
  21918680.4424    5313105.51746   4140080.78562
  24377005.0914      48249.84845    349500.86661
  23079522.497    -8004114.720 6  -6105916.30921
 91  4 25 21 29 30.0010000  0  6G18G 2G11G19G16G 6
  24088976.2164   17710146.71045  13800093.30161
  21589438.950   -11318836.221 7  -8819830.60023
  23904122.1694     421837.20846    328704.15761
  21923273.403     5337251.860 6   4158896.10622
  24381349.880       71090.037 5    367298.29821
  23074938.427    -8028197.026 6  -6124681.66321
 91  4 25 21 29 45.0010000  0  6G18G 2G11G19G16G 6
  24100117.317    17768680.588 5  13845704.01921
  21587174.817   -11330733.603 7  -8829101.26723
  23909992.146      452694.950 6    352749.09921
  21927881.8884    5361461.54846   4177760.78462
  24385718.3884      94038.17345    385179.81761
  23070356.7474   -8052265.17746  -6143435.97661
 91  4 25 21 30  0.0010000  0  6G18G 2G11G19G16G 6
  24111257.9974   17827257.28345  13891348.13561
  21584926.974   -11342548.486 7  -8838307.64923
  23915893.474      483692.322 6    376902.85221
  21932500.3104    5385736.31546   4196676.18062
  24390105.411      117095.230 5    403146.25721
  23065780.958    -8076317.544 6  -6162177.99521
 91  4 25 21 30 15.0010000  0  6G18G 2G11G19G16G 6
  24122413.333    17885875.114 5  13937024.29121
  21582694.200   -11354282.454 7  -8847450.98123
  23921816.810      514827.636 6    401164.08321
  21937134.2244    5410074.64446   4215641.09862
  24394512.8494     140259.33645    421196.09761
  23061207.0994   -8100355.71046  -6180908.93961
 91  4 25 21 30 30.0010000  0  6G18G 2G11G19G16G 6
  24133574.200    17944533.865 5  13982732.32421
  21580474.8884  -11365935.19547  -8856531.01163
  23927767.9744     546100.92946    425532.85161
  21941776.333     5434476.922 6   4234655.85022
  24398938.7474     163530.73245    439329.51061
  23056635.9974   -8124379.21846  -6199628.47061
 91  4 25 21 30 45.0010000  0  6G18G 2G11G19G16G 6
  24144747.013    18003230.911 5  14028470.22221
  21578273.755   -11377509.380 7  -8865549.83623
  23933748.403      577509.457 6    450006.97121
  21946431.0524    5458940.44246   4253718.32062
  24403392.7714     186906.38945    457544.18561
  23052066.427    -8148390.636 6  -6218338.57221
 91  4 25 21 31  0.0010000  0  6G18G 2G11G19G16G 6
  24155927.591    18061969.103 5  14074240.16121
  21576085.364   -11389001.801 7  -8874504.95023
  23939750.2474     609056.19646    474588.79761
  21951099.9354    5483468.69546   4272831.22762
  24407860.950      210389.367 5    475842.47821
  23047501.1384   -8172386.56346  -6237036.60761
 91  4 25 21 31 15.0010000  0  6G18G 2G11G19G16G 6
  24167111.974    18120745.616 5  14120039.96121
  21573915.286   -11400414.864 7  -8883398.22223
  23945780.153      640738.397 6    499276.17521
  21955780.200     5508059.191 6   4291992.63922
  24412346.716      233976.829 5    494222.19021
  23042935.3884   -8196369.58446  -6255724.57861
 91  4 25 21 31 30.0010000  0  6G18G 2G11G19G16G 6
  24178301.146    18179562.838 5  14165871.48621
  21571759.013   -11411746.112 7  -8892227.74623
  23951832.981      672558.524 6    524071.03421
  21960468.880     5532714.398 6   4311204.47722
  24416856.0134     257671.10645    512685.11261
  23038376.1534   -8220336.97546  -6274400.37561
 91  4 25 21 31 45.0010000  0  6G18G 2G11G19G16G 6
  24189498.497    18238417.406 5  14211732.11721
  21569617.435   -11422998.773 7  -8900996.02623
  23957914.833      704513.080 6    548970.64021
  21965174.427     5557431.172 6   4330464.28622
  24421387.3254     281468.75245    531228.58861
  23033815.5214   -8244291.91146  -6293066.46661
 91  4 25 21 32  0.0010000  0  6G18G 2G11G19G16G 6
  24200706.6224   18297311.24245  14257623.33761
  21567492.044   -11434170.845 7  -8909701.51423
  23964019.6224     736604.09846    573976.56661
  21969889.0834    5582211.80346   4349773.85662
  24425934.997      305371.775 5    549854.19221
  23029260.9664   -8268232.23846  -6311721.17361
 91  4 25 21 32 15.0010000  0  6G18G 2G11G19G16G 6
  24211924.0994   18356243.89245  14303544.82761
  21565380.817   -11445262.288 7  -8918344.16723
  23970154.036      768831.286 6    599088.61421
  21974618.856     5607056.503 6   4369133.34822
  24430504.5674     329379.64545    568561.45961
  23024708.9584   -8292157.71746  -6330364.31261
 91  4 25 21 32 30.0010000  0  6G18G 2G11G19G16G 6
  24223146.9194   18415212.57045  14349494.34961
  21563285.208   -11456275.757 7  -8926926.07023
  23976311.661      801191.793 6    624304.54721
  21979354.356     5631962.660 6   4388540.72522
  24435089.0674     353489.65345    587348.35161
  23020154.8564   -8316070.93646  -6348997.89461
 91  4 25 21 32 45.0010000  0  6G18G 2G11G19G16G 6
  24234370.810    18474215.387 5  14395470.52221
  21561203.067   -11467212.497 7  -8935448.18223
  23982495.028      833683.992 6    649623.09121
  21984106.278     5656928.944 6   4407994.96022
  24439698.7784     377700.14545    606213.49661
  23015607.3254   -8339973.19646  -6367622.93361
 91  4 25 21 33  0.0010000  0  6G18G 2G11G19G16G 6
  24245610.1224   18533255.73445  14441475.92761
  21559137.247   -11478069.301 7  -8943908.00323
  23988702.474      866310.897 6    675046.60321
  21988871.966     5681958.779 6   4427498.71222
  24444324.3334     402014.30545    625159.44161
  23011062.1534   -8363861.27446  -6386236.92661
 91  4 25 21 33 15.0010000  0  6G18G 2G11G19G16G 6
  24256851.1854   18592332.43445  14487509.63661
  21557086.927   -11488846.804 7  -8952306.03523
  23994940.411      899071.866 6    700574.58221
  21993645.771     5707051.603 6   4447051.54422
  24448974.638      426431.183 5    644185.43821
  23006520.7944   -8387735.48946  -6404840.11861
 91  4 25 21 33 30.0010000  0  6G18G 2G11G19G16G 6
  24268097.3564   18651447.71545  14533573.43961
  21555051.396   -11499542.738 7  -8960640.50523
  24001199.896      931968.908 6    726208.59621
  21998433.114     5732209.798 6   4466655.32122
  24453639.716      450952.587 5    663292.88821
  23001977.7784   -8411593.55746  -6423430.72761
 91  4 25 21 33 45.0010000  0  6G18G 2G11G19G16G 6
  24279352.685    18710598.445 5  14579664.83921
  21553029.825   -11510159.980 7  -8968913.66023
  24007484.4744     964998.84746    751946.15961
  22003233.364     5757430.581 6   4486307.85722
  24458325.036      475575.678 5    682479.54621
  22997441.9584   -8435438.27946  -6442010.93661
 91  4 25 21 34  0.0010000  0  6G18G 2G11G19G16G 6
  24290614.7164   18769783.40945  14625782.93961
  21551025.724   -11520699.543 7  -8977126.27823
  24013793.833      998160.474 6    777786.34921
  22008043.302     5782713.159 6   4506008.54622
  24463033.3414     500299.16945    701744.47161
  22992906.6924   -8459270.54846  -6460581.44161
 91  4 25 21 34 15.0010000  0  6G18G 2G11G19G16G 6
  24301885.4424   18829002.24945  14671927.42261
  21549034.153   -11531161.546 7  -8985278.46823
  24020129.427     1031453.566 6    803728.97121
  22012866.044     5808057.281 6   4525757.19522
  24467753.302      525122.406 5    721087.10121
  22988369.9744   -8483090.43446  -6479142.29361
 91  4 25 21 34 30.0010000  0  6G18G 2G11G19G16G 6
  24313162.6064   18888251.64045  14718095.71961
  21547057.903   -11541549.054 7  -8993372.60223
  24026489.278     1064874.863 6    829771.48421
  22017701.731     5833460.177 6   4545551.64122
  24472492.0754     550042.21845    740504.98461
  22983840.5524   -8506900.75146  -6497695.68661
 91  4 25 21 34 45.0010000  0  6G18G 2G11G19G16G 6
  24324442.388    18947531.616 5  14764287.83821
  21545094.841   -11551862.004 7  -9001408.64623
  24032874.325     1098424.227 6    855913.79221
  22022546.044     5858922.008 6   4565392.01122
  24477254.669      575058.633 5    759998.14721
  22979313.450    -8530701.433 6  -6516241.57421
 91  4 25 21 35  0.0010000  0  6G18G 2G11G19G16G 6
  24335724.8564   19006842.18545  14810503.79461
  21543147.388   -11562100.107 7  -9009386.36323
  24039281.810     1132101.901 6    882156.07921
  22027401.903     5884443.271 6   4585278.69222
  24482035.310      600171.677 5    779566.60221
  22974787.317    -8554491.874 6  -6534779.47221
 91  4 25 21 35 15.0010000  0  6G18G 2G11G19G16G 6
  24347023.8564   19066188.08545  14856747.30061
  21541212.552   -11572258.296 7  -9017301.81123
  24045716.021     1165912.804 6    908502.19421
  22032272.216     5910029.143 6   4605215.71922
  24486828.591      625386.145 5    799214.10521
  22970260.0364   -8578266.86646  -6553305.34461
 91  4 25 21 35 30.0010000  0  6G18G 2G11G19G16G 6
  24358322.3414   19125566.52345  14903016.15761
  21539295.646   -11582338.944 7  -9025156.84023
  24052174.724     1199854.180 6    934949.97121
  22037150.005     5935677.258 6   4625201.24622
  24491646.028      650699.536 5    818938.68421
  22965737.935    -8602028.913 6  -6571821.11921
 91  4 25 21 35 45.0010000  0  6G18G 2G11G19G16G 6
  24369629.6384   19184976.71345  14949309.73361
  21537391.872   -11592342.557 7  -9032951.84323
  24058657.106     1233925.165 6    961498.74521
  22042044.513     5961387.090 6   4645234.86222
  24496484.638      676111.047 5    838739.69321
  22961220.0674   -8625778.46646  -6590327.16661
 91  4 25 21 36  0.0010000  0  6G18G 2G11G19G16G 6
  24380939.5284   19244423.91545  14995632.18161
  21535504.177   -11602263.851 7  -9040682.69523
  24065167.692     1268131.004 6    988152.60021
  22046950.271     5987164.226 6   4665320.92122
  24501340.661      701625.562 5    858620.99321
  22956703.646    -8649509.975 6  -6608819.15421
 91  4 25 21 36 15.0010000  0  6G18G 2G11G19G16G 6
  24392253.6144   19303902.22445  15041978.82961
  21533630.474   -11612108.783 7  -9048354.04523
  24071700.106     1302465.607 6   1014906.79321
  22051865.950     6013002.906 6   4685454.93822
  24506214.2944     727236.91345    878577.72461
  22952190.130    -8673229.181 6  -6627301.53421
 91  4 25 21 36 30.0010000  0  6G18G 2G11G19G16G 6
  24403583.278    19363411.905 5  15088349.94621
  21531773.6224  -11621876.61647  -9055965.31863
  24078258.481     1336929.484 6   1041761.71721
  22056794.185     6038904.027 6   4705637.61122
  24511108.778      752945.510 5    898610.25921
  22947681.8804   -8696935.26946  -6645773.71461
 91  4 25 21 36 45.0010000  0  6G18G 2G11G19G16G 6
  24414909.0054   19422954.08645  15134746.38861
  21529927.856   -11631565.988 7  -9063515.45223
  24084842.5364    1371523.69446   1068718.20861
  22061738.380     6064868.636 6   4725869.75622
  24516019.755      778752.570 5    918719.50121
  22943170.716    -8720626.918 6  -6664234.64121
 91  4 25 21 37  0.0010000  0  6G18G 2G11G19G16G 6
  24426246.0994   19482527.81845  15181167.42461
  21528100.2164  -11641177.19547  -9071004.67863
  24091451.349     1406247.621 6   1095775.77421
  22066688.028     6090896.600 6   4746151.26522
  24520947.3804     804657.28945    938904.85561
  22938665.591    -8744304.424 6  -6682684.53921
 91  4 25 21 37 15.0010000  0  6G18G 2G11G19G16G 6
  24437594.146    19542137.208 5  15227616.21621
  21526286.9744  -11650706.25248  -9078429.89163
  24098084.114     1441105.185 6   1122937.46621
  22071655.302     6116992.027 6
  24525890.5604     830663.63945
  22934164.153    -8767963.457 6  -6701120.04921
 91  4 25 21 37 30.0010000  0  6G18G 2G11G19G16G 6
  24448938.5134   19601779.32045  15274090.53961
  21524487.489   -11660156.082 7  -9085793.36823
  24104741.653     1476093.383 6   1150200.94621
  22076631.560     6143152.195 6
  24530860.8644     856768.48745
  22929662.271    -8791606.831 6  -6719543.35421
 91  4 25 21 37 45.0010000  0  6G18G 2G11G19G16G 6
  24460295.0674   19661455.35445  15320591.28061
  21522703.442   -11669524.921 7  -9093093.74023
  24111424.3104    1511213.56046   1177567.27961
  22081624.872     6169378.827 6
  24535847.8334     882973.54545
  22925168.0994   -8815232.73046  -6737953.04761
 91  4 25 21 38  0.0010000  0  6G18G 2G11G19G16G 6
  24471662.1384   19721166.66845  15367119.51561
  21520937.872   -11678811.227 7  -9100329.79623
  24118134.755     1546467.052 6   1205037.47821
  22086628.005     6195673.668 6
  24540856.3644     909279.84945
  22920676.466    -8838839.500 6  -6756347.83421
 91  4 25 21 38 15.0010000  0  6G18G 2G11G19G16G 6
  24483027.0214   19780914.54345  15413676.24761
  21519187.302   -11688013.720 7  -9107500.54623
  24124869.1854    1581854.90446   1232612.38761
  22091644.981     6222038.095 6
  24545880.0604     935688.26645
  22916186.669    -8862425.816 6  -6774726.66921
 91  4 25 21 38 30.0010000  0  6G18G 2G11G19G16G 6
  24494408.9584   19840695.06045  15460258.40361
  21517450.466   -11697135.524 7  -9114608.42223
  24131627.560     1617373.726 6   1260289.33921
  22096672.349     6248469.030 6
  24550926.9504     962195.43345
  22911700.997    -8885994.638 6  -6793091.88321
 91  4 25 21 38 45.0010000  0  6G18G 2G11G19G16G 6
  24505787.0054   19900507.08345  15506865.11961
  21515730.239   -11706177.825 7  -9121654.34823
  24138410.185     1653022.132 6   1288067.26721
  22101716.341     6274965.388 6   4889581.35522
  24555989.138      988800.117 5    998991.71321
  22907219.5284   -8909547.09646  -6811444.34461
 91  4 25 21 39  0.0010000  0  6G18G 2G11G19G16G 6
  24517176.8174   19960346.01945  15553492.81461
  21514024.247   -11715145.092 7  -9128641.80423
  24145219.5914    1688795.56046   1315942.63261
  22106770.544     6301522.910 6   4910275.51522
  24561071.091     1015497.617 5   1019794.83121
  22902742.1534   -8933087.34246  -6829787.29861
 91  4 25 21 39 15.0010000  0  6G18G 2G11G19G16G 6
  24528564.380    20020204.967 5  15600136.06821
  21512331.099   -11724043.964 7  -9135575.96623
  24152049.614     1724687.220 6   1343910.10521
  22111833.630     6328135.040 6   4931012.21722
  24566165.278     1042280.744 5   1040664.62321
  22898263.630    -8956621.996 6  -6848125.88721
 91  4 25 21 39 30.0010000  0  6G18G 2G11G19G16G 6
  24539962.052    20080094.633 5  15646803.30221
  21510652.302   -11732863.728 7  -9142448.49023
  24158903.927     1760707.568 6   1371977.86921
  22116909.716     6354812.661 6   4951799.96022
  24571281.6464    1069160.31345   1061609.66461
  22893787.536    -8980140.083 6  -6866451.56821
 91  4 25 21 39 45.0010000  0  6G18G 2G11G19G16G 6
  24551363.021    20140015.206 5  15693494.59921
  21508988.747   -11741603.959 7  -9149259.03423
  24165778.5604    1796857.00646   1400146.20561
  22122003.083     6381556.471 6   4972639.26822
  24576414.606     1096136.868 5   1082630.15521
  22889311.9744   -9003640.94046  -6884763.82761
 91  4 25 21 40  0.0010000  0  6G18G 2G11G19G16G 6
  24562774.755    20199962.803 5  15740206.94921
  21507339.442   -11750268.152 7  -9156010.33223
  24172683.6924    1833131.64046   1428412.09261
  22127099.349     6408362.987 6   4993527.44522
  24581568.2394    1123206.18145   1103722.95961
  22884846.4584   -9027128.11646  -6903065.42961
 91  4 25 21 40 15.0010000  0  6G18G 2G11G19G16G 6
  24574184.966    20259939.179 5  15786941.73221
  21505706.169   -11758854.166 7  -9162700.70823
  24179610.599     1869533.280 6   1456776.95621
  22132215.036     6435234.186 6   5014466.02222
  24586734.536     1150370.068 5   1124889.46921
  22880378.521    -9050599.513 6  -6921354.73021
 91  4 25 21 40 30.0010000  0  6G18G 2G11G19G16G 6
  24585604.942    20319942.936 5  15833697.85421
  21504086.286   -11767363.286 7  -9169331.16923
  24186563.1854    1906060.65246   1485239.78661
  22137339.364     6462169.119 6   5035454.26522
  24591920.583     1177627.125 5   1146128.56821
  22875914.2244   -9074056.11946  -6939632.51061
 91  4 25 21 40 45.0010000  0  6G18G 2G11G19G16G 6
  24597029.2944   20379972.40445  15880474.01161
  21502481.442   -11775796.862 7  -9175902.76023
  24193536.3964    1942711.98046   1513799.21861
  22142479.942     6489166.354 6   5056491.05322
  24597127.4274    1204975.49845   1167438.84061
  22871452.2864   -9097499.22946  -6957899.78361
 91  4 25 21 41  0.0010000  0  6G18G 2G11G19G16G 6
  24608454.5214   20440024.73745  15927267.97961
  21500890.481   -11784157.728 7  -9182417.69823
  24200531.778     1979484.274 6   1542452.89921
  22147627.513     6516223.283 6   5077574.35722
  24602349.286     1232412.321 5   1188818.02221
  22866990.739    -9120931.448 6  -6976158.57121
 91  4 25 21 41 15.0010000  0  6G18G 2G11G19G16G 6
  24619888.7164   20500103.28745  15974082.37761
  21499313.536   -11792442.140 7  -9188873.06423
  24207554.7944    2016380.99146   1571203.52761
  22152786.763     6543343.686 6   5098707.12222
  24607587.6064    1259941.22345   1210268.92161
  22862538.4974   -9144348.93546  -6994405.87061
 91  4 25 21 41 30.0010000  0  6G18G 2G11G19G16G 6
  24631326.403    20560206.612 5  16020916.08421
  21497751.575   -11800651.323 7  -9195269.80823
  24214599.583     2053400.821 6   1600050.08621
  22157962.958     6570526.472 6   5119888.49422
  24612845.810     1287560.556 5   1231790.34621
  22858086.1304   -9167752.82146  -7012642.56861
 91  4 25 21 41 45.0010000  0  6G18G 2G11G19G16G 6
  24642768.161    20620329.585 5  16067765.09821
  21496202.396   -11808790.221 7  -9201611.78423
  24221666.278     2090538.468 6   1628988.45621
  22163145.138     6597766.800 6   5141114.70822
  24618112.294     1315265.076 5   1253378.10621
  22853632.4274   -9191147.81346  -7030872.34361
 91  4 25 21 42  0.0010000  0  6G18G 2G11G19G16G 6
  24654209.536    20680474.400 5  16114631.14121
  21494668.239   -11816856.173 7  -9207896.91523
  24228757.278     2127796.269 6   1658020.45221
  22168340.388     6625067.396 6   5162387.88822
  24623405.3804    1343056.95545   1275033.98261
  22849185.4744   -9214531.25646  -7049093.11561
 91  4 25 21 42 15.0010000  0  6G18G 2G11G19G16G 6
  24665660.099    20740640.928 5  16161514.08121
  21493148.091   -11824849.454 8  -9214125.42423
  24235871.4584    2165173.91346   1687145.82861
  22173546.302     6652428.057 6   5183707.86922
  24628709.013     1370935.953 5   1296757.67821
  22844731.388    -9237903.265 6  -7067304.98321
 91  4 25 21 42 30.0010000  0  6G18G 2G11G19G16G 6
  24677113.8564   20800825.99345  16208411.47561
  21491639.677   -11832773.115 8  -9220299.68423
  24243001.794     2202668.175 6   1716362.05821
  22178765.177     6679846.034 6   5205072.51222
  24634028.8724    1398898.88345   1318546.87161
  22840289.5054   -9261266.65546  -7085510.12961
 91  4 25 21 42 45.0010000  0  6G18G 2G11G19G16G 6
  24688567.3334   20861034.71845  16255327.31761
  21490145.771   -11840621.426 8  -9226415.22623
  24250161.372     2240284.417 6   1745673.36721
  22183992.864     6707327.222 6   5226486.40622
  24639367.2944    1426951.03445   1340405.49461
  22835847.3564   -9284615.57046  -7103703.99561
 91  4 25 21 43  0.0010000  0  6G18G 2G11G19G16G 6
  24700034.091    20921267.854 5  16302262.19521
  21488665.849   -11848393.619 8  -9232471.45723
  24257346.591     2278023.334 6   1775080.24721
  22189232.685     6734872.296 6   5247950.08922
  24644721.1534    1455092.88845   1362334.07061
  22831405.974    -9307949.191 6  -7121885.96221
 91  4 25 21 43 15.0010000  0  6G18G 2G11G19G16G 6
  24711502.1854   20981522.09945  16349213.49361
  21487201.583   -11856092.836 8  -9238470.82323
  24264549.2084    2315881.63046   1804580.15661
  22194487.6464    6762478.41446   5269461.33263
  24650094.692     1483320.977 5   1384329.86021
  22826968.685    -9331270.438 6  -7140058.29121
 91  4 25 21 43 30.0010000  0  6G18G 2G11G19G16G 6
  24722969.231    21041793.313 5  16396178.01721
  21485748.747   -11863722.688 7  -9244416.14123
  24271775.0754    2353855.32646   1834169.99361
  22199751.771     6790142.002 6   5291017.36823
  24655483.263     1511631.626 5   1406389.91521
  22822529.458    -9354582.775 6  -7158223.67121
 91  4 25 21 43 45.0010000  0  6G18G 2G11G19G16G 6
  24734438.122    21102086.867 5  16443159.93721
  21484311.208   -11871277.601 7  -9250303.06123
  24279024.317     2391949.696 6   1863853.86921
  22205029.138     6817868.650 6   5312622.53323
  24660887.2314    1540030.21745   1428518.54961
  22818096.763    -9377880.462 6  -7176377.63621
 91  4 25 21 44  0.0010000  0  6G18G 2G11G19G16G 6
  24745915.255    21162403.797 5  16490160.10521
  21482889.177   -11878756.571 7  -9256130.80823
  24286297.3964    2430165.49846   1893632.34861
  22210316.388     6845659.328 6   5334277.59122
  24666307.3724    1568517.37745   1450716.21061
  22813665.966    -9401162.482 6  -7194519.39121
 91  4 25 21 44 15.0010000  0  6G18G 2G11G19G16G 6
  24757399.677    21222737.648 5  16537173.43621
  21481477.771   -11886165.843 7  -9261904.24323
  24293589.3254    2468496.41446   1923500.53661
  22215616.083     6873508.085 6   5355977.90022
  24671744.911     1597086.687 5   1472977.88521
  22809238.9584   -9424434.86846  -7212653.64961
 91  4 25 21 44 30.0010000  0  6G18G 2G11G19G16G 6
  24768882.255    21283091.727 5  16584202.54921
  21480082.2714  -11893502.04047  -9267620.73763
  24300910.106     2506945.700 6   1953460.94821
  22220927.489     6901418.575 6   5377726.31922
  24677197.544     1625741.443 5   1495306.10021
  22804811.7394   -9447693.97946  -7230777.56161
 91  4 25 21 44 45.0010000  0  6G18G 2G11G19G16G 6
  24780376.669    21343462.657 5  16631244.76821
  21478700.661   -11900767.647 7  -9273282.22223
  24308248.8644    2545510.42746   1983511.33161
  22226249.403     6929388.170 6   5399520.80322
  24682670.9354    1654478.51145
  22800389.560    -9470942.331 6  -7248893.07721
 91  4 25 21 45  0.0010000  0  6G18G 2G11G19G16G 6
  24791865.817    21403853.185 5  16678302.27621
  21477329.896   -11907960.272 7  -9278886.84623
  24315608.0284    2584192.75846   2013653.35161
  22231583.192     6957419.442 6   5421363.32622
  24688153.0604    1683300.04845
  22795966.3964   -9494177.19646  -7266998.09761
 91  4 25 21 45 15.0010000  0  6G18G 2G11G19G16G 6
  24803361.442    21464262.377 5  16725374.31221
  21475977.427   -11915080.619 7  -9284435.14323
  24322990.7784    2622991.90346   2043886.39361
  22236930.247     6985511.617 6   5443253.31522
  24693652.4974    1712205.39045
  22791548.7244   -9517399.23746  -7285093.12261
 91  4 25 21 45 30.0010000  0  6G18G 2G11G19G16G 6
  24814861.7164   21524691.47345  16772461.86761
  21474636.083   -11922126.908 8  -9289925.74123
  24330397.458     2661909.240 6   2074211.53121
  22242287.255     7013666.567 6   5465192.22822
  24699165.802     1741195.837 5        -0.03931
  22787132.6464   -9540606.65046  -7303176.74961
 91  4 25 21 45 45.0010000  0  6G18G 2G11G19G16G 6
  24826365.903    21585137.998 5  16819562.99221
  21473307.833   -11929101.211 7  -9295360.24323
  24337824.817     2700942.468 6   2104626.98121
  22247658.075     7041882.398 6   5487178.57322
  24704700.0134    1770268.78045     22654.05961
  22782719.4504   -9563801.36246  -7321250.48861
 91  4 25 21 46  0.0010000  0  6G18G 2G11G19G16G 6
  24837867.2944   21645599.97945  16866676.18061
  21471993.591   -11936005.833 7  -9300740.44323
  24345274.8414    2740089.29846   2135130.94461
  22253034.6774    7070157.09646   5509210.79062
  24710247.966     1799421.968 5     45370.63021
  22778304.7944   -9586985.20646  -7339315.74861
 91  4 25 21 46 15.0010000  0  6G18G 2G11G19G16G 6
  24849377.356    21706077.842 5  16913801.72321
  21470694.169   -11942839.983 7  -9306065.73623
  24352746.896     2779350.156 6   2165723.74321
  22258429.544     7098491.565 6   5531289.58722
  24715813.1464    1828655.96645     68150.22561
  22773899.130    -9610157.366 6  -7357371.91021
 91  4 25 21 46 30.0010000  0  5G18G 2G11G19G 6
  24860892.3494   21766572.55645  16960940.41761
  21469407.372   -11949602.648 8  -9311335.32523
  24360237.692     2818725.811 6   2196406.01821
  22263830.380     7126886.745 6   5553415.68122
  22769489.3724   -9633316.77546  -7375418.13761
 91  4 25 21 46 45.0010000  0  5G18G 2G11G19G 6
  24872399.8494   21827084.43745  17008092.48161
  21468133.911   -11956292.750 8  -9316548.37223
  24367753.1064    2858217.04646   2227178.33961
  22269247.192     7155343.906 6   5575590.08322
  22765085.9814   -9656462.27946  -7393453.53461
 91  4 25 21 47  0.0010000  0  5G18G 2G11G19G 6
  24883922.6384   21887613.13845  17055257.65961
  21466875.872   -11962910.697 8  -9321705.19323
  24375285.161     2897823.206 6   2258040.19821
  22274675.099     7183862.730 6   5597812.52422
  22760683.3724   -9679594.02646  -7411478.20261
 91  4 25 21 47 15.0010000  0  5G18G 2G11G19G 6
  24895449.231    21948156.728 5  17102434.41121
  21465628.716   -11969458.300 8  -9326807.20323
  24382848.4744    2937542.34146   2288990.10961
  22280112.794     7212441.575 6   5620081.74122
  22756283.8334   -9702713.68346  -7429493.45161
 91  4 25 21 47 30.0010000  0  5G18G 2G11G19G 6
  24906971.5604   22008712.90645  17149621.00761
  21464395.036   -11975937.617 8  -9331856.00423
  24390424.669     2977372.138 6   2320026.23221
  22285560.294     7241078.462 6   5642396.17722
  22751884.5444   -9725823.10746  -7447500.72561
 91  4 25 21 47 45.0010000  0  5G18G 2G11G19G 6
  24918496.903    22069283.531 5  17196818.83421
  21463175.802   -11982346.436 8  -9336849.87123
  24398030.888     3017314.513 6   2351150.11321
  22291023.271     7269775.617 6   5664757.58122
  22747491.4034   -9748919.97446  -7465498.22061
 91  4 25 21 48  0.0010000  0  5G18G 2G11G19G 6
  24930020.0054   22129874.04945  17244032.17361
  21461970.067   -11988678.935 8  -9341784.26623
  24405651.302     3057374.981 6   2382365.99121
  22296493.872     7298538.851 6   5687170.46722
  22743099.4974   -9771998.45446  -7483481.39461
 91  4 25 21 48 15.0010000  0  4G 2G11G19G 6
  21460780.021   -11994938.221 8  -9346661.61623
  24413295.966     3097550.415 6   2413671.44921
  22301981.935     7327365.536 6   5709632.80322
  22738708.9584   -9795061.22746  -7501452.31161
 91  4 25 21 48 30.0010000  0  4G 2G11G19G 6
  21459601.849   -12001127.977 8  -9351484.78523
  24420961.591     3137836.992 6   2445063.51521
  22307482.200     7356252.061 6   5732141.76622
  22734323.9974   -9818111.75146  -7519413.68962
 91  4 25 21 48 45.0010000  0  4G 2G11G19G 6
  21458438.325   -12007246.961 8  -9356252.80623
  24428650.3564    3178235.38446   2476542.71161
  22312988.302     7385199.524 6   5754698.20722
  22729941.036    -9841148.886 6  -7537364.62521
 91  4 25 21 49  0.0010000  0  4G 2G11G19G 6
  21457284.552   -12013299.865 8  -9360969.33823
  24436358.614     3218740.782 6   2508105.28521
  22318503.849     7414203.406 6   5777298.61922
  22725559.0444   -9864177.09746  -7555308.61961
 91  4 25 21 49 15.0010000  0  4G 2G11G19G 6
  21456147.341   -12019283.693 8  -9365632.03923
  24444087.8174    3259356.07946   2539753.50161
  22324037.005     7443266.948 6   5799945.50622
  22721178.8174   -9887193.05246  -7573243.06061
 91  4 25 21 49 30.0010000  0  4G 2G11G19G 6
  21455022.856   -12025193.706 8  -9370237.22523
  24451837.372     3300085.620 6   2571490.73621
  22329578.669     7472394.962 6   5822642.64322
  22716801.692    -9910191.996 6  -7591164.25021
 91  4 25 21 49 45.0010000  0  4G 2G11G19G 6
  21453909.427   -12031035.021 8  -9374788.87923
  24459609.3964    3340923.96246   2603312.75161
  22335134.950     7501582.183 6   5845385.91222
  22712427.521    -9933179.013 6  -7609076.13321
 91  4 25 21 50  0.0010000  0  4G 2G11G19G 6
  21452812.130   -12036803.656 8  -9379283.89523
  24467398.7714    3381874.98146   2635222.57361
  22340698.692     7530832.812 6   5868178.59022
  22708056.208    -9956149.785 6  -7626975.36521
 91  4 25 21 50 15.0010000  0  4G 2G11G19G 6
  21451729.802   -12042498.521 8  -9383721.43523
  24475215.1924    3422939.66346   2667220.96161
  22346278.435     7560148.223 6   5891021.75122
  22703687.5054   -9979102.97647  -7644860.89761
 91  4 25 21 50 30.0010000  0  4G 2G11G19G 6
  21450658.817   -12048121.702 8  -9388103.11323
  24483051.497     3464115.646 6   2699306.05621
  22351869.153     7589526.406 6   5913913.82022
  22699323.794   -10002040.573 6  -7662734.27021
 91  4 25 21 50 45.0020000  0  4G 2G11G19G 6
  21449602.432   -12053672.098 8  -9392428.07923
  24490910.0644    3505406.78546   2731480.90261
  22357474.400     7618970.812 6   5936857.48422
  22694960.979   -10024962.539 6  -7680595.46222
 91  4 25 21 51  0.0020000  0  4G 2G11G19G 6
  21448560.947   -12059150.026 8  -9396696.57623
  24498786.1274    3546806.22146   2763740.12661
  22363086.393     7648476.382 6   5959848.81422
  22690601.697   -10047866.766 6  -7698442.83221
 91  4 25 21 51 15.0020000  0  4G 2G11G19G 6
  21447532.322   -12064557.121 8  -9400909.87623
  24506686.5644    3588315.24246   2796084.75361
  22368712.432     7678043.999 6   5982888.49322
  22686246.518   -10070755.777 6  -7716278.35221
 91  4 25 21 51 30.0020000  0  4G 2G11G19G 6
  21446516.760   -12069888.991 8  -9405064.56223
  24514608.7754    3629937.89046   2828517.92861
  22374354.018     7707678.289 6   6005980.12922
  22681894.033   -10093625.117 6  -7734098.53522
 91  4 25 21 51 45.0020000  0  4G 2G11G19G 6
  21445516.705   -12075148.121 8  -9409162.57123
  24522548.3854    3671671.64446   2861037.65461
  22380004.416     7737376.976 6   6029121.94222
  22677547.275   -10116476.894 6  -7751905.03721
 91  4 25 21 52  0.0020000  0  4G 2G11G19G 6
  21444529.650   -12080332.060 8  -9413201.98923
  24530512.025     3713518.656 6   2893645.64321
  22385670.033     7767142.516 6   6052315.84522
  22673201.924   -10139308.587 7  -7769695.88222
 91  4 25 21 52 15.0020000  0  4G 2G11G19G 6
  21443558.143   -12085441.204 8  -9417183.12123
  24538500.0644    3755478.15546   2926341.29861
  22391346.549     7796974.770 6   6075561.73422
  22668860.479   -10162120.399 7  -7787471.24221
 91  4 25 21 52 30.0020000  0  4G 2G11G19G 6
  21442597.260   -12090477.547 8  -9421107.52623
  24546499.3074    3797548.10246   2959123.01761
  22397032.658     7826871.876 6   6098858.16222
  22664522.729   -10184913.990 7  -7805232.41122
 91  4 25 21 52 45.0020000  0  4G 2G11G19G 6
  21441653.885   -12095442.915 8  -9424976.62823
  24554523.150     3839726.480 5   2991989.20621
  22402735.939     7856832.225 6   6122203.86422
  22660187.674   -10207691.182 7  -7822980.79722
 91  4 25 21 53  0.0020000  0  4G 2G11G19G 6
  21440724.041   -12100334.489 8  -9428788.22623
  24562576.471     3882015.703 6   3024941.76421
  22408448.814     7886858.521 6   6145600.96122
  22655855.385   -10230449.065 7  -7840714.13722
 91  4 25 21 53 15.0020000  0  4G 2G11G19G 6
  21439806.088   -12105155.296 8  -9432544.68223
  24570645.291     3924412.463 6   3057978.12321
  22414177.088     7916947.698 6   6169047.04522
  22651529.854   -10253190.405 6  -7858434.58122
 91  4 25 21 53 30.0020000  0  4G 2G11G19G 6
  21438901.541   -12109907.435 8  -9436247.63023
  24578730.010     3966914.439 6   3091096.46821
  22419913.236     7947097.769 6   6192540.58222
  22647205.893   -10275917.159 7  -7876143.66622
 91  4 25 21 53 45.0020000  0  4G 2G11G19G 6
  21438009.705   -12114589.541 8  -9439896.00823
  24586838.5644    4009522.85846   3124297.73261
  22425664.830     7977310.040 6   6216082.59122
  22642881.697   -10298627.813 6  -7893840.20622
 91  4 25 21 54  0.0020000  0  4G 2G11G19G 6
  21437134.260   -12119199.354 8  -9443488.05523
  24594969.3144    4052239.61846   3157583.43561
  22431427.314     8007586.986 6   6239674.99822
  22638563.166   -10321319.850 6  -7911522.23722
 91  4 25 21 54 15.0020000  0  4G 2G11G19G 6
  21436268.502   -12123740.253 8  -9447026.40423
  24603118.7684    4095061.20146   3190950.83561
  22437196.018     8037925.466 6   6263315.34522
  22634250.2684  -10343996.46246  -7929192.23662
 91  4 25 21 54 30.0020000  0  4G 2G11G19G 6
  21435418.471   -12128212.532 8  -9450511.28023
  24611287.088     4137986.989 6   3224399.42021
  22442981.689     8068325.182 6   6287003.41322
  22629937.689   -10366657.818 7  -7946850.35622
 91  4 25 21 54 45.0020000  0  4G 2G11G19G 6
  21434580.119   -12132619.369 8  -9453945.16323
  24619473.6584    4181013.45746   3257926.45061
  22448778.736     8098783.148 6   6310736.86922
  22625626.768   -10389306.857 6  -7964498.88522
 91  4 25 21 55  0.0020000  0  4G 2G11G19G 6
  21433753.244   -12136956.024 8  -9457324.35823
  24627682.096     4224145.057 6   3291535.40221
  22454585.432     8129304.017 6   6334519.34222
  22621317.869   -10411938.876 6  -7982134.14321
 91  4 25 21 55 15.0020000  0  4G 2G11G19G 6
  21432942.494   -12141227.839 8  -9460653.03123
  24635910.814     4267376.237 6   3325221.95821
  22460406.736     8159882.707 6   6358346.87022
  22617015.049   -10434558.760 6  -7999759.95322
 91  4 25 21 55 30.0020000  0  4G 2G11G19G 6
  21432140.908   -12145433.844 8  -9463930.42523
  24644156.1044    4310707.94446   3358986.83761
  22466233.736     8190520.586 6   6382220.52022
  22612714.3854  -10457165.26846  -8017375.34461
 91  4 25 21 55 45.0020000  0  4G 2G11G19G 6
  21431354.541   -12149570.292 8  -9467153.61623
  24652423.619     4354143.410 6   3392832.57121
  22472077.807     8221221.302 6   6406143.13522
  22608414.666   -10479754.661 6  -8034977.39821
 91  4 25 21 56  0.0020000  0  4G 2G11G19G 6
  21430581.002   -12153640.868 8  -9470325.47923
  24660701.7214    4397678.73246   3426756.12261
  22477929.939     8251981.192 6   6430111.85622
  22604117.7364  -10502330.42446  -8052568.82961
 91  4 25 21 56 15.0020000  0  4G 2G11G19G 6
  21429817.3074  -12157645.41148  -9473445.89163
  24669007.2754    4441314.08646   3460757.60861
  22483796.783     8282800.661 6   6454127.00422
  22599827.502   -10524892.126 7  -8070149.30522
 91  4 25 21 56 30.0020000  0  4G 2G11G19G 6
  21429066.986   -12161583.086 8  -9476514.19623
  24677333.744     4485049.898 6   3494837.37521
  22489672.908     8313680.577 6   6478189.25722
  22595535.0724  -10547438.74346  -8087718.03262
 91  4 25 21 56 45.0020000  0  4G 2G11G19G 6
  21428332.768   -12165447.399 8  -9479525.33523
  24685672.033     4528892.406 6   3529000.29621
  22495560.900     8344627.467 6   6502303.69922
  22591248.174   -10569963.736 6  -8105269.89722
 91  4 25 21 57  0.0020000  0  4G 2G11G19G 6
  21427609.260   -12169244.451 8  -9482484.05823
  24694033.533     4572835.329 5   3563241.46421
  22501462.283     8375635.476 6   6526465.75922
  22586966.3074  -10592472.78247  -8122809.34962
 91  4 25 21 57 15.0020000  0  4G 2G11G19G 6
  21426900.557   -12172971.782 8  -9485388.45823
  24702420.002     4616880.886 6   3597562.57921
  22507372.9794    8406707.02046   6550677.32862
  22582685.900   -10614963.500 6  -8140334.51222
 91  4 25 21 57 30.0020000  0  4G 2G11G19G 6
  21426203.447   -12176632.251 8  -9488240.75523
  24710821.814     4661025.775 6   3631961.12021
  22513298.924     8437839.327 6   6574936.24622
  22578407.674   -10637438.464 6  -8157847.39122
 91  4 25 21 57 45.0020000  0  4G 2G11G19G 6
  21425521.088   -12180223.244 8  -9491038.91523
  24719237.8694    4705272.32046   3666438.84561
  22519235.275     8469035.010 6   6599244.54122
  22574134.3614  -10659894.90247  -8175345.85162
 91  4 25 21 58  0.0020000  0  4G 2G11G19G 6
  21424850.189   -12183746.561 8  -9493784.34323
  24727678.4084    4749618.64646   3700994.33761
  22525181.549     8500292.544 6   6623601.04122
  22569864.4714  -10682334.28747  -8192831.01962
 91  4 25 21 58 15.0020000  0  4G 2G11G19G 6
  21424192.018   -12187205.583 8  -9496479.67023
  24736135.8544    4794061.01746   3735624.65861
  22531143.5494    8531608.68746   6648003.20862
  22565598.104   -10704759.868 7  -8210305.42522
 91  4 25 21 58 30.0020000  0  4G 2G11G19G 6
  21423547.479   -12190598.579 8  -9499123.54823
  24744610.963     4838600.774 6   3770330.87621
  22537113.432     8562985.036 6   6672452.29422
  22561332.518   -10727170.030 7  -8227767.81821
 91  4 25 21 58 45.0020000  0  4G 2G11G19G 6
  21422913.494   -12193926.245 8  -9501716.50923
  24753101.6744    4883237.18346   3805112.40161
  22543095.6194    8594421.27146   6696948.03562
  22557070.3694  -10749564.90647  -8245218.30562
 91  4 25 21 59  0.0020000  0  4G 2G11G19G 6
  21422293.018   -12197188.438 8  -9504258.47223
  24761614.127     4927970.090 6   3839969.12321
  22549089.494     8625917.521 6   6721490.54922
  22552814.2914  -10771944.16047  -8262656.61562
 91  4 25 21 59 15.0020000  0  4G 2G11G19G 6
  21421684.393   -12200384.485 8  -9506748.88223
  24770148.775     4972799.961 6   3874901.39321
  22555096.416     8657474.496 6   6746080.37922
  22548556.5104  -10794307.05347  -8280082.17962
 91  4 25 21 59 30.0020000  0  4G 2G11G19G 6
  21421089.064   -12203511.529 8  -9509185.52723
  24778695.4004    5017729.22346   3909911.11761
  22561113.330     8689095.289 6   6770719.93622
  22544305.0964  -10816650.50047  -8297492.58761
 91  4 25 21 59 45.0020000  0  4G 2G11G19G 6
  21420506.182   -12206573.668 8  -9511571.59623
  24787262.0334    5062753.71446   3944995.04361
  22567139.197     8720775.927 6   6795406.12522
  22540056.5024  -10838978.28847  -8314890.79862
 91  4 25 22  0  0.0020000  0  4G 2G11G19G 6
  21419936.518   -12209568.995 8  -9513905.60323
  24795853.424     5107875.034 6   3980154.42321
  22573180.1894    8752518.37646   6820140.47662
  22535812.2524  -10861288.44347  -8332275.27162
 91  4 25 22  0 15.0020000  0  4G 2G11G19G 6
  21419379.752   -12212499.018 8  -9516188.72423
  24804458.0104    5153091.31246   4015387.75861
  22579232.604     8784321.183 6   6844921.86322
  22531567.8224  -10883582.29247  -8349647.03362
 91  4 25 22  0 30.0020000  0  4G 2G11G19G 6
  21418834.643   -12215361.979 8  -9518419.59023
  24813085.0334    5198404.17846   4050696.39361
  22585293.104     8816186.152 6   6869751.68622
  22527330.0334  -10905857.66847  -8367004.40062
 91  4 25 22  0 45.0020000  0  4G 2G11G19G 6
  21418303.596   -12218151.642 8  -9520593.34023
  24821723.791     5243819.602 6   4086084.94821
  22591374.127     8848119.670 6   6894634.92522
  22523097.5024  -10928108.26447  -8384342.46162
 91  4 25 22  1  0.0020000  0  4G 2G11G19G 6
  21417784.049   -12220878.225 8  -9522717.93623
  24830378.244     5289327.109 6   4121545.24121
  22597463.330     8880111.699 6   6919563.75022
  22518862.5964  -10950344.09347  -8401669.02262
 91  4 25 22  1 15.0020000  0  4G 2G11G19G 6
  21417277.7684  -12223534.09848  -9524787.43863
  24839060.268     5334934.047 6   4157082.99621
  22603562.189     8912170.022 6   6944544.23722
  22514638.400   -10972557.227 7  -8418977.88622
 91  4 25 22  1 30.0020000  0  4G 2G11G19G 6
  21416785.150   -12226121.668 8  -9526803.71423
  24847759.6354    5380637.69246   4192696.13461
  22609671.314     8944292.154 6   6969574.44522
  22510412.8464  -10994750.05147  -8436270.93262
 91  4 25 22  1 45.0020000  0  4G 2G11G19G 6
  21416307.205   -12228644.220 8  -9528769.32723
  24856468.9864    5426434.44846   4228381.81961
  22615797.877     8976474.955 6   6994651.93322
  22506194.1974  -11016925.57747  -8453550.49662
 91  4 25 22  2  0.0020000  0  4G 2G11G19G 6
  21415839.346   -12231100.397 8  -9530683.21523
  24865207.432     5472325.373 6   4264140.87621
  22621932.041     9008719.735 6   7019777.71122
  22501977.1504  -11039082.34847  -8470815.44762
 91  4 25 22  2 15.0020000  0  4G 2G11G19G 6
  21415383.627   -12233490.796 8  -9532545.85123
  24873957.6114    5518309.75346   4299972.76161
  22628082.3144    9041026.07546   7044951.45862
  22497763.4944  -11061220.70247  -8488066.04462
 91  4 25 22  2 30.0020000  0  4G 2G11G19G 6
  21414940.650   -12235817.200 8  -9534358.61723
  24882719.494     5564385.525 5   4335875.86921
  22634239.510     9073392.429 6   7070171.96422
  22493556.3774  -11083342.01247  -8505303.35662
 91  4 25 22  2 45.0020000  0  4G 2G11G19G 6
  21414511.361   -12238074.626 8  -9536117.63823
  24891510.252     5610557.422 6   4371853.85121
  22640414.4004    9105823.98646   7095443.28262
  22489350.8694  -11105441.25747  -8522523.48062
 91  4 25 22  3  0.0020000  0  4G 2G11G19G 6
  21414094.572   -12240265.820 8  -9537825.04423
  24900315.6354    5656822.37145   4407904.36061
  22646594.166     9138317.925 6   7120763.21822
  22485148.322   -11127520.934 7  -8539728.34822
 91  4 25 22  3 15.0020000  0  4G 2G11G19G 6
  21413690.643   -12242388.646 8  -9539479.18523
  24909136.7834    5703182.35945   4444028.91561
  22652792.275     9170876.562 6   7146133.56122
  22480951.1274  -11149578.62247  -8556916.09962
 91  4 25 22  3 30.0020000  0  4G 2G11G19G 6
  21413298.7994  -12244448.85648  -9541084.53163
  24917972.4794    5749631.33045   4480222.82361
  22658996.377     9203494.123 6   7171549.82122
  22476754.7914  -11171619.90547  -8574091.05662
 91  4 25 22  3 45.0020000  0  4G 2G11G19G 6
  21412921.236   -12246441.918 8  -9542637.55223
  24926833.127     5796173.542 5   4516489.37121
  22665218.9244    9236175.18146   7197015.54762
  22472568.3694  -11193640.15947  -8591249.63462
 91  4 25 22  4  0.0020000  0  4G 2G11G19G 6
  21412554.260   -12248364.106 8  -9544135.34723
  24935708.135     5842812.497 5   4552831.30621
  22671447.6194    9268923.66646   7222533.81862
  22468383.2054  -11215635.32447  -8608388.66162
 91  4 25 22  4 15.0020000  0  4G 2G11G19G 6
  21412202.330   -12250217.419 8  -9545579.47523
  24944600.6824    5889545.85345   4589246.81061
  22677694.4394    9301737.74746   7248103.20262
  22464198.8384  -11237607.06147  -8625509.43462
 91  4 25 22  4 30.0020000  0  4G 2G11G19G 6
  21411861.494   -12252004.407 8  -9546971.91723
  24953508.7364    5936370.56545   4625733.51061
  22683949.3304    9334614.91046   7273721.73662
  22460022.4554  -11259558.13747  -8642614.09962
 91  4 25 22  4 45.0020000  0  4G 2G11G19G 6
  21411532.9394  -12253725.85748  -9548313.29763
  24962439.189     5983285.848 5   4662290.76021
  22690217.1824    9367554.41346   7299388.85862
  22455848.1894  -11281488.80247  -8659702.86962
 91  4 25 22  5  0.0020000  0  4G 2G11G19G 6
  21411219.354   -12255377.882 8  -9549600.57223
  24971381.1664    6030295.48645   4698921.55161
  22696496.6894    9400560.27046   7325107.67862
  22451679.893   -11303394.958 7  -8676772.53222
 91  4 25 22  5 15.0020000  0  4G 2G11G19G 6
  21410919.213   -12256958.911 8  -9550832.52923
  24980346.6044    6077400.60545   4735626.74961
  22702794.1974    9433634.08246   7350879.45362
  22447515.8544  -11325274.82247  -8693821.70962
 91  4 25 22  5 30.0020000  0  4G 2G11G19G 6
  21410631.2054  -12258474.83548  -9552013.75663
  24989327.0414    6124595.09245   4772401.57861
  22709095.8614    9466770.23746   7376699.80262
  22443357.8854  -11347133.99047  -8710854.76662
 91  4 25 22  5 45.0020000  0  4G 2G11G19G 6
  21410353.322   -12259921.471 8  -9553140.98823
  24998327.9244    6171882.75746   4809249.01261
  22715418.3384    9499972.89846   7402571.97362
  22439201.5574  -11368968.19947  -8727868.37562
 91  4 25 22  6  0.0020000  0  4G 2G11G19G 6
  21410091.5804  -12261300.55648  -9554215.58963
  25007342.4324    6219261.64445   4846167.53461
  22721745.3774    9533240.26946   7428494.57462
  22435051.4794  -11390779.05247  -8744863.78062
 91  4 25 22  6 15.0020000  0  4G 2G11G19G 6
  21409843.643   -12262609.356 8  -9555235.42123
  25016376.330     6266734.299 5   4883159.11821
  22728092.080     9566575.293 6   7454469.89122
  22430904.635   -11412563.557 7  -8761838.66522
 91  4 25 22  6 30.0020000  0  4G 2G11G19G 6
  21409605.666   -12263853.522 8  -9556204.88523
  25025427.2914    6314294.79345   4920219.14861
  22734446.5724    9599972.59846   7480493.73262
  22426766.229   -11434326.919 7  -8778797.07722
 91  4 25 22  6 45.0020000  0  4G 2G11G19G 6
  21409381.8304  -12265035.06348  -9557125.55663
  25034490.760     6361940.670 5   4957345.69821
  22740815.189     9633430.183 6   7506564.55122
  22422626.377   -11456071.133 7  -8795740.56322
 91  4 25 22  7  0.0020000  0  4G 2G11G19G 6
  21409168.666   -12266150.242 8  -9557994.51523
  25043579.8464    6409675.65745   4994541.71761
  22747191.8854    9666951.92746   7532685.36362
  22418493.268   -11477792.121 7  -8812665.95522
 91  4 25 22  7 15.0020000  0  4G 2G11G19G 6
  21408970.783   -12267196.734 8  -9558809.95123
  25052678.6894    6457501.69146   5031808.63961
  22753587.158     9700540.192 6   7558858.01622
  22414367.2754  -11499487.36947  -8829571.28162
 91  4 25 22  7 30.0020000  0  4G 2G11G19G 6
  21408785.229   -12268174.193 8  -9559571.59423
  25061796.1744    6505418.87745   5069146.60961
  22759990.6664    9734195.32546   7585082.76662
  22410240.1504  -11521156.26147  -8846456.07962
 91  4 25 22  7 45.0020000  0  4G 2G11G19G 6
  21408611.025   -12269081.075 8  -9560278.24123
  25070936.205     6553428.323 5   5106556.46921
  22766407.2914    9767918.93646   7611360.87962
  22406123.768   -11542797.225 7  -8863319.10922
 91  4 25 22  8  0.0020000  0  4G 2G11G19G 6
  21408452.7914  -12269920.98448  -9560932.70363
  25080086.3934    6601526.42045   5144035.39761
  22772835.0334    9801707.75146   7637689.78662
  22402010.494   -11564413.418 7  -8880162.84622
 91  4 25 22  8 15.0020000  0  4G 2G11G19G 6
  21408303.236   -12270695.171 8  -9561535.95223
  25089256.5334    6649711.45745   5181582.05461
  22779276.877     9835560.415 6   7664068.45722
  22397900.525   -11586006.023 7  -8896988.20122
 91  4 25 22  8 30.0020000  0  4G 2G11G19G 6
  21408170.174   -12271404.312 8  -9562088.51723
  25098441.643     6697982.374 5   5219195.65521
  22785731.7214    9869476.16446   7690496.28362
  22393793.9004  -11607575.58247  -8913795.59362
 91  4 25 22  8 45.0020000  0  4G 2G11G19G 6
  21408047.807   -12272043.091 8  -9562586.25423
  25107637.088     6746344.201 5   5256880.07621
  22792200.3614    9903460.64646   7716977.67262
  22389698.955   -11629116.466 7  -8930580.64622
 91  4 25 22  9  0.0020000  0  4G 2G11G19G 6
  21407941.502   -12272612.930 8  -9563030.27023
  25116863.525     6794795.483 5   5294634.20321
  22798678.3614    9937512.43646   7743511.50562
  22385601.783   -11650629.784 7  -8947344.22822
 91  4 25 22  9 15.0020000  0  4G 2G11G19G 6
  21407843.611   -12273113.017 8  -9563419.93523
  25126098.9554    6843336.70945   5332458.41161
  22805171.541     9971632.488 6   7770098.52922
  22381513.8694  -11672114.64847  -8964085.62362
 91  4 25 22  9 30.0020000  0  4G 2G11G19G 6
  21407763.604   -12273546.413 8  -9563757.63423
  25135355.924     6891964.558 5   5370350.13821
  22811674.3854   10005817.87146   7796736.46262
  22377429.6974  -11693573.67847  -8980806.90262
 91  4 25 22  9 45.0020000  0  4G 2G11G19G 6
  21407693.7994  -12273910.34048  -9564041.20963
  25144620.9394    6940681.56444   5408311.32061
  22818194.705    10040071.473 6   7823427.56022
  22373351.447   -11715003.838 7  -8997505.68122
 91  4 25 22 10  0.0020000  0  3G 2G19G 6
  21407634.479   -12274209.488 8  -9564274.28923
  22824725.939    10074388.670 6   7850168.20422
  22369280.330   -11736409.792 7  -9014185.59322
 91  4 25 22 10 15.0020000  0  3G 2G19G 6
  21407591.416   -12274440.541 8  -9564454.31723
  22831272.1194   10108772.78146   7876960.99362
  22365212.150   -11757787.906 7  -9030843.82022
 91  4 25 22 10 30.0020000  0  3G 2G19G 6
  21407559.830   -12274603.299 8
  22837819.9244   10143224.11746   7903806.16162
  22361147.455   -11779137.599 7  -9047479.90422
 91  4 25 22 10 45.0020000  0  3G 2G19G 6
  21407543.619   -12274698.994 8
  22844393.0184   10177741.51946   7930702.81162
  22357090.291   -11800460.097 7  -9064094.78422
 91  4 25 22 11  0.0020000  0  3G 2G19G 6
  21407539.291   -12274730.981 8
  22850970.8774   10212321.82746   7957648.47962
  22353037.158   -11821758.398 7  -9080690.81522
 91  4 25 22 11 15.0020000  0  3G 2G19G 6
  21407545.080   -12274699.150 8
  22857565.6894   10246965.18346   7984643.27162
  22348989.088   -11843032.190 7  -9097267.75122
 91  4 25 22 11 30.0020000  0  3G 2G19G 6
  21407559.635   -12274604.339 8
  22864167.1974   10281670.88246   8011686.64262
  22344946.463   -11864282.131 7  -9113826.09722
 91  4 25 22 11 45.0020000  0  3G 2G19G 6
  21407587.9164  -12274447.86248
  22870785.346    10316437.794 6   8038777.71722
  22340906.4004  -11885509.12747  -9130366.57462
 91  4 25 22 12  0.0020000  0  3G 2G19G 6
  21407630.010   -12274226.239 8
  22877414.5024   10351269.49546   8065919.27262
  22336873.424   -11906709.699 7  -9146886.45722
 91  4 25 22 12 15.0020000  0  3G 2G19G 6
  21407689.338   -12273939.210 8  -9564063.57223
  22884054.0574   10386165.99046   8093111.31462
  22332841.463   -11927883.223 7  -9163385.25922
 91  4 25 22 12 30.0020000  0  3G 2G19G 6
  21407754.6274  -12273590.56148  -9563791.88963
  22890706.604    10421123.762 6   8120351.11622
  22328818.150   -11949033.306 7  -9179865.79522
 91  4 25 22 12 45.0020000  0  3G 2G19G 6
  21407834.0334  -12273179.57748  -9563471.63663
  22897371.2604   10456143.56546   8147639.24162
  22324798.291   -11970158.902 7  -9196327.24722
 91  4 25 22 13  0.0020000  0  3G 2G19G 6
  21407920.354   -12272704.556 8  -9563101.47823
  22904044.8694   10491227.24446   8174977.14362
  22320783.494   -11991258.155 7  -9212768.17322
 91  4 25 22 13 15.0020000  0  3G 2G19G 6
  21408024.9084  -12272167.87748  -9562683.27963
  22910735.189    10526372.475 6   8202363.00922
  22316772.471   -12012333.231 7  -9229190.25922
 91  4 25 22 13 30.0020000  0  3G 2G19G 6
  21408137.9244  -12271567.77748  -9562215.65663
  22917435.2134   10561581.32446   8229798.44562
  22312767.3144  -12033382.07247  -9245591.89562
 91  4 25 22 13 45.0020000  0  3G 2G19G 6
  21408265.8144  -12270902.25448  -9561697.06063
  22924149.205    10596855.669 6   8257284.92422
  22308767.182   -12054402.411 7  -9261971.34022
 91  4 25 22 14  0.0020000  0  3G 2G19G 6
  21408402.5644  -12270174.88048  -9561130.26763
  22930872.0104   10632192.06946   8284819.75262
  22304772.111   -12075397.544 7  -9278331.12122
 91  4 25 22 14 15.0020000  0  3G 2G19G 6
  21408552.3774  -12269382.23548  -9560512.61363
  22937610.7834   10667593.80946   8312405.49162
  22300781.479   -12096363.918 7  -9294668.50222
 91  4 25 22 14 30.0020000  0  3G 2G19G 6
  21408715.5724  -12268532.23548  -9559850.27163
  22944352.5574   10703053.55546   8340036.43362
  22296795.908   -12117308.956 7  -9310989.26922
 91  4 25 22 14 45.0020000  0  3G 2G19G 6
  21408890.5494  -12267621.81348  -9559140.84463
  22951115.9944   10738574.20646   8367714.83462
  22292815.752   -12138229.732 7  -9327291.11922
 91  4 25 22 15  0.0020000  0  3G 2G19G 6
  21409076.5024  -12266648.05048  -9558382.06163
  22957887.1744   10774158.60246   8395442.90762
  22288840.346   -12159122.860 7  -9343571.42322
 91  4 25 22 15 15.0020000  0  3G 2G19G 6
  21409271.1274  -12265607.51248  -9557571.24763
  22964673.1974   10809810.46646   8423223.54562
  22284868.783   -12179984.533 7  -9359827.22022
 91  4 25 22 15 30.0020000  0  3G 2G19G 6
  21409482.525   -12264503.928 8  -9556711.29823
  22971466.7914   10845526.07346   8451053.85062
  22280905.947   -12200818.433 7  -9376061.37422
 91  4 25 22 15 45.0020000  0  3G 2G19G 6
  21409705.0644  -12263337.94548  -9555802.72963
  22978277.5024   10881304.82346   8478933.36861
  22276943.221   -12221624.985 7  -9392274.21822
 91  4 25 22 16  0.0020000  0  3G 2G19G 6
  21409935.9394  -12262111.68748  -9554847.19863
  22985093.1504   10917144.55646   8506860.40162
  22272990.7294  -12242405.98247  -9408467.14062
 91  4 25 22 16 15.0020000  0  3G 2G19G 6
  21410182.9164  -12260819.71048  -9553840.45663
  22991928.7054   10953050.64346   8534839.13862
  22269042.494   -12263155.834 7  -9424635.80622
 91  4 25 22 16 30.0020000  0  3G 2G19G 6
  21410441.5334  -12259465.46048  -9552785.18763
  22998772.7364   10989020.19946   8562867.33462
  22265098.260   -12283877.545 7  -9440782.53722
 91  4 25 22 16 45.0020000  0  3G 2G19G 6
  21410709.9714  -12258049.42348  -9551681.77463
  23005632.8384   11025052.53746   8590944.44862
  22261161.3614  -12304571.59247  -9456907.70762
 91  4 25 22 17  0.0020000  0  3G 2G19G 6
  21410990.9244  -12256573.04148  -9550531.33863
  23012498.3304   11061146.20746   8619069.34962
  22257227.838   -12325239.129 7  -9473012.22822
 91  4 25 22 17 15.0020000  0  3G 2G19G 6
  21411284.4394  -12255034.94648  -9549332.81563
  23019380.6664   11097302.81646   8647243.30662
  22253299.2294  -12345878.43147  -9489094.74462
 91  4 25 22 17 30.0020000  0  3G 2G19G 6
  21411587.9004  -12253437.91748  -9548088.36663
  23026271.1744   11133519.73746   8675464.24561
  22249379.1894  -12366492.03447  -9505157.23562
 91  4 25 22 17 45.0020000  0  3G 2G19G 6
  21411902.7444  -12251786.58948  -9546801.60963
  23033175.158    11169792.277 6   8703728.54122
  22245459.658   -12387084.269 7  -9521203.07722
 91  4 25 22 18  0.0020000  0  3G 2G19G 6
  21412227.6744  -12250080.94448  -9545472.52863
  23040085.4244   11206120.64646   8732036.32862
  22241544.3144  -12407655.00447  -9537232.16462
 91  4 25 22 18 15.0020000  0  3G 2G19G 6
  21412563.5724  -12248315.39748  -9544096.76963
  23047011.229    11242510.526 6   8760392.04822
  22237635.299   -12428198.175 7  -9553239.77222
 91  4 25 22 18 30.0020000  0  3G 2G19G 6
  21412909.9244  -12246490.01248  -9542674.38363
  23053949.0334   11278961.84146   8788795.63862
  22233731.2524  -12448713.76747  -9569225.89362
 91  4 25 22 18 45.0020000  0  3G 2G19G 6
  21413269.1044  -12244605.74748  -9541206.11663
  23060897.682    11315473.645 6   8817246.36621
  22229833.439   -12469202.480 7  -9585191.06322
 91  4 25 22 19  0.0020000  0  3G 2G19G 6
  21413639.4474  -12242661.18248  -9539690.86663
  23067855.9714   11352047.55746   8845745.48361
  22225939.244   -12489662.557 7  -9601133.93322
 91  4 25 22 19 15.0020000  0  3G 2G19G 6
  21414019.275   -12240657.900 8  -9538129.85623
  23074829.7604   11388681.85046   8874291.65362
  22222050.4394  -12510095.38947  -9617055.55862
 91  4 25 22 19 30.0020000  0  3G 2G19G 6
  21414413.041   -12238592.192 8  -9536520.20123
  23081809.6504   11425380.32846   8902887.83561
  22218169.0644  -12530497.18447  -9632953.01762
 91  4 25 22 19 45.0020000  0  3G 2G19G 6
  21414818.346   -12236464.874 8  -9534862.53923
  23088808.8074   11462142.42546   8931533.59461
  22214291.744   -12550868.267 7  -9648826.53922
 91  4 25 22 20  0.0020000  0  3G 2G19G 6
  21415235.1824  -12234278.18248  -9533158.61363
  23095815.0184   11498965.97246   8960227.23961
  22210422.494   -12571210.700 7  -9664677.72922
 91  4 25 22 20 15.0020000  0  3G 2G19G 6
  21415660.3694  -12232035.98448  -9531411.43664
  23102833.8074   11535847.27646   8988965.88162
  22206553.697   -12591528.020 7  -9680509.35722
 91  4 25 22 20 30.0020000  0  3G 2G19G 6
  21416099.244   -12229733.194 8  -9529617.04123
  23109860.9714   11572791.49846   9017753.55561
  22202693.447   -12611814.976 7  -9696317.32222
 91  4 25 22 20 45.0020000  0  3G 2G19G 6
  21416548.650   -12227371.456 8  -9527776.71523
  23116901.0964   11609796.74846   9046588.78261
  22198838.236   -12632072.952 7  -9712102.70922
 91  4 25 22 21  0.0020000  0  3G 2G19G 6
  21417009.3144  -12224949.17848  -9525889.21363
  23123959.3304   11646864.74546   9075472.90061
  22194989.807   -12652300.190 7  -9727864.14222
 91  4 25 22 21 15.0020000  0  3G 2G19G 6
  21417482.557   -12222468.970 8  -9523956.57423
  23131025.0334   11683993.29246   9104404.19861
  22191145.322   -12672498.697 7  -9743603.19422
 91  4 25 22 21 30.0020000  0  3G 2G19G 6
  21417966.3304  -12219926.72248  -9521975.59464
  23138101.0884   11721186.25146   9133385.69461
  22187308.072   -12692664.440 7  -9759316.71122
 91  4 25 22 21 45.0020000  0  3G 2G19G 6
  21418459.7294  -12217327.20548  -9519949.98663
  23145191.6504   11758438.92146   9162413.71361
  22183476.572   -12712802.008 7  -9775008.27022
 91  4 25 22 22  0.0020000  0  3G 2G19G 6
  21418966.2684  -12214667.46748  -9517877.45363
  23152290.8694   11795754.49946   9191490.74961
  22179651.627   -12732907.866 7  -9790675.12422
 91  4 25 22 22 15.0020000  0  3G 2G19G 6
  21419481.4634  -12211950.25348  -9515760.13563
  23159402.4394   11833130.24446   9220614.67261
  22175830.393   -12752984.496 7  -9806319.20323
 91  4 25 22 22 30.0020000  0  3G 2G19G 6
  21420011.385   -12209177.391 8  -9513599.45323
  23166526.8854   11870564.38346   9249784.09161
  22172015.049   -12773033.656 7  -9821941.87822
 91  4 25 22 22 45.0020000  0  3G 2G19G 6
  21420549.4794  -12206344.96848  -9511392.35863
  23173659.9394   11908060.78746   9279002.03761
  22168204.8074  -12793051.04347  -9837539.81562
 91  4 25 22 23  0.0020000  0  3G 2G19G 6
  21421100.5574  -12203453.23748  -9509139.05364
  23180807.7294   11945619.40646   9308268.45661
  22164400.783   -12813036.808 7  -9853113.08022
 91  4 25 22 23 15.0020000  0  3G 2G19G 6
  21421660.5104  -12200504.04348  -9506840.97064
  23187972.0724   11983238.51046   9337581.99961
  22160605.5334  -12832992.45647  -9868662.89762
 91  4 25 22 23 30.0020000  0  3G 2G19G 6
  21422232.338   -12197498.022 8  -9504498.60423
  23195138.861    12020917.372 6   9366942.10921
  22156812.330   -12852918.318 7  -9884189.48922
 91  4 25 22 23 45.0020000  0  3G 2G19G 6
  21422816.643   -12194432.382 8  -9502109.78324
  23202318.5574   12058658.87946   9396351.03461
  22153028.1354  -12872811.28347  -9899690.47063
 91  4 25 22 24  0.0020000  0  3G 2G19G 6
  21423409.736   -12191307.757 8  -9499674.99823
  23209512.1274   12096462.55646   9425808.41061
  22149249.314   -12892671.816 7  -9915166.16323
 91  4 25 22 24 15.0020000  0  4G13G 2G19G 6
  24689720.4164     -55227.20644
  21424015.463   -12188126.496 8  -9497196.08024
  23216720.8144   12134326.19146   9455312.50461
  22145474.7134  -12912501.79247  -9930618.05263
 91  4 25 22 24 30.0020000  0  4G13G 2G19G 6
  24679208.8694    -110430.78444
  21424632.268   -12184887.252 8  -9494671.98223
  23223935.791    12172251.104 6   9484864.33821
  22141706.0024  -12932299.88647  -9946045.09763
 91  4 25 22 24 45.0020000  0  4G13G 2G19G 6
  24668706.518     -165615.226 4
  21425258.822   -12181594.292 8  -9492106.02524
  23231165.5024   12210232.88746   9514460.49861
  22137943.244   -12952070.051 7  -9961450.37223
 91  4 25 22 25  0.0020000  0  4G13G 2G19G 6
  24658212.760     -220776.824 4
  21425896.486   -12178244.284 8  -9489495.61524
  23238401.385    12248275.077 6   9544103.72421
  22134188.4554  -12971808.59447  -9976831.01563
 91  4 25 22 25 15.0020000  0  4G13G 2G19G 6
  24647720.119     -275914.951 4        -0.31731
  21426545.518   -12174837.248 8  -9486840.77124
  23245653.049    12286377.718 6   9573794.05021
  22130437.971   -12991515.398 7  -9992186.92423
 91  4 25 22 25 30.0020000  0  4G13G 2G19G 6
  24637234.4474    -331026.74744    -42944.36261
  21427204.666   -12171370.828 8  -9484139.65224
  23252914.1114   12324543.22646   9603533.37261
  22126694.564   -13011187.601 7 -10007515.86223
 91  4 25 22 25 45.0020000  0  4G13G 2G19G 6
  24626753.1114    -386115.50144    -85870.54361
  21427873.5104  -12167848.65948  -9481395.10063
  23260191.6824   12362768.17446   9633319.01461
  22122958.2294  -13030828.71847 -10022820.59563
 91  4 25 22 26  0.0020000  0  4G13G 2G19G 6
  24616275.971     -441182.066 5   -128779.38321
  21428555.502   -12164271.935 8  -9478608.02923
  23267477.0884   12401051.17646   9663149.88361
  22119225.3774  -13050439.75347 -10038101.87863
 91  4 25 22 26 15.0020000  0  4G13G 2G19G 6
  24605799.229     -496223.121 4   -171668.38121
  21429246.7524  -12160638.03448  -9475776.40864
  23274773.8224   12439395.10246   9693028.22361
  22115500.236   -13070017.678 7 -10053357.35823
 91  4 25 22 26 30.0020000  0  4G13G 2G19G 6
  24595329.541     -551237.090 4   -214536.22721
  21429951.002   -12156945.708 8  -9472899.25923
  23282080.2994   12477801.36146   9722955.14961
  22111782.455   -13089560.928 7 -10068585.81523
 91  4 25 22 26 45.0020000  0  4G13G 2G19G 6
  24584868.4944    -606223.47444   -257382.61961
  21430663.4714  -12153194.88048  -9469976.52764
  23289402.7604   12516269.95746   9752930.63961
  22108069.4084  -13109069.21747 -10083787.04263
 91  4 25 22 27  0.0020000  0  4G13G 2G19G 6
  24574403.6894    -661182.70244   -300207.81761
  21431389.400   -12149386.350 8  -9467008.83024
  23296730.830    12554800.139 6   9782954.11621
  22104361.814   -13128543.103 7 -10098961.45023
 91  4 25 22 27 15.0020000  0  4G13G 2G19G 6
  24563952.064     -716111.413 5   -343009.27321
  21432125.1974  -12145517.18548  -9463993.88264
  23304077.5494   12593394.74946   9813027.80361
  22100664.268   -13147979.347 7 -10114106.53023
 91  4 25 22 27 30.0020000  0  4G13G 2G19G 6
  24553505.393     -771012.801 4   -385789.43121
  21432872.080   -12141591.246 8  -9460934.70424
  23311429.588    12632049.882 6   9843148.64521
  22096972.533   -13167381.763 7 -10129225.25423
 91  4 25 22 27 45.0020000  0  4G13G 2G19G 6
  24543060.9864    -825884.77144   -428546.67361
  21433630.127   -12137607.171 8  -9457830.21723
  23318800.9944   12670767.30446   9873318.03461
  22093287.510   -13186748.467 7 -10144316.14523
 91  4 25 22 28  0.0020000  0  4G13G 2G19G 6
  24532628.619     -880724.439 5   -471278.72721
  21434399.783   -12133562.294 8  -9454678.35424
  23326179.7364   12709549.64646   9903538.00261
  22089610.010   -13206076.540 7 -10159376.94023
 91  4 25 22 28 15.0020000  0  4G13G 2G19G 6
  24522202.049     -935529.752 5   -513984.02021
  21435180.3224  -12129454.95048  -9451477.81663
  23333575.791    12748398.507 6   9933809.80121
  22085938.010   -13225364.142 7 -10174406.19823
 91  4 25 22 28 30.0020000  0  4G13G 2G19G 6
  24511779.7914    -990297.66345   -556660.16161
  21435973.3544  -12125282.61648  -9448226.63664
  23340977.9164   12787316.52446   9964135.49161
  22082276.494   -13244608.391 7 -10189401.67123
 91  4 25 22 28 45.0020000  0  4G13G 2G19G 6
  24501361.0964   -1045028.48445   -599307.43261
  21436781.705   -12121046.116 8  -9444925.45924
  23348396.8464   12826303.11446   9994514.61561
  22078622.877   -13263809.818 7 -10204363.77623
 91  4 25 22 29  0.0020000  0  4G13G 2G19G 6
  24490956.705    -1099721.359 5   -641925.09721
  21437599.416   -12116745.277 8  -9441574.14624
  23355828.6974   12865358.38646  10024947.25861
  22074977.955   -13282968.024 7 -10219292.20323
 91  4 25 22 29 15.0020000  0  4G13G 2G19G 6
  24480554.119    -1154375.989 5   -684512.97121
  21438429.4864  -12112380.13248  -9438172.72664
  23363277.2524   12904482.31546  10055433.39561
  22071340.752   -13302082.426 7 -10234186.49323
 91  4 25 22 29 30.0020000  0  4G13G 2G19G 6
  24470162.8774   -1208991.52345   -727070.39061
  21439272.9004  -12107950.17948  -9434720.80464
  23370732.768    12943675.225 6  10085973.27921
  22067709.307   -13321152.670 7 -10249046.37423
 91  4 25 22 29 45.0020000  0  4G13G 2G19G 6
  24459777.721    -1263569.214 5   -769598.32121
  21440129.4394  -12103456.92748  -9431219.56064
  23378206.455    12982935.887 6  10116565.95721
  22064090.111   -13340179.987 7 -10263872.80923
 91  4 25 22 30  0.0020000  0  4G13G 2G19G 6
  24449398.1114   -1318111.03245   -812098.28061
  21440994.0024  -12098903.20648  -9427671.20664
  23385688.088    13022261.453 6  10147209.21421
  22060476.096   -13359166.854 7 -10278667.72723
 91  4 25 22 30 15.0020000  0  4G13G 2G19G 6
  24439025.557    -1372615.462 5   -854569.12121
  21441872.408   -12094287.994 8  -9424074.92324
  23393184.9244   13061653.16946  10177904.01061
  22056871.119   -13378112.003 7 -10293430.13723
 91  4 25 22 30 30.0020000  0  4G13G 2G19G 6
  24428663.1434   -1427081.42745   -897010.00361
  21442763.1974  -12089610.53848  -9420430.14264
  23400690.869    13101111.849 6  10208650.99521
  22053274.033   -13397014.358 7 -10308159.19523
 91  4 25 22 30 45.0020000  0  5G13G 2G15G19G 6
  24418300.2754   -1481512.91845   -939424.01161
  21443664.5184  -12084875.27648  -9416740.31964
  24903426.2054         -0.73055
  23408217.5644   13140633.06646  10239446.71161
  22049683.5024  -13415877.99547 -10322858.09063
 91  4 25 22 31  0.0020000  0  5G13G 2G15G19G 6
  24407952.510    -1535905.151 5   -981807.41621
  21444576.9244  -12080077.84348  -9413002.05664
  24900059.6894     -17658.67445
  23415743.7294   13180221.29346  10270294.64461
  22046103.486   -13434698.146 7 -10337523.09523
 91  4 25 22 31 15.0020000  0  5G13G 2G15G19G 6
  24397613.533    -1590259.592 5  -1024161.40521
  21445501.5104  -12075220.49748  -9409217.10164
  24896723.4474     -35220.84645
  23423293.4944   13219874.09746  10301192.90261
  22042529.479   -13453477.013 7 -10352155.93723
 91  4 25 22 31 30.0020000  0  5G13G 2G15G19G 6
  24387274.2754   -1644575.07245  -1066484.96061
  21446437.041   -12070302.370 8  -9405384.78524
  24893396.924      -52686.248 5
  23430854.8384   13259592.46146  10332142.24461
  22038963.697   -13472213.327 7 -10366755.61423
 91  4 25 22 31 45.0020000  0  5G13G 2G15G19G 6
  24376944.393    -1698852.222 5  -1108778.74521
  21447384.7524  -12065324.24548  -9401505.72164
  24890096.2994     -70055.44645
  23438422.5724   13299375.58046  10363142.03361
  22035406.111   -13490907.818 7 -10381322.70623
 91  4 25 22 32  0.0020000  0  5G13G 2G15G19G 6
  24366627.760    -1753083.161 5  -1151036.44621
  21448345.5724  -12060278.89248  -9397574.27364
  24886805.119      -87320.560 5        -0.23231
  23446005.5254   13339230.68246  10394197.92261
  22031857.1824  -13509552.92247 -10395851.31863
 91  4 25 22 32 15.0020000  0  5G13G 2G15G19G 6
  24356312.1274   -1807270.70545  -1193260.37361
  21449316.5184  -12055169.66648  -9393593.05064
  24883542.611     -104484.380 5    -13374.61321
  23453602.3144   13379154.76445  10425307.55461
  22028320.080   -13528151.590 7 -10410343.74023
 91  4 25 22 32 30.0020000  0  5G13G 2G15G19G 6
  24346004.8074   -1861413.47045  -1235449.41561
  21450302.4944  -12049995.65948  -9389561.34864
  24880291.932     -121545.508 5    -26668.98921
  23461215.3224   13419148.67545  10456471.61061
  22024789.830   -13546702.545 7 -10424798.99023
 91  4 25 22 32 45.0020000  0  5G13G 2G15G19G 6
  24335715.4554   -1915512.93845  -1277604.68661
  21451298.6744  -12044758.83348  -9385480.70064
  24877066.5724    -138505.94445    -39884.90761
  23468836.2754   13459210.32545  10487688.44261
  22021268.2524  -13565207.59547 -10439218.47163
 91  4 25 22 33  0.0020000  0  5G13G 2G15G19G 6
  24325427.799    -1969572.299 5  -1319728.67621
  21452305.5334  -12039462.63848  -9381353.78664
  24873859.3074    -155368.66045    -53024.68961
  23476474.689    13499336.306 6  10518955.41421
  22017754.5494  -13583670.04447 -10453604.75263
 91  4 25 22 33 15.0020000  0  5G13G 2G15G19G 6
  24315145.9084   -2023592.19645  -1361821.99161
  21453326.2444  -12034108.45548  -9377181.68964
  24870668.018     -172134.439 5    -66088.90021
  23484120.2214   13539525.33845  10550271.50861
  22014249.064   -13602090.875 7 -10467958.60323
 91  4 25 22 33 30.0020000  0  5G13G 2G15G19G 6
  24304873.8544   -2077566.37745  -1403879.65261
  21454355.9324  -12028690.27948  -9372959.72764
  24867497.518     -188796.843 5    -79072.55121
  23491780.4394   13579783.43145  10581641.41161
  22010751.8384  -13620463.89447 -10482275.20663
 91  4 25 22 33 45.0020000  0  5G13G 2G15G19G 6
  24294612.744    -2131497.927 5  -1445904.08921
  21455400.0254  -12023211.61948  -9368690.63664
  24864347.111     -205359.045 5    -91978.16321
  23499455.3384   13620107.08746  10613062.41261
  22007263.416   -13638792.153 7 -10496556.92123
 91  4 25 22 34  0.0020000  0  5G13G 2G15G19G 6
  24284356.9794   -2185387.89345  -1487896.11861
  21456453.2214  -12017674.03148  -9364375.62464
  24861208.2524    -221822.23645   -104806.60661
  23507139.8774   13660494.86346  10644533.37261
  22003785.3614  -13657076.90147 -10510804.73563
 91  4 25 22 34 15.0020000  0  5G13G 2G15G19G 6
  24274112.119    -2239236.112 5  -1529855.64721
  21457516.9004  -12012078.09148  -9360015.14964
  24858097.674     -238186.577 5   -117558.03121
  23514839.8384   13700946.41445  10676054.02261
  22000313.7134  -13675318.51547 -10525018.94463
 91  4 25 22 34 30.0020000  0  5G13G 2G15G19G 6
  24263870.7524   -2293040.88045  -1571781.29561
  21458593.4634  -12006422.67748  -9355608.32464
  24855007.9944    -254450.37945   -130231.08361
  23522547.8614   13741462.83546  10707625.22761
  21996851.9474  -13693515.57147 -10539198.42663
 91  4 25 22 34 45.0020000  0  5G13G 2G15G19G 6
  24253640.861    -2346800.775 5  -1613672.01321
  21459681.8074  -12000706.54348  -9351154.18864
  24851930.213     -270612.244 5   -142824.73421
  23530272.9004   13782045.36345  10739247.94161
  21993398.1194  -13711666.52647 -10553341.99063
 91  4 25 22 35  0.0020000  0  5G13G 2G15G19G 6
  24243420.1044   -2400519.92845  -1655530.94361
  21460779.2914  -11994934.29948  -9346656.32864
  24848871.0804    -286676.35545   -155342.20861
  23538006.0964   13822689.45746  10770918.63461
  21989952.6744  -13729775.68147 -10567452.99063
 91  4 25 22 35 15.0020000  0  5G13G 2G15G19G 6
  24233207.2214   -2454194.93745  -1697355.51361
  21461890.1894  -11989102.86548  -9342112.34864
  24845834.674     -302639.312 5   -167780.85221
  23545750.0494   13863398.12645  10802639.64261
  21986512.0024  -13747839.71247 -10581528.81263
 91  4 25 22 35 30.0020000  0  5G13G 2G15G19G 6
  24222996.7444   -2507828.93645  -1739148.09761
  21463008.8774  -11983216.05648  -9337525.21964
  24842815.229     -318504.296 5   -180143.17421
  23553509.3144   13904167.52546  10834407.97661
  21983083.3074  -13765862.18647 -10595572.26163
 91  4 25 22 35 45.0020000  0  5G13G 2G15G19G 6
  24212803.096    -2561414.895 5  -1780903.28521
  21464141.1504  -11977267.06148  -9332889.63064
  24839815.721     -334264.298 5   -192423.67321
  23561283.2054   13945004.69545  10866229.11361
  21979664.0184  -13783835.89247 -10609577.71063
 91  4 25 22 36  0.0020000  0  5G13G 2G15G19G 6
  24202613.7364   -2614956.56445  -1822623.96561
  21465284.0724  -11971260.28248  -9328209.02164
  24836838.002     -349923.451 5   -204625.59521
  23569061.5724   13985905.18645  10898099.59561
  21976251.7444  -13801764.97947 -10623548.38963
 91  4 25 22 36 15.0020000  0  5G13G 2G15G19G 6
  24192434.6744   -2668456.32445  -1864311.94961
  21466438.5254  -11965198.52648  -9323485.56464
  24833874.588     -365484.160 5   -216750.81521
  23576860.1354   14026866.08946  10930017.14961
  21972849.2754  -13819652.24147 -10637486.47863
 91  4 25 22 36 30.0020000  0  5G13G 2G15G19G 6
  24182259.3614   -2721908.54645  -1905962.89461
  21467602.4394  -11959076.76048  -9318715.35364
  24830934.0644    -380940.68245   -228794.83561
  23584666.6894   14067892.67145  10961985.88661
  21969453.283   -13837491.947 7 -10651387.51123
 91  4 25 22 36 45.0020000  0  5G13G 2G15G19G 6
  24172094.439    -2775320.121 5  -1947582.17421
  21468778.8304  -11952902.44148  -9313904.18764
  24828012.986     -396299.972 5   -240763.10421
  23592483.8074   14108977.60745  10994000.08861
  21966065.0644  -13855291.18347 -10665257.00463
 91  4 25 22 37  0.0020000  0  5G13G 2G15G19G 6
  24161940.268    -2828690.075 5  -1989169.04921
  21469963.9164  -11946674.81148  -9309051.48364
  24825106.346     -411561.045 5   -252654.82821
  23600315.338    14150121.632 6  11026060.34321
  21962686.9084  -13873049.09547 -10679094.29663
 91  4 25 22 37 15.0020000  0  5G13G 2G15G19G 6
  24151793.6354   -2882013.53445  -2030719.66161
  21471158.7294  -11940389.42848  -9304153.77664
  24822224.627     -426719.510 5   -264466.60921
  23608154.9394   14191328.95945  11058169.91361
  21959316.2134  -13890761.18347 -10692895.88763
 91  4 25 22 37 30.0020000  0  5G13G 2G15G19G 6
  24141658.5574   -2935287.66445  -2072231.88561
  21472367.7444  -11934044.01648  -9299209.29064
  24819353.283     -441772.738 5   -276196.37221
  23616010.1824   14232601.95545  11090330.65461
  21955954.6504  -13908424.76047 -10706659.67863
 91  4 25 22 37 45.0020000  0  5G13G 2G15G19G 6
  24131526.1744   -2988512.13245  -2113705.33161
  21473586.2134  -11927638.93048  -9294218.30864
  24816508.939     -456720.387 5   -287843.87521
  23623875.635    14273940.483 5  11122542.46721
  21952603.213   -13926039.831 7 -10720385.66523
 91  4 25 22 38  0.0020000  0  5G13G 2G15G19G 6
  24121409.174    -3041689.897 5  -2155142.45521
  21474815.4474  -11921177.32548  -9289183.28564
  24813687.619     -471565.144 5   -299411.20321
  23631753.9864   14315341.54745  11154803.00161
  21949260.7364  -13943609.12347 -10734075.99663
 91  4 25 22 38 15.0020000  0  5G13G 2G15G19G 6
  24111299.541    -3094820.764 5  -2196543.00921
  21476055.2994  -11914659.13048  -9284104.16064
  24810884.674     -486306.916 5   -310898.28121
  23639645.5414   14356804.80145  11187111.98861
  21945923.229   -13961132.635 7 -10747730.63923
 91  4 25 22 38 30.0020000  0  5G13G 2G15G19G 6
  24101193.346    -3147902.629 5  -2237905.39321
  21477305.830   -11908083.119 8  -9278979.98224
  24808099.525     -500943.889 5   -322303.70521
  23647548.8224   14398331.72245  11219470.59761
  21942597.7604  -13978608.51647 -10761348.17063
 91  4 25 22 38 45.0020000  0  5G13G 2G15G19G 6
  24091104.9634   -3200939.40345  -2279232.63461
  21478569.0884  -11901453.92048  -9273814.37064
  24805328.5724    -515480.00645   -333630.52761
  23655461.822    14439917.965 5  11251875.42121
  21939280.8614  -13996041.10547 -10774931.96963
 91  4 25 22 39  0.0020000  0  5G13G 2G15G19G 6
  24081021.400    -3253928.187 5  -2320522.48821
  21479840.5104  -11894768.81348  -9268605.19064
  24802586.783     -529912.820 5   -344876.86621
  23663384.5574   14481565.83745  11284328.27261
  21935974.6354  -14013427.71147 -10788479.93063
 91  4 25 22 39 15.0020000  0  5G13G 2G15G19G 6
  24070943.0964   -3306869.21845  -2361775.12061
  21481122.8464  -11888028.32148  -9263352.85364
  24799855.861     -544242.289 5   -356042.65321
  23671319.9864   14523274.81745  11316828.74061
  21932674.0414  -14030768.30847 -10801992.05763
 91  4 25 22 39 30.0020000  0  5G13G 2G15G19G 6
  24060881.0644   -3359763.12045  -2402991.02161
  21482416.0184  -11881233.33348  -9258058.05464
  24797147.9714    -558468.78545   -367128.23561
  23679269.9634   14565044.26045  11349376.31261
  21929383.104   -14048063.845 7 -10815469.04923
 91  4 25 22 39 45.0020000  0  5G13G 2G15G19G 6
  24050825.6824   -3412610.05645  -2444170.35761
  21483718.9864  -11874384.92648  -9252721.62764
  24794459.736     -572592.840 5   -378133.97621
  23687231.939    14606873.221 5  11381970.26921
  21926100.2294  -14065314.81447 -10828911.32663
 91  4 25 22 40  0.0020000  0  5G13G 2G15G19G 6
  24040777.416    -3465409.830 5  -2485312.93521
  21485033.7054  -11867483.27248  -9247343.71164
  24791796.5494    -586614.45745   -389059.89861
  23695199.7994   14648761.42745  11414610.38861
  21922824.283   -14082520.929 7 -10842318.64623
 91  4 25 22 40 15.0020000  0  5G13G 2G15G19G 6
  24030739.143    -3518163.292 5  -2526419.42621
  21486356.1974  -11860529.79348  -9241925.40964
  24789147.010     -600534.625 6   -399906.75921
  23703184.322    14690707.448 5  11447295.55721
  21919559.7834  -14099683.47647 -10855692.01763
 91  4 25 22 40 30.0020000  0  5G13G 2G15G19G 6
  24020706.5884   -3570868.47945  -2567488.27561
  21487688.3774  -11853522.83748  -9236465.44164
  24786519.5964    -614351.39446   -410673.06661
  23711177.275    14732712.984 5  11480027.09921
  21916301.893   -14116800.535 7 -10869029.94523
 91  4 25 22 40 45.0020000  0  5G13G 2G15G19G 6
  24010683.877    -3623524.176 5  -2608518.58121
  21489032.4944  -11846461.81548  -9230963.33964
  24783908.8614    -628063.60946   -421357.88261
  23719185.580    14774778.533 5  11512805.40521
  21913055.869   -14133871.075 7 -10882331.62123
 91  4 25 22 41  0.0020000  0  5G13G 2G15G19G 6
  24000673.361    -3676129.768 5  -2649509.83721
  21490386.5804  -11839346.50648  -9225418.93964
  24781319.971     -641670.716 6   -431960.80121
  23727197.7294   14816904.53746  11545630.82061
  21909814.8774  -14150894.62347 -10895596.68463
 91  4 25 22 41 15.0020000  0  5G13G 2G15G19G 6
  23990679.0884   -3728684.48345  -2690461.46861
  21491751.4324  -11832176.61348  -9219832.00564
  24778749.2524    -655172.05945   -442481.32661
  23735229.713    14859091.499 5  11578503.73521
  21906585.1044  -14167870.64047 -10908824.70863
 91  4 25 22 41 30.0020000  0  5G13G 2G15G19G 6
  23980688.143    -3781185.507 5  -2731371.22521
  21493125.5334  -11824949.61848  -9214200.57264
  24776200.369     -668565.082 5   -452917.42221
  23743263.932    14901341.625 5  11611425.86721
  21903363.604   -14184796.384 7 -10922013.56123
 91  4 25 22 41 45.0020000  0  5G13G 2G15G19G 6
  23970708.0414   -3833631.06945  -2772237.78661
  21494513.8934  -11817664.30748  -9208523.70264
  24773674.369     -681848.245 5   -463267.92221
  23751321.0804   14943656.29945  11644398.30361
  21900152.7604  -14201670.24547 -10935161.98163
 91  4 25 22 42  0.0020000  0  5G13G 2G15G19G 6
  23960736.9634   -3886025.18145  -2813064.25561
  21495909.6974  -11810324.84548  -9202804.64064
  24771165.9324    -695025.34645   -473535.78061
  23759379.979    14986031.143 5  11677417.61921
  21896951.9474  -14218496.40247 -10948273.24163
 91  4 25 22 42 15.0020000  0  5G13G 2G15G19G 6
  23950774.635    -3938364.385 5  -2853847.91421
  21497316.7294  -11802928.32648  -9197041.11064
  24768683.6744    -708093.20846   -483718.49361
  23767459.4474   15028468.98345  11710486.02561
  21893758.0104  -14235271.61247 -10961344.78963
 91  4 25 22 42 30.0020000  0  5G13G 2G15G19G 6
  23940824.197    -3990650.655 5  -2894590.35221
  21498735.1974  -11795477.26248  -9191235.08064
  24766210.846     -721053.769 5   -493817.61821
  23775546.650    15070967.491 5  11743601.70521
  21890574.2134  -14251997.86447 -10974378.19263
 91  4 25 22 42 45.0020000  0  5G13G 2G15G19G 6
  23930887.5724   -4042884.58545  -2935291.98861
  21500163.3384  -11787972.90948  -9185387.53264
  24763769.8934    -733907.64145   -503833.57661
  23783645.0494   15113525.64145  11776763.86261
  21887402.432   -14268676.051 7 -10987374.13823
 91  4 25 22 43  0.0020000  0  5G13G 2G15G19G 6
  23920954.760    -4095063.753 5  -2975950.94821
  21501603.3854  -11780413.30248  -9179496.92764
  24761342.158     -746652.630 5   -513764.72221
  23791754.611    15156145.261 5  11809973.90921
  21884238.0804  -14285303.87547 -11000330.85063
 91  4 25 22 43 15.0020000  0  5G13G 2G15G19G 6
  23911033.1504   -4147189.74745  -3016568.49161
  21503050.4944  -11772800.47248  -9173564.84964
  24758937.924     -759290.317 5   -523612.25021
  23799876.0104   15198824.33345  11843230.29561
  21881082.627   -14301883.237 7 -11013249.78523
 91  4 25 22 43 30.0020000  0  5G13G 2G15G19G 6
  23901130.369    -4199261.631 5  -3057143.83821
  21504510.3224  -11765133.83848  -9167590.84564
  24756548.2754    -771820.07645   -533375.66161
  23808012.299    15241563.499 5  11876533.49521
  21877935.8934  -14318413.25047 -11026130.27863
 91  4 25 22 43 45.0020000  0  5G13G 2G15G19G 6
  23891229.6274   -4251281.35745  -3097678.55861
  21505978.0804  -11757415.96048  -9161576.90964
  24754187.3544    -784244.17045   -543056.74661
  23816154.5884   15284360.22145  11909881.54961
  21874800.049   -14334896.207 7 -11038974.09623
 91  4 25 22 44  0.0020000  0  5G13G 2G15G19G 6
  23881338.463    -4303247.154 5  -3138171.26921
  21507457.3144  -11749645.38448  -9155521.91264
  24751846.8694    -796560.53745   -552653.87661
  23824306.994    15327215.980 5  11943275.60821
  21871672.471   -14351330.333 7 -11051779.86823
 91  4 25 22 44 15.0020000  0  5G13G 2G15G19G 6
  23871456.9474   -4355158.13345  -3178621.24261
  21508945.4324  -11741821.75648  -9149425.57064
  24749521.3694    -808768.64446   -562166.66761
  23832475.049    15370131.217 5  11976716.01521
  21868555.0724  -14367714.83247 -11064546.97063
 91  4 25 22 44 30.0020000  0  5G13G 2G15G19G 6
  23861590.9714   -4407018.34145  -3219031.66061
  21510443.8224  -11733949.56848  -9143291.38864
  24747215.9864    -820872.48545   -571598.19961
  23840649.4244   15413101.43145  12010199.25761
  21865445.7754  -14384053.90647 -11077278.67763
 91  4 25 22 44 45.0020000  0  5G13G 2G15G19G 6
  23851734.2134   -4458823.36845  -3259399.08061
  21511951.2914  -11726024.83648  -9137116.27164
  24744934.971     -832867.771 5   -580945.16321
  23848843.096    15456130.607 5  12043728.42821
  21862344.7524  -14400343.47147 -11089971.80963
 91  4 25 22 45  0.0020000  0  5G13G 2G15G19G 6
  23841885.9004   -4510575.20145  -3299725.06161
  21513468.6044  -11718049.89148  -9130902.01864
  24742673.3934    -844756.55746   -590209.11461
  23857039.869    15499216.405 5  12077301.73721
  21859252.9164  -14416585.42947 -11102627.84663
 91  4 25 22 45 15.0020000  0  5G13G 2G15G19G 6
  23832047.994    -4562272.118 5  -3340008.22021
  21514997.5644  -11710023.62948  -9124647.78864
  24740432.049     -856537.367 5   -599388.94021
  23865249.744    15542359.812 5  12110919.92921
  21856172.7524  -14432778.36447 -11115245.67963
 91  4 25 22 45 30.0020000  0  5G13G 2G15G19G 6
  23822223.182    -4613909.333 5  -3380244.86721
  21516533.1664  -11701941.82348  -9118350.27164
  24738211.127     -868205.528 5   -608480.97721
  23873470.752    15585565.292 5  12144586.48321
  21853102.3464  -14448917.78347 -11127821.81263
 91  4 25 22 45 45.0020000  0  5G13G 2G15G19G 6
  23812404.5884   -4665486.47545  -3420434.73561
  21518082.6434  -11693804.31548  -9112009.34764
  24736009.9164    -879760.63745   -617484.95661
  23881705.3464   15628832.68245  12178301.29661
  21850041.9794  -14465003.32547 -11140355.96963
 91  4 25 22 46  0.0020000  0  5G13G 2G15G19G 6
  23802602.432    -4717006.656 5  -3460580.20021
  21519640.6974  -11685614.58148  -9105627.73264
  24733837.307     -891205.785 5   -626403.19621
  23889953.6584   15672158.57245  12212061.67661
  21846990.3614  -14481038.09247 -11152850.55763
 91  4 25 22 46 15.0020000  0  5G13G 2G15G19G 6
  23792811.846    -4768463.366 5  -3500676.21121
  21521210.7524  -11677366.83848  -9099200.91164
  24731677.7834    -902534.83745   -635231.00461
  23898208.4474   15715548.92645  12245872.30261
  21843948.1894  -14497015.96047 -11165300.81263
 91  4 25 22 46 30.0020000  0  5G13G 2G15G19G 6
  23783028.9324   -4819854.81245  -3540721.36461
  21522791.7684  -11669059.61448  -9092727.74864
  24729542.791     -913745.968 5   -643966.92921
  23906474.994    15759005.053 5  12279734.16121
  21840919.9244  -14512935.20247 -11177705.38863
 91  4 25 22 46 45.0020000  0  5G13G 2G15G19G 6
  23773265.0024   -4871183.62645  -3580717.72261
  21524382.8774  -11660695.63048  -9086210.35164
  24727435.1584    -924841.74445   -652612.96561
  23914757.1194   15802524.19745  12313645.14361
  21837900.6584  -14528798.42947 -11190066.31163
 91  4 25 22 47  0.0020000  0  5G13G 2G15G19G 6
  23763509.0184   -4922446.90445  -3620663.00961
  21525986.3934  -11652272.77248  -9079647.08164
  24725342.799     -935819.492 5   -661167.02321
  23923050.6584   15846108.84945  12347607.18461
  21834894.5024  -14544602.94747 -11202381.48863
 91  4 25 22 47 15.0020000  0  5G13G 2G15G19G 6
  23753765.3304   -4973643.71045  -3660556.51161
  21527599.6194  -11643790.85548  -9073037.79364
  24723276.463     -946678.860 5   -669628.83121
  23931360.3774   15889759.07945  12381620.30561
  21831897.7214  -14560348.27747 -11214650.54963
 91  4 25 22 47 30.0020000  0  5G13G 2G15G19G 6
  23744032.7214   -5024776.43745  -3700400.08661
  21529224.7444  -11635252.32548  -9066384.38964
  24721233.6744    -957422.04045   -678000.11861
  23939673.104    15933472.246 5  12415682.46821
  21828911.5334  -14576036.81147 -11226875.34763
 91  4 25 22 47 45.0020000  0  5G13G 2G15G19G 6
  23734319.807    -5075842.262 5  -3740191.52521
  21530861.0804  -11626655.19048  -9059685.31664
  24719213.3544    -968046.34545   -686278.77161
  23948005.6974   15977250.59345  12449795.43661
  21825937.5104  -14591665.76947 -11239053.73263
 91  4 25 22 48  0.0020000  0  5G13G 2G15G19G 6
  23724615.6274   -5126845.90146  -3779934.48961
  21532508.2054  -11618004.36948  -9052944.41164
  24717211.877     -978556.678 5   -694468.61121
  23956349.5024   16021088.95545  12483955.15061
  21822974.0334  -14607240.22547 -11251189.64263
 91  4 25 22 48 15.0020000  0  5G13G 2G15G19G 6
  23714919.9004   -5177784.89146  -3819627.08561
  21534164.9164  -11609297.95348  -9046160.19064
  24715229.088     -988950.558 5   -702567.71821
  23964704.4084   16064989.50045  12518163.32761
  21820021.768   -14622757.752 7 -11263281.19623
 91  4 25 22 48 30.0020000  0  5G13G 2G15G19G 6
  23705238.6744   -5228657.19546  -3859267.72561
  21535831.2214  -11600534.06148  -9039331.17664
  24713277.0334    -999226.16845   -710574.65961
  23973067.7214   16108953.94145  12552421.29061
  21817081.1114  -14638216.29847 -11275326.78763
 91  4 25 22 48 45.0020000  0  5G13G 2G15G19G 6
  23695570.1504   -5279467.63146  -3898860.14761
  21537509.6824  -11591717.85048  -9032461.39164
  24711344.900    -1009388.196 5   -718493.08921
  23981448.025    16152976.909 5  12586724.86121
  21814148.791   -14653620.849 7 -11287330.31123
 91  4 25 22 49  0.0020000  0  5G13G 2G15G19G 6
  23685913.846    -5330212.009 6  -3938401.10921
  21539196.5574  -11582845.85248  -9025548.14364
  24709430.486    -1019432.783 5   -726320.01321
  23989832.6434   16197062.08345  12621076.90061
  21811228.197   -14668967.441 7 -11299288.67223
 91  4 25 22 49 15.0020000  0  5G13G 2G15G19G 6
  23676268.5574   -5380890.55746  -3977890.76461
  21540895.6824  -11573918.89648  -9018592.06864
  24707547.205    -1029360.561 5   -734055.93321
  23998237.3074   16241208.73545  12655476.83461
  21808318.158   -14684256.583 7 -11311202.26223
 91  4 25 22 49 30.0020000  0  5G13G 2G15G19G 6
  23666638.1744   -5431501.50546  -4017327.75261
  21542605.346   -11564935.643 8  -9011592.12324
  24705677.2364   -1039169.82345   -741699.47861
  24006653.002    16285418.093 5  12689925.63221
  21805420.705   -14699486.660 7 -11323069.83523
 91  4 25 22 49 45.0020000  0  5G13G 2G15G19G 6
  23657018.971    -5482042.802 6  -4056710.46421
  21544326.8544  -11555894.49848  -9004547.06664
  24703835.924    -1048858.327 5   -749248.92721
  24015075.439    16329691.807 5  12724424.59421
  21802533.775   -14714655.718 7 -11334889.85423
 91  4 25 22 50  0.0020000  0  5G13G 2G15G19G 6
  23647413.2214   -5532516.66346  -4096040.61661
  21546058.4244  -11546797.86148  -8997458.77464
  24702010.2684   -1058428.55245   -756706.23361
  24023510.1664   16374027.46945  12758971.81461
  21799660.1354  -14729765.89547 -11346663.99163
 91  4 25 22 50 15.0020000  0  5G13G 2G15G19G 6
  23637819.924    -5582925.342 6  -4135320.01121
  21547797.0494  -11537648.32848  -8990329.26364
  24700211.3224   -1067882.77945   -764073.14161
  24031957.611    16418422.458 5  12793565.26221
  21796792.174   -14744819.469 7 -11358394.02623
 91  4 25 22 50 30.0020000  0  5G13G 2G15G19G 6
  23628244.7524   -5633265.14546  -4174545.70861
  21549550.0414  -11528443.04048  -8983156.30664
  24698434.189    -1077217.421 5   -771346.87621
  24040417.4554   16462879.54745  12828207.10961
  21793940.064   -14759813.427 7 -11370077.60623
 91  4 25 22 50 45.0020000  0  5G13G 2G15G19G 6
  23618676.5184   -5683535.05146  -4213716.94961
  21551313.3074  -11519181.28248  -8975939.34564
  24696683.244    -1086431.832 5   -778526.88921
  24048892.494    16507399.497 5  12862897.93021
  21791099.2684  -14774746.50247 -11381713.73863
 91  4 25 22 51  0.0020000  0  5G13G 2G15G19G 6
  23609125.049    -5733738.760 6  -4252836.62021
  21553085.4244  -11509867.21648  -8968681.62864
  24694949.2604   -1095529.72345   -785616.12361
  24057377.502    16551977.986 5  12897634.36221
  21788268.4324  -14789622.86947 -11393305.68763
 91  4 25 22 51 15.0020000  0  5G13G 2G15G19G 6
  23599580.986    -5783873.673 6  -4291902.67921
  21554867.4084  -11500498.67048  -8961381.45564
  24693242.104    -1104508.746 5   -792612.74421
  24065870.463    16596617.518 5  12932418.37921
  21785448.791   -14804439.838 7 -11404851.35423
 91  4 25 22 51 30.0020000  0  5G13G 2G15G19G 6
  23590053.275    -5833935.930 6  -4330912.11521
  21556662.4244  -11491072.16848  -8954036.12764
  24691556.6354   -1113365.04645   -799513.75061
  24074373.4324   16641321.46045  12967252.57361
  21782640.2364  -14819193.71047 -11416347.85363
 91  4 25 22 51 45.0020000  0  5G13G 2G15G19G 6
  23580543.4794   -5883930.60146  -4369868.89661
  21558464.5184  -11481593.00648  -8946649.76364
  24689897.8774   -1122103.49345   -806322.89561
  24082895.1584   16686084.29345  13002132.66861
  21779843.994   -14833889.538 7 -11427799.12123
 91  4 25 22 52  0.0020000  0  5G13G 2G15G19G 6
  23571044.768    -5933855.814 6  -4408771.54621
  21560281.5184  -11472059.95348  -8939221.40664
  24688251.1354   -1130722.47345   -813038.95961
  24091422.924    16730907.383 5  13037059.72021
  21777058.7134  -14848525.66747 -11439203.86963
 91  4 25 22 52 15.0020000  0  5G13G 2G15G19G 6
  23561556.3694   -5983713.53246  -4447621.59761
  21562102.6194  -11462475.46048  -8931752.96264
  24686637.5024   -1139224.19345   -819663.66361
  24099963.0804   16775788.34245  13072031.84761
  21774285.494   -14863104.184 7 -11450563.72723
 91  4 25 22 52 30.0020000  0  5G13G 2G15G19G 6
  23552079.760    -6033501.855 6  -4486417.58621
  21563938.4244  -11452838.04248  -8924243.28964
  24685041.0724   -1147606.80345   -826195.53361
  24108513.7604   16820728.63445  13107050.22761
  21771522.721   -14877623.316 7 -11461877.31123
 91  4 25 22 52 45.0020000  0  5G13G 2G15G19G 6
  23542619.775    -6083216.902 6  -4525156.48321
  21565782.7524  -11443144.26648  -8916689.69264
  24683466.166    -1155866.829 5   -832631.89321
  24117083.2444   16865731.56245  13142117.40561
  21768770.3384  -14892079.49347 -11473141.83563
 91  4 25 22 53  0.0020000  0  5G13G 2G15G19G 6
  23533170.736    -6132860.396 6  -4563839.62221
  21567636.408   -11433396.372 8  -8909093.92224
  24681919.8694   -1164005.98345   -838974.06361
  24125652.7754   16910794.96745  13177231.71561
  21766031.1504  -14906474.51547 -11484358.70763
 91  4 25 22 53 15.0020000  0  5G13G 2G15G19G 6
  23523741.541    -6182434.872 6  -4602468.96821
  21569501.5644  -11423597.44548  -8901458.39164
  24680398.4864   -1172027.06245   -845224.24261
  24134237.088    16955915.895 5  13212390.83221
  21763303.2994  -14920811.13847 -11495530.06563
 91  4 25 22 53 30.0020000  0  5G13G 2G15G19G 6
  23514318.447    -6231938.512 6  -4641043.14421
  21571376.2364  -11413745.85948  -8893781.83164
  24678891.424    -1179928.333 5   -851381.03821
  24142837.072    17001095.677 5  13247595.80921
  21760586.3464  -14935087.53447 -11506654.50163
 91  4 25 22 53 45.0020000  0  5G13G 2G15G19G 6
  23504912.557    -6281372.075 6  -4679562.67721
  21573260.9714  -11403843.01748  -8886065.32464
  24677406.6974   -1187710.83845   -857445.29961
  24151448.361    17046332.936 5  13282845.57621
  21757880.0254  -14949304.81747 -11517732.86763
 91  4 25 22 54  0.0020000  0  5G13G 2G15G19G 6
  23495517.7294   -6330737.89846  -4718029.45561
  21575155.5574  -11393891.54048  -8878310.92364
  24675950.096    -1195377.032 5   -863418.94321
  24160065.1664   17091625.09745  13318138.12561
  21755186.1044  -14963465.29847 -11528766.97563
 91  4 25 22 54 15.0020000  0  5G13G 2G15G19G 6
  23486134.8614   -6380032.27846  -4756440.55561
  21577058.3934  -11383887.82448  -8870515.82164
  24674512.8304   -1202923.00045   -869298.87861
  24168698.260    17136975.493 5  13353476.05521
  21752505.0804  -14977565.16347 -11539753.84863
 91  4 25 22 54 30.0020000  0  5G13G 2G15G19G 6
  23476771.955    -6429256.250 6  -4794796.79021
  21578970.6974  -11373833.59048  -8862681.35364
  24673099.5184   -1210350.21045   -875086.29361
  24177337.721    17182382.546 5  13388858.13021
  21749830.8384  -14991605.69347 -11550694.48963
 91  4 25 22 54 45.0020000  0  5G13G 2G15G19G 6
  23467415.5574   -6478409.45146  -4833097.88761
  21580893.8304  -11363729.15148  -8854807.75764
  24671706.5884   -1217658.33545   -880780.90261
  24185991.260    17227845.906 5  13424284.07221
  21747171.0724  -15005586.93747 -11561588.92863
 91  4 25 22 55  0.0020000  0  5G13G 2G15G19G 6
  23458075.650    -6527491.659 6  -4871343.64921
  21582827.1434  -11353574.63348  -8846895.14064
  24670339.346    -1224847.186 5   -886382.59721
  24194650.635    17273365.605 5  13459753.92521
  21744521.8144  -15019508.61447 -11572436.95263
 91  4 25 22 55 15.0020000  0  5G13G 2G15G19G 6
  23448749.627    -6576504.833 6  -4909535.63721
  21584767.3934  -11343372.38748  -8838945.34164
  24668999.0964   -1231918.94045   -891893.02061
  24203322.658    17318939.333 5  13495265.87421
  21741883.2754  -15033372.72847 -11583240.12563
 91  4 25 22 55 30.0020000  0  5G13G 2G15G19G 6
  23439437.096    -6625448.181 6  -4947673.21321
  21586718.5334  -11333122.13348  -8830958.12764
  24667672.486    -1238873.020 5   -897311.76521
  24212003.463    17364567.330 5  13530820.10721
  21739255.1194  -15047178.77447 -11593998.05063
 91  4 25 22 55 45.0020000  0  5G13G 2G15G19G 6
  23430134.393    -6674319.298 6  -4985754.49621
  21588678.5494  -11322821.86148  -8822931.93964
  24666372.197    -1245707.265 5   -902637.13821
  24220698.0804   17410251.49745  13566418.12561
  21736640.7604  -15060924.37147 -11604708.87363
 91  4 25 22 56  0.0020000  0  5G13G 2G15G19G 6
  23420848.4474   -6723119.66746  -5023780.65261
  21590648.6504  -11312473.38948  -8814868.19264
  24665096.1974   -1252423.22845   -907870.31761
  24229399.947    17455989.876 5  13602058.37221
  21734035.4474  -15074611.32147 -11615373.98763
 91  4 25 22 56 15.0020000  0  5G13G 2G15G19G 6
  23411575.705    -6771850.945 6  -5061752.97921
  21592624.4324  -11302078.88748  -8806768.57664
  24663841.018    -1259022.818 5   -913012.84221
  24238119.5724   17501780.20745  13637739.10961
  21731443.0724  -15088241.29347 -11625994.71263
 91  4 25 22 56 30.0020000  0  5G13G 2G15G19G 6
  23402318.4324   -6820505.93646  -5099665.85161
  21594613.8144  -11291631.41748  -8798627.68864
  24662606.7054   -1265498.84845   -918059.09961
  24246842.6744   17547629.39345  13673465.71061
  21728859.6974  -15101807.24447 -11636565.54763
 91  4 25 22 56 45.0020000  0  5G13G 2G15G19G 6
  23393075.018    -6869090.571 6  -5137523.90921
  21596611.4164  -11281137.51348  -8790450.61864
  24661396.166    -1271857.317 5   -923013.72321
  24255575.908    17593531.237 5  13709233.32321
  21726289.9474  -15115315.08747 -11647091.10563
 91  4 25 22 57  0.0020000  0  5G13G 2G15G19G 6
  23383838.8544   -6917606.34746  -5175328.31461
  21598616.2994  -11270599.01048  -8782238.79764
  24660207.6744   -1278099.91445   -927878.04661
  24264319.7524   17639483.86145  13745040.53161
  21723731.3464  -15128766.46147 -11657572.65963
 91  4 25 22 57 15.0020000  0  5G13G 2G15G19G 6
  23374622.5024   -6966048.63346  -5213075.45561
  21600630.9634  -11260011.85948  -8773989.06164
  24659045.299    -1284222.297 5   -932648.72821
  24273077.033    17685491.191 5  13780890.36321
  21721182.5644  -15142156.94047 -11668006.76363
 91  4 25 22 57 30.0020000  0  5G13G 2G15G19G 6
  23365415.838    -7014420.386 6  -5250767.61721
  21602654.3694  -11249379.55748  -8765704.14964
  24657899.400    -1290227.801 5   -937328.31521
  24281840.1974   17731549.63745  13816780.01861
  21718645.5494  -15155489.82147 -11678395.98764
 91  4 25 22 57 45.0020000  0  5G13G 2G15G19G 6
  23356223.807    -7062717.988 6  -5288402.03321
  21604686.1744  -11238698.50848  -8757381.25164
  24656780.338    -1296112.401 5   -941913.71521
  24290613.471    17777662.791 5  13852712.30721
  21716119.9714  -15168761.23347 -11688737.31363
 91  4 25 22 58  0.0020000  0  5G13G 2G15G19G 6
  23347048.3144   -7110944.75846  -5325981.22961
  21606727.2994  -11227972.57148  -8749023.37064
  24655683.9944   -1301879.77945   -946407.74661
  24299400.275    17823826.625 5  13888684.08521
  21713605.4084  -15181974.88447 -11699033.63163
 91  4 25 22 58 15.0020000  0  5G13G 2G15G19G 6
  23337884.3934   -7159098.25546  -5363503.33761
  21608778.2604  -11217199.80648  -8740629.00764
  24654609.463    -1307527.536 5   -950808.57721
  24308199.416    17870043.121 5  13924696.89521
  21711102.5334  -15195128.13147 -11709282.88564
 91  4 25 22 58 30.0020000  0  5G13G 2G15G19G 6
  23328738.6354   -7207180.22546  -5400969.71861
  21610836.2134  -11206382.26348  -8732199.75364
  24653559.7294   -1313057.55045   -955117.64561
  24317002.338    17916310.282 5  13960749.19821
  21708609.9084  -15208223.03747 -11719486.67763
 91  4 25 22 58 45.0020000  0  5G13G 2G15G19G 6
  23319598.229    -7255188.199 6  -5438378.42721
  21612903.4244  -11195518.16148  -8723734.21464
  24652524.666    -1318467.842 5   -959333.44121
  24325813.9944   17962629.54945  13996842.06761
  21706129.4084  -15221257.43847 -11729643.32463
 91  4 25 22 59  0.0020000  0  5G13G 2G15G19G 6
  23310476.2524   -7303122.50446  -5475729.73561
  21614980.1434  -11184608.08548  -8715232.85564
  24651520.9324   -1323758.71645   -963456.18861
  24334632.377    18009000.563 5  14032975.28421
  21703660.2364  -15234231.72747 -11739753.12963
 91  4 25 22 59 15.0020000  0  5G13G 2G15G19G 6
  23301367.7444   -7350986.25246  -5513026.06561
  21617064.5964  -11173655.40148  -8706698.30164
  24650533.455    -1328933.496 5   -967488.47121
  24343471.2604   18055419.99745  14069146.22661
  21701201.713   -15247148.822 7 -11749818.37223
 91  4 25 22 59 30.0020000  0  5G13G 2G15G19G 6
  23292274.1894   -7398775.24146  -5550264.13861
  21619155.9004  -11162656.35148  -8698127.60664
  24649576.0884   -1333988.12445   -971427.13661
  24352312.736    18101891.313 5  14105357.59821
  21698757.0644  -15260004.76747 -11759835.95863
 91  4 25 22 59 45.0020000  0  5G13G 2G15G19G 6
  23283196.4394   -7446487.17446  -5587442.17961
  21621259.7294  -11151609.33948  -8689519.54264
  24648635.338    -1338920.428 5   -975270.46221
  24361168.713    18148416.345 5  14141610.81721
  21696320.572   -15272797.492 7 -11769804.29423
 91  4 25 23  0  0.0020000  0  5G13G 2G15G19G 6
  23274130.822    -7494124.683 6  -5624562.21921
  21623370.2134  -11140517.15648  -8680876.28564
  24647720.0254   -1343733.13045   -979020.61861
  24370027.0884   18194992.26845  14177903.70061
  21693900.0414  -15285529.58247 -11779725.37363
 91  4 25 23  0 15.0020000  0  5G13G 2G15G19G 6
  23265079.3384   -7541683.50746  -5661620.93361
  21625489.6974  -11129375.83948  -8672194.73664
  24646828.752    -1348421.950 5   -982674.23321
  24378906.088    18241623.047 5  14214239.32021
  21691488.666   -15298196.791 7 -11789595.90423
 91  4 25 23  0 30.0020000  0  5G13G 2G15G19G 6
  23256046.072    -7589164.251 6  -5698618.81521
  21627620.4324  -11118186.70848  -8663475.93464
  24645956.627    -1352988.053 5   -986232.21221
  24387788.346    18288307.343 5  14250616.64721
  21689091.541   -15310800.161 7 -11799416.68623
 91  4 25 23  0 45.0020000  0  5G13G 2G15G19G 6
  23247023.635    -7636565.786 6  -5735554.98121
  21629758.2134  -11106948.92248  -8654719.21864
  24645112.5884   -1357430.25345   -989693.66361
  24396685.1194   18335045.73445  14287036.13061
  21686703.1824  -15323338.55647 -11809186.84263
 91  4 25 23  1  0.0020000  0  5G13G 2G15G19G 6
  23238019.3614   -7683887.25146  -5772428.75461
  21631905.0414  -11095662.20348  -8645924.37064
  24644291.5104   -1361747.90345   -993058.02661
  24405586.8614   18381838.46245  14323497.93961
  21684331.557   -15335811.255 7 -11818905.80323
 91  4 25 23  1 15.0020000  0  5G13G 2G15G19G 6
  23229031.1824   -7731128.41546  -5809239.94761
  21634062.7364  -11084326.77748  -8637091.56864
  24643490.729    -1365941.107 5   -996325.44821
  24414503.6274   18428685.40145  14360001.99861
  21681969.510   -15348218.228 7 -11828573.54723
 91  4 25 23  1 30.0020000  0  5G13G 2G15G19G 6
  23220057.0884   -7778286.62846  -5845986.51561
  21636230.4084  -11072940.48348  -8628219.12964
  24642722.057    -1370007.523 5   -999494.07721
  24423427.588    18475588.537 5  14396549.85421
  21679621.424   -15360556.963 7 -11838188.12523
 91  4 25 23  1 45.0020000  0  5G13G 2G15G19G 6
  23211099.0804   -7825359.78746  -5882666.80761
  21638405.8544  -11061501.53748  -8619305.66664
  24641966.111    -1373944.956 5  -1002562.18021
  24432361.299    18522549.739 5  14433142.95521
  21677287.041   -15372825.455 7 -11847747.96723
 91  4 25 23  2  0.0020000  0  5G13G 2G15G19G 6
  23202157.768    -7872351.167 6  -5919283.37121
  21640591.2444  -11050013.66048  -8610354.07064
  24641244.619    -1377757.024 5  -1005532.60221
  24441308.2994   18569565.09045  14469778.23161
  21674964.650   -15385027.007 7 -11857255.64523
 91  4 25 23  2 15.0020000  0  5G13G 2G15G19G 6
  23193231.7604   -7919256.24246  -5955832.69561
  21642787.5574  -11038472.49148  -8601360.95064
  24640545.221    -1381439.107 5  -1008401.73121
  24450269.596    18616639.010 5  14506459.16121
  21672656.486   -15397157.209 7 -11866707.72923
 91  4 25 23  2 30.0020000  0  5G13G 2G15G19G 6
  23184320.2294   -7966074.55346  -5992314.40461
  21644994.7444  -11026877.87448  -8592326.18464
  24639866.018    -1384990.973 5  -1011169.40821
  24459234.0104   18663771.62944  14543185.84261
  21670361.486   -15409215.510 7 -11876103.78223
 91  4 25 23  2 45.0020000  0  5G13G 2G15G19G 6
  23175428.604    -8012808.819 6  -6028730.63921
  21647209.4634  -11015233.22148  -8583252.42164
  24639218.494    -1388415.571 5  -1013837.90321
  24468220.088    18710959.569 5  14579955.61221
  21668080.314   -15421204.948 7 -11885446.18223
 91  4 25 23  3  0.0020000  0  5G13G 2G15G19G 6
  23166551.260    -8059460.899 6  -6065082.81721
  21649435.3224  -11003540.88148  -8574141.51064
  24638589.119    -1391714.808 5  -1016408.72021
  24477201.8304   18758200.40845  14616766.62261
  21665811.861   -15433127.600 7 -11894736.54023
 91  4 25 23  3 15.0020000  0  5G13G 2G15G19G 6
  23157689.9244   -8106029.09146  -6101369.64061
  21651669.4084  -10991799.07648  -8564992.04664
  24637980.643    -1394886.901 6  -1018880.45821
  24486204.557    18805495.609 5  14653619.97421
  21663555.697   -15444981.501 7 -11903973.32023
 91  4 25 23  3 30.0020000  0  5G13G 2G15G19G 6
  23148842.166    -8152515.997 6  -6137593.11621
  21653912.2364  -10980011.15548  -8555806.65264
  24637409.5414   -1397934.74446  -1021255.39161
  24495217.5024   18852842.09044  14690513.31061
  21661313.932   -15456769.528 7 -11913158.77923
 91  4 25 23  3 45.0020000  0  5G13G 2G15G19G 6
  23140012.588    -8198920.541 6  -6173752.41721
  21656164.6894  -10968176.70648  -8546585.00064
  24636849.4474   -1400857.84745  -1023533.12361
  24504238.3304   18900240.19145  14727446.85461
  21659082.674   -15468490.867 7 -11922292.26823
 91  4 25 23  4  0.0020000  0  5G13G 2G15G19G 6
  23131197.377    -8245244.887 6  -6209849.22621
  21658425.3384  -10956297.89848  -8537328.78564
  24636316.932    -1403658.285 5  -1025715.27721
  24513259.5414   18947687.62545  14764418.83861
  21656864.135   -15480147.561 7 -11931375.38623
 91  4 25 23  4 15.0020000  0  5G13G 2G15G19G 6
  23122396.963    -8291483.910 6  -6245879.53821
  21660696.5024  -10944369.99248  -8528034.30864
  24635804.6824   -1406331.29045  -1027798.12461
  24522304.986    18995189.101 5  14801432.93221
  21654659.143   -15491734.617 7 -11940404.23923
 91  4 25 23  4 30.0020000  0  5G13G 2G15G19G 6
  23113614.229    -8337643.799 6  -6281848.20621
  21662973.6354  -10932399.71048  -8518706.81764
  24635322.846    -1408883.055 6  -1029786.49221
  24531352.635    19042737.691 5  14838483.74621
  21652466.236   -15503258.391 7 -11949383.77723
 91  4 25 23  4 45.0020000  0  5G13G 2G15G19G 6
  23104844.018    -8383723.330 6  -6317754.25221
  21665258.7834  -10920386.24748  -8509345.67564
  24634857.6824   -1411312.40945  -1031679.48761
  24540408.650    19090334.227 5  14875571.90021
  21650285.713   -15514717.895 7 -11958313.24023
 91  4 25 23  5  0.0020000  0  5G13G 2G15G19G 6
  23096090.588    -8429719.452 6  -6353595.30721
  21667553.9794  -10908326.97548  -8499948.83164
  24634421.8774   -1413616.56645  -1033474.92361
  24549474.854    19137981.291 5  14912699.45421
  21648118.916   -15526110.107 7 -11967190.26423
 91  4 25 23  5 15.0020000  0  5G13G 2G15G19G 6
  23087352.5574   -8475634.08846  -6389372.86161
  21669857.6824  -10896224.45548  -8490518.29764
  24634006.361    -1415797.998 5  -1035174.73221
  24558555.1504   19185676.47245  14949864.48761
  21645961.010   -15537437.161 7 -11976016.51923
 91  4 25 23  5 30.0020000  0  5G13G 2G15G19G 6
  23078631.893    -8521470.152 6  -6425089.20221
  21672166.4244  -10884081.77648  -8481056.46664
  24633612.307    -1417859.642 5  -1036781.19521
  24567636.9864   19233416.43045  14987064.42261
  21643819.205   -15548702.024 7 -11984794.31023
 91  4 25 23  5 45.0020000  0  5G13G 2G15G19G 6
  23069922.557    -8567224.980 6  -6460742.22221
  21674487.6044  -10871896.62648  -8471561.53964
  24633242.916    -1419798.845 5  -1038292.26321
  24576730.3614   19281203.36645  15024300.95561
  21641686.354   -15559901.966 7 -11993521.51323
 91  4 25 23  6  0.0020000  0  5G13G 2G15G19G 6
  23061234.4004   -8612894.99146  -6496329.16561
  21676814.1194  -10859665.93448  -8462031.12664
  24632897.0024   -1421612.14045  -1039705.20561
  24585835.0494   19329040.42445  15061576.55861
  21639570.166   -15571033.618 7 -12002195.50623
 91  4 25 23  6 15.0020000  0  5G13G 2G15G19G 6
  23052558.900    -8658483.829 6  -6531852.85521
  21679148.9794  -10847393.51748  -8452468.20064
  24632577.0884   -1423303.18346  -1041022.90361
  24594946.8224   19376923.83545  15098888.25961
  21637464.8544  -15582100.56047 -12010819.06763
 91  4 25 23  6 30.0020000  0  5G13G 2G15G19G 6
  23043900.6584   -8703990.14546  -6567312.24161
  21681493.5184  -10835078.46848  -8442872.04864
  24632279.1044   -1424871.01246  -1042244.57361
  24604070.4474   19424854.40945  15136236.73161
  21635370.1434  -15593101.50347 -12019391.20263
 91  4 25 23  6 45.0020000  0  5G13G 2G15G19G 6
  23035256.6504   -8749412.42446  -6602706.14561
  21683843.7914  -10822719.67148  -8433241.81164
  24632003.4394   -1426314.27446  -1043369.16761
  24613199.6584   19472833.17745  15173622.73761
  21633288.4394  -15604035.17747 -12027910.92263
 91  4 25 23  7  0.0020000  0  5G13G 2G15G19G 6
  23026628.385    -8794753.884 6  -6638037.08621
  21686204.0104  -10810320.91148  -8423580.43464
  24631749.080    -1427636.631 5  -1044399.55821
  24622335.6584   19520856.15145  15211043.19461
  21631220.252   -15614905.076 7 -12036380.94723
 91  4 25 23  7 15.0020000  0  5G13G 2G15G19G 6
  23018014.471    -8840010.987 6  -6673302.28021
  21688572.5104  -10797878.83148  -8413885.30064
  24631523.0414   -1428834.37146  -1045332.85861
  24631482.572    19568926.585 4  15248500.64321
  21629163.4004  -15625707.48047 -12044798.37663
 91  4 25 23  7 30.0020000  0  5G13G 2G15G19G 6
  23009418.3544   -8885185.84846  -6708503.40061
  21690947.2444  -10785396.36948  -8404158.70164
  24631320.6194   -1429910.09846  -1046171.07361
  24640637.393    19617041.756 5  15285992.93521
  21627121.8694  -15636444.77047 -12053165.06863
 91  4 25 23  7 45.0020000  0  5G13G 2G15G19G 6
  23000837.854    -8930279.839 6  -6743641.51121
  21693329.3544  -10772875.13448  -8394401.89164
  24631138.377    -1430865.399 6  -1046915.45221
  24649801.564    19665200.037 4  15323518.82621
  21625089.6744  -15647118.51347 -12061482.24063
 91  4 25 23  8  0.0020000  0  5G13G 2G15G19G 6
  22992273.049    -8975290.640 6  -6778714.78821
  21695720.760   -10760313.126 8  -8384613.30324
  24630980.8614   -1431698.08446  -1047564.28261
  24658971.510    19713402.947 4  15361079.49521
  21623071.0104  -15657726.42447 -12069748.11663
 91  4 25 23  8 15.0020000  0  5G13G 2G15G19G 6
  22983724.385    -9020216.862 6  -6813722.14421
  21698118.2134  -10747709.15648  -8374792.02664
  24630844.0334   -1432406.42946  -1048116.21761
  24668158.0724   19761651.88344  15398676.01761
  21621065.0024  -15668266.88847 -12077961.43863
 91  4 25 23  8 30.0020000  0  5G13G 2G15G19G 6
  22975189.9634   -9065058.26646  -6848663.43861
  21700525.135   -10735063.551 8  -8364938.29524
  24630732.8074   -1432990.78045  -1048571.54861
  24677343.143    19809946.481 4  15436308.12821
  21619073.1744  -15678740.00847 -12086122.28563
 91  4 25 23  8 45.0020000  0  5G13G 2G15G19G 6
  22966672.0024   -9109818.65946  -6883541.59661
  21702938.9394  -10722380.54748  -8355055.42864
  24630645.6274   -1433455.46846  -1048933.62061
  24686545.7524   19858282.30144  15473972.36261
  21617091.7214  -15689149.85447 -12094233.82263
 91  4 25 23  9  0.0020000  0  5G13G 2G15G19G 6
  22958172.0964   -9154496.39646  -6918355.34861
  21705357.9394  -10709659.01148  -8345142.54164
  24630576.760    -1433798.803 5  -1049201.13921
  24695751.2834   19906660.64644  15511669.73461
  21615124.4944  -15699494.72047 -12102294.72663
 91  4 25 23  9 15.0020000  0  5G13G 2G15G19G 6
  22949684.3384   -9199087.56046  -6953101.64361
  21707789.0334  -10696895.41048  -8335196.86564
  24630541.986    -1434017.024 6  -1049371.16921
  24704970.002    19955084.777 4  15549402.80221
  21613167.4864  -15709770.98447 -12110302.17363
 91  4 25 23  9 30.0020000  0  5G13G 2G15G19G 6
  22941214.7444   -9243592.86246  -6987781.02961
  21710225.3074  -10684090.43948  -8325218.96664
  24630522.400    -1434110.839 6
  24714190.057    20003553.955 4  15587170.96821
  21611225.2294  -15719979.11947 -12118256.53863
 91  4 25 23  9 45.0020000  0  5G13G 2G15G19G 6
  22932763.4164   -9288010.22946  -7022391.90161
  21712670.9634  -10671242.57448  -8315207.63664
  24630523.744    -1434078.496 5
  24723423.9474   20052069.68744  15624975.39761
  21609296.2684  -15730117.17347 -12126156.29063
 91  4 25 23 10  0.0030000  0  5G13G 2G15G19G 6
  22924329.1874   -9332340.30546  -7056934.74961
  21715124.2884  -10658348.93448  -8305160.63664
  24630558.116    -1433917.871 6
  24732668.7804   20100637.19544  15662820.17861
  21607379.835   -15740183.495 7 -12134000.14823
 91  4 25 23 10 15.0030000  0  5G13G 2G15G19G 6
  22915908.9214   -9376576.49646  -7091404.44161
  21717584.9834  -10645410.85648  -8295079.01664
  24630612.343    -1433628.014 6
  24741917.5304   20149250.27045  15700700.46361
  21605480.3124  -15750176.06147 -12141786.53363
 91  4 25 23 10 30.0030000  0  5G13G 2G15G19G 6
  22907508.601    -9420723.197 6  -7125804.39321
  21720054.4444  -10632429.64648  -8284963.77564
  24630690.6474   -1433211.18246  -1048743.13461
  24751177.9994   20197909.81145  15738616.95861
  21603590.132   -15760097.475 7 -12149517.47823
 91  4 25 23 10 45.0030000  0  5G13G 2G15G19G 6
  22899126.8904   -9464777.47346  -7160132.33161
  21722534.6084  -10619402.61948  -8274812.84464
  24630793.9214   -1432664.67645  -1048317.27961
  24760443.6244   20246618.59144  15776571.81961
  21601717.5934  -15769944.69247 -12157190.60463
 91  4 25 23 11  0.0030000  0  5G13G 2G15G19G 6
  22890760.2264   -9508738.97846  -7194387.97961
  21725022.3194  -10606329.85648  -8264626.27064
  24630928.5384   -1431988.48346  -1047790.35761
  24769722.890    20295376.430 4  15814564.91021
  21599857.6244  -15779717.53647 -12164805.77663
 91  4 25 23 11 15.0030000  0  5G13G 2G15G19G 6
  22882412.077    -9552601.991 6  -7228566.87521
  21727520.3194  -10593205.86948  -8254399.78164
  24631080.241    -1431176.528 6  -1047157.63821
  24779009.069    20344188.744 4  15852600.44821
  21598012.3664  -15789410.10747 -12172358.40163
 91  4 25 23 11 30.0030000  0  5G13G 2G15G19G 6
  22874083.866    -9596369.254 6  -7262671.16821
  21730026.5074  -10580033.90148  -8244135.90764
  24631258.2574   -1430232.01146  -1046421.63061
  24788307.7414   20393052.31745  15890675.92061
  21596184.0154  -15799025.42647 -12179850.83263
 91  4 25 23 11 45.0030000  0  5G13G 2G15G19G 6
  22865775.2574   -9640040.81346  -7296700.88661
  21732541.5224  -10566814.32748  -8233834.92964
  24631464.6084   -1429155.10946  -1045582.47461
  24797621.538    20441966.579 5  15928790.89721
  21594368.8584  -15808563.65447 -12187283.18763
 91  4 25 23 12  0.0030000  0  5G13G 2G15G19G 6
  22857483.741    -9683613.945 6  -7330653.90421
  21735067.5624  -10553544.94048  -8223495.14564
  24631693.835    -1427943.305 6  -1044638.20021
  24806929.851    20490933.665 4  15966947.03721
  21592569.0224  -15818022.07947 -12194653.35363
 91  4 25 23 12 15.0030000  0  5G13G 2G15G19G 6
  22849208.640    -9727089.155 6  -7364530.62121
  21737601.1634  -10540226.65048  -8213117.24964
  24631949.608    -1426597.320 6  -1043589.35721
  24816266.530    20539952.739 4  16005143.69721
  21590783.5934  -15827401.43047 -12201961.91563
 91  4 25 23 12 30.0030000  0  5G13G 2G15G19G 6
  22840954.554    -9770462.071 6  -7398327.63521
  21740145.7104  -10526855.46048  -8202698.13664
  24632228.593    -1425112.997 5  -1042432.71721
  24825599.983    20589027.634 4  16043383.82621
  21589013.5544  -15836697.24347 -12209205.37863
 91  4 25 23 12 45.0030000  0  5G13G 2G15G19G 6
  22832720.4834   -9813733.71246  -7432045.73361
  21742698.9764  -10513432.76348  -8192238.88764
  24632540.9134   -1423491.98046  -1041169.58461
  24834957.3904   20638156.79944  16081666.26861
  21587261.0154  -15845910.91147 -12216384.83563
 91  4 25 23 13  0.0030000  0  5G13G 2G15G19G 6
  22824504.7884   -9856903.28046  -7465684.29861
  21745264.9684  -10499957.95048  -8181739.03164
  24632874.5384   -1421733.11545  -1039799.02861
  24844312.0694   20687340.97244  16119991.55561
  21585523.890   -15855041.524 7 -12223499.57323
 91  4 25 23 13 15.0030000  0  5G13G 2G15G19G 6
  22816310.5464   -9899973.14146  -7499245.16061
  21747837.7884  -10486433.64348  -8171200.60564
  24633231.8124   -1419838.75045  -1038322.90261
  24853680.3274   20736577.32244  16158357.50661
  21583801.913   -15864091.286 7 -12230551.31323
 91  4 25 23 13 30.0030000  0  5G13G 2G15G19G 6
  22808132.944    -9942941.328 6  -7532726.80421
  21750420.2184  -10472858.39748  -8160622.48764
  24633623.4054   -1417807.60546  -1036740.16961
  24863061.1634   20785867.16044  16196765.14661
  21582095.351   -15873058.508 7 -12237538.73723
 91  4 25 23 13 45.0030000  0  5G13G 2G15G19G 6
  22799976.765    -9985807.476 6  -7566128.94021
  21753014.2804  -10459232.34648  -8150004.78464
  24634035.608    -1415639.496 6  -1035050.73121
  24872449.6324   20835210.26244  16235214.27461
  21580403.726   -15881943.104 7 -12244461.77623
 91  4 25 23 14  0.0030000  0  5G13G 2G15G19G 6
  22791837.3744  -10028570.39546  -7599450.62861
  21755617.1084  -10445554.41448  -8139346.65464
  24634477.9764   -1413333.39246  -1033253.76361
  24881850.358    20884607.622 4  16273705.70921
  21578729.788   -15890743.660 7 -12251319.32623
 91  4 25 23 14 15.0030000  0  5G13G 2G15G19G 6
  22783722.0854  -10071233.23846  -7632694.34261
  21758227.7494  -10431828.20148  -8128650.89864
  24634939.101    -1410892.604 6  -1031351.84021
  24891262.1714   20934055.59244  16312236.54561
  21577070.491   -15899463.483 7 -12258113.97323
 91  4 25 23 14 30.0030000  0  5G13G 2G15G19G 6
  22775620.2724  -10113800.09046  -7665863.25961
  21760850.4134  -10418058.07048  -8117920.93164
  24635427.4524   -1408321.10945  -1029348.07361
  24900674.999    20983549.723 4  16350803.36721
  21575425.046   -15908106.571 7 -12264848.82623
 91  4 25 23 14 45.0030000  0  5G13G 2G15G19G 6
  22767538.515   -10156265.558 6  -7698953.17021
  21763477.2104  -10404238.94048  -8107152.77264
  24635942.9684   -1405613.75245  -1027238.43261
  24910109.6634   21033094.98844  16389410.04361
  21573797.468   -15916667.760 7 -12271519.86123
 91  4 25 23 15  0.0030000  0  5G13G 2G15G19G 6
  22759476.812   -10198629.311 6  -7731963.83221
  21766118.9294  -10390371.04548  -8096346.61864
  24636483.8824   -1402770.46545  -1025022.87761
  24919547.6084   21082691.23444  16428056.43261
  21572182.335   -15925146.663 7 -12278126.77823
 91  4 25 23 15 15.0030000  0  5G13G 2G15G19G 6
  22751435.437   -10240891.603 6  -7764895.42621
  21768765.7024  -10376455.08148  -8085503.00764
  24637053.6164   -1399791.86846  -1022701.89461
  24928989.8584   21132337.62843  16466741.90361
  21570586.929   -15933543.768 7 -12284669.95323
 91  4 25 23 15 30.0030000  0  5G13G 2G15G19G 6
  22743413.343   -10283054.494 6  -7797749.57721
  21771422.2414  -10362493.51448  -8074623.86364
  24637642.6084   -1396680.28346  -1020277.26861
  24938446.3514   21182031.62644  16505464.46761
  21569001.812   -15941861.253 7 -12291151.09623
 91  4 25 23 15 45.0030000  0  5G13G 2G15G19G 6
  22735408.6164  -10325112.07646  -7830521.65461
  21774091.0854  -10348480.64048  -8063704.74264
  24638262.7574   -1393430.01346  -1017744.59661
  24947920.1554   21231778.68344  16544228.37661
  21567438.218   -15950093.297 7 -12297565.65423
 91  4 25 23 16  0.0030000  0  5G13G 2G15G19G 6
  22727424.522   -10367065.186 6  -7863212.33121
  21776764.5304  -10334418.03548  -8052746.87164
  24638908.304    -1390042.474 6  -1015104.94121
  24957391.249    21281577.279 3  16583032.44821
  21565884.101   -15958241.037 7 -12303914.52623
 91  4 25 23 16 15.0030000  0  5G13G 2G15G19G 6
  22719462.1634  -10408913.08046  -7895821.01961
  21779451.0934  -10320304.93548  -8041749.64364
  24639577.7574   -1386516.76646  -1012357.63061
  24966874.2414   21331427.91243  16621877.04861
  21564351.507   -15966303.513 7 -12310196.95123
 91  4 25 23 16 30.0030000  0  5G13G 2G15G19G 6
  22711517.1164  -10450658.24146  -7928349.66361
  21782144.6874  -10306144.24648  -8030715.34664
  24640272.5854   -1382855.72146  -1009504.86861
  24976370.882    21381327.665 3  16660759.94721
  21562833.046   -15974283.330 7 -12316414.97023
 91  4 25 23 16 45.0030000  0  5G13G 2G15G19G 6
  22703594.3664  -10492296.23546  -7960794.80161
  21784851.4444  -10291932.03048  -8019640.88864
  24640998.1554   -1379055.11146  -1006543.34161
  24985875.421    21431280.509 3  16699684.19121
  21561330.327   -15982176.299 7 -12322565.31823
 91  4 25 23 17  0.0030000  0  5G13G 2G15G19G 6
  22695690.116   -10533829.991 6  -7993158.71421
  21787564.3664  -10277671.32148  -8008528.64864
  24641745.851    -1375117.502 6  -1003475.07121
  24995398.812    21481283.384 3  16738647.44221
  21559844.726   -15989985.034 7 -12328650.02523
 91  4 25 23 17 15.0030000  0  5G13G 2G15G19G 6
  22687807.9054  -10575258.16346  -8025440.34961
  21790286.7494  -10263361.24848  -7997377.93864
  24642521.6324   -1371042.32046  -1000299.61561
  25004919.4914   21531337.00843  16777650.22661
  21558374.819   -15997708.316 7 -12334668.14723
 91  4 25 23 17 30.0030000  0  5G13G 2G15G19G 6
  22679943.272   -10616578.589 6  -8057638.03321
  21793020.6324  -10248999.91048  -7986187.28264
  24643323.4444   -1366827.47346   -997015.29861
  25014452.5464   21581443.15944  16816693.91861
  21556921.655   -16005344.196 7 -12340618.16423
 91  4 25 23 17 45.0030000  0  5G13G 2G15G19G 6
  22672101.9294  -10657790.41346  -8089751.07761
  21795762.4214  -10234586.52948  -7974956.07864
  24644149.4054   -1362472.17246   -993621.56361
  25024001.7024   21631602.36344  16855779.01461
  21555485.007   -16012891.562 7 -12346499.21623
 91  4 25 23 18  0.0030000  0  5G13G 2G15G19G 6
  22664280.0694  -10698894.74846  -8121780.37661
  21798514.8904  -10220122.66948  -7963685.53464
  24645006.8584   -1357977.68046   -990119.36361
  25033553.3434   21681813.15144  16894904.26761
  21554067.265   -16020351.718 7 -12352312.29224
 91  4 25 23 18 15.0030000  0  5G13G 2G15G19G 6
  22656477.7334  -10739892.25646  -8153726.43061
  21801277.6714  -10205609.59548  -7952376.64664
  24645888.960    -1353345.012 6   -986509.46921
  25043118.0154   21732074.11744  16934068.60761
  21552662.085   -16027725.601 7 -12358058.15423
 91  4 25 23 18 30.0030000  0  5G13G 2G15G19G 6
  22648697.1244  -10780779.18146  -8185586.31161
  21804048.7574  -10191043.98948  -7941026.82364
  24646797.5384   -1348570.87246   -982789.36661
  25052695.2654   21782388.52344  16973274.62561
  21551275.468   -16035009.530 7 -12363733.92323
 91  4 25 23 18 45.0030000  0  5G13G 2G15G19G 6
  22640936.3044  -10821560.05946  -8217363.55761
  21806830.6014  -10176430.63348  -7929639.79564
  24647733.3434   -1343659.95846   -978962.66961
  25062276.5384   21832751.32344  17012518.33661
  21549906.858   -16042208.040 7 -12369343.13323
 91  4 25 23 19  0.0030000  0  5G13G 2G15G19G 6
  22633198.366   -10862234.032 6  -8249057.51221
  21809618.8744  -10161768.93048  -7918215.09364
  24648689.9134   -1338611.38946   -975028.71461
  25071868.413    21883163.077 4  17051800.17821
  21548552.796   -16049320.138 7 -12374885.00423
 91  4 25 23 19 15.0030000  0  5G13G 2G15G19G 6
  22625478.1554  -10902802.43446  -8280669.18961
  21812418.6014  -10147060.86848  -7906754.26464
  24649681.858    -1333426.918 6   -970988.85721
  25081474.5934   21933621.79744  17091118.62561
  21547215.483   -16056347.631 7 -12380360.95323
 91  4 25 23 19 30.0030000  0  5G13G 2G15G19G 6
  22617778.0854  -10943264.40846  -8312197.94361
  21815227.1794  -10132305.70948  -7895256.73664
  24650693.608    -1328105.906 6   -966842.59821
  25091084.077    21984127.967 4  17130474.05321
  21545895.569   -16063289.560 7 -12385770.22323
 91  4 25 23 19 45.0030000  0  5G13G 2G15G19G 6
  22610098.7184  -10983618.31446  -8343642.48561
  21818042.8974  -10117502.05548  -7883721.42164
  24651729.7334   -1322646.98845   -962588.89761
  25100703.7654   22034683.13344  17169867.65561
  21544591.976   -16070144.244 7 -12391111.51523
 91  4 25 23 20  0.0030000  0  5G13G 2G15G19G 6
  22602438.983   -11023865.343 6  -8375003.74821
  21820870.1084  -10102651.46148  -7872149.52663
  24652796.483    -1317051.516 5   -958228.77921
  25110329.3274   22085285.60944  17209298.11761
  21543302.749   -16076912.936 7 -12396385.79823
 91  4 25 23 20 15.0030000  0  5G13G 2G15G19G 6
  22594802.882   -11064000.346 6  -8406277.72221
  21823704.5224  -10087749.09548  -7860537.29764
  24653885.9604   -1311314.36445   -953758.29461
  25119972.3974   22135940.05343  17248769.09361
  21542031.8434  -16083590.38547 -12401588.98063
 91  4 25 23 20 30.0030000  0  5G13G 2G15G19G 6
  22587187.194   -11104025.612 6  -8437466.17621
  21826551.5854  -10072797.55148  -7848886.73964
  24655005.913    -1305438.198 5   -949179.45421
  25129615.437    22186643.876 3  17288278.54621
  21540778.054   -16090179.104 7 -12406723.02223
 91  4 25 23 20 45.0030000  0  5G13G 2G15G19G 6
  22579589.9684  -11143941.47146  -8468569.38861
  21829404.6474  -10057797.91248  -7837198.70764
  24656150.202    -1299423.841 5   -944492.93621
  25139278.304    22237395.902 3  17327825.55321
  21539542.147   -16096679.676 7 -12411788.38323
 91  4 25 23 21  0.0030000  0  5G13G 2G15G19G 6
  22572016.2264  -11183749.61846  -8499588.66161
  21832267.1324  -10042751.98948  -7825474.60864
  24657321.1944   -1293272.85945   -939699.96961
  25148942.007    22288194.012 3  17367408.46621
  21538321.460   -16103093.830 7 -12416786.39923
 91  4 25 23 21 15.0030000  0  5G13G 2G15G19G 6
  22564460.5694  -11223445.28546  -8530520.28561
  21835140.1714  -10027655.09648  -7813710.79364
  24658521.522    -1286980.691 5   -934796.96821
  25158615.851    22339042.838 3  17407030.90121
  21537117.897   -16109416.539 7 -12421713.16623
 91  4 25 23 21 30.0030000  0  5G13G 2G15G19G 6
  22556928.585   -11263033.121 6  -8561367.89521
  21838023.1554  -10012512.39348  -7801911.28764
  24659740.9134   -1280552.44545   -929787.94361
  25168303.858    22389937.017 3  17446688.68021
  21535930.804   -16115652.808 7 -12426572.56823
 91  4 25 23 21 45.0030000  0  5G13G 2G15G19G 6
  22549413.7724  -11302510.37046  -8592129.32361
  21840914.4214   -9997321.38448  -7790074.12964
  24660990.233    -1273985.389 5   -924670.74421
  25177999.0694   22440879.11943  17486383.80761
  21534759.522   -16121799.676 7 -12431362.32023
 91  4 25 23 22  0.0030000  0  5G13G 2G15G19G 6
  22541924.897   -11341879.122 7  -8622806.22221
  21843811.7574   -9982084.44648  -7778201.19364
  24662266.1874   -1267281.73245   -919447.10961
  25187699.4764   22491866.47343  17526114.19161
  21533607.897   -16127859.303 7 -12436084.08123
 91  4 25 23 22 15.0030000  0  4G13G 2G15G 6
  22534451.6714  -11381137.27346  -8653396.92661
  21846722.0304   -9966800.03248  -7766291.25864
  24663571.7574   -1260439.68145   -914115.64061
  21532473.069   -16133829.627 7 -12440736.26223
 91  4 25 23 22 30.0030000  0  4G13G 2G15G 6
  22527003.108   -11420285.356 7  -8683901.87621
  21849637.8744   -9951468.82848  -7754344.86764
  24664896.2104   -1253460.08245   -908676.98161
  21531352.452   -16139711.319 7 -12445319.37623
 91  4 25 23 22 45.0030000  0  4G13G 2G15G 6
  22519574.5694  -11459326.45247  -8714323.45061
  21852564.0854   -9936094.30248  -7742364.71564
  24666252.7494   -1246346.39445   -903133.86361
  21530247.507   -16145507.545 7 -12449835.89823
 91  4 25 23 23  0.0030000  0  4G13G 2G15G 6
  22512165.390   -11498259.033 7  -8744660.47521
  21855498.7494   -9920675.40148  -7730349.98564
  24667628.7964   -1239096.96345   -897484.95561
  21529162.937   -16151216.953 7 -12454284.76823
 91  4 25 23 23 15.0030000  0  4G13G 2G15G 6
  22504776.819   -11537080.385 7  -8774910.82421
  21858441.0224   -9905209.52648  -7718298.65164
  24669035.7804   -1231709.43345   -891728.43661
  21528092.241   -16156836.650 7 -12458663.73623
 91  4 25 23 23 30.0030000  0  4G13G 2G15G 6
  22497410.3434  -11575795.11947  -8805078.09161
  21861392.1404   -9889701.67948  -7706214.61364
  24670469.7494   -1224188.65845   -885868.08361
  21527038.913   -16162371.523 7 -12462976.60023
 91  4 25 23 23 45.0030000  0  4G13G 2G15G 6
  22490066.343   -11614394.459 7  -8835155.45121
  21864352.7884   -9874143.44148  -7694091.30764
  24671928.7184   -1216526.26845   -879897.37561
  21526003.335   -16167812.742 7 -12467216.49123
 91  4 25 23 24  0.0030000  0  4G13G 2G15G 6
  22482739.983   -11652883.335 6  -8865146.72621
  21867322.1634   -9858539.89748  -7681932.70164
  24673411.608    -1208727.408 5   -873820.33421
  21524986.452   -16173165.234 7 -12471387.24323
 91  4 25 23 24 15.0030000  0  4G13G 2G15G 6
  22475437.7574  -11691259.60947  -8895050.26261
  21870300.9294   -9842889.56248  -7669737.63264
  24674918.5774   -1200790.07245   -867635.40861
  21523983.827   -16178426.991 7 -12475487.29723
 91  4 25 23 24 30.0030000  0  4G13G 2G15G 6
  22468155.9374  -11729527.10446  -8924869.02861
  21873287.7884   -9827196.25548  -7657509.07964
  24676455.7414   -1192718.09345   -861345.55861
  21522999.452   -16183601.716 7 -12479519.53123
 91  4 25 23 24 45.0030000  0  4G13G 2G15G 6
  22460892.343   -11767688.860 6  -8954605.40921
  21876282.2654   -9811463.36848  -7645249.68564
  24678018.1084   -1184515.06245   -854953.57961
  21522030.843   -16188692.466 7 -12483486.33223
 91  4 25 23 25  0.0030000  0  4G13G 2G15G 6
  22453653.382   -11805737.771 6  -8984253.85821
  21879282.8584   -9795684.30748  -7632954.30864
  24679601.491    -1176174.181 5   -848454.18421
  21521081.522   -16193692.405 7 -12487382.36723
 91  4 25 23 25 15.0030000  0  4G13G 2G15G 6
  22446433.726   -11843676.074 7  -9013816.11721
  21882293.4994   -9779861.44848  -7620624.80764
  24681216.0854   -1167697.42345   -841848.91461
  21520144.562   -16198603.723 7 -12491209.34623
 91  4 25 23 25 30.0030000  0  4G13G 2G15G 6
  22439235.999   -11881504.260 7  -9043292.56921
  21885313.4604   -9763995.37748  -7608261.62864
  24682858.2884   -1159085.58345   -835138.39661
  21519229.030   -16203426.692 7 -12494967.48423
 91  4 25 23 25 45.0030000  0  4G13G 2G15G 6
  22432060.022   -11919214.985 7  -9072677.50121
  21888342.4134   -9748079.52548  -7595859.66564
  24684519.9374   -1150331.85645   -828317.31461
  21518327.851   -16208154.405 7 -12498651.40123
 91  4 25 23 26  0.0030000  0  4G13G 2G15G 6
  22424903.562   -11956816.339 7  -9101977.19921
  21891378.0854   -9732122.17248  -7583425.36264
  24686213.2494   -1141444.74445   -821392.29061
  21517444.343   -16212795.010 7 -12502267.43823
 91  4 25 23 26 15.0030000  0  4G13G 2G15G 6
  22417769.741   -11994309.936 7  -9131192.93821
  21894422.3974   -9716125.20048  -7570960.18664
  24687926.702    -1132425.758 5   -814364.50521
  21516577.022   -16217349.937 7 -12505816.71323
 91  4 25 23 26 30.0030000  0  4G13G 2G15G 6
  22410654.7654  -12031690.43147  -9160320.54061
  21897474.6714   -9700083.54048  -7558460.18964
  24689671.483    -1123270.021 5   -807230.15821
  21515728.546   -16221813.990 7 -12509295.17923
 91  4 25 23 26 45.0030000  0  4G13G 2G15G 6
  22403563.765   -12068957.170 7  -9189359.50921
  21900537.8124   -9683996.88648  -7545925.12964
  24691440.8044   -1113976.94545   -799988.81761
  21514896.647   -16226186.520 7 -12512702.32823
 91  4 25 23 27  0.0030000  0  4G13G 2G15G 6
  22396492.921   -12106111.733 7  -9218311.06321
  21903605.1404   -9667867.02548  -7533356.40464
  24693234.3824   -1104548.46445   -792641.93661
  21514081.843   -16230469.044 7 -12516039.34223
 91  4 25 23 27 15.0030000  0  4G13G 2G15G 6
  22389446.069   -12143154.647 7  -9247175.61721
  21906682.6014   -9651694.84048  -7520754.70464
  24695050.272    -1094985.377 5   -785190.16821
  21513283.390   -16234662.260 7 -12519306.76623
 91  4 25 23 27 30.0030000  0  4G13G 2G15G 6
  22382416.921   -12180084.817 7  -9275952.31821
  21909770.4524   -9635479.64948  -7508119.48864
  24696898.726    -1085286.540 5   -777632.64721
  21512502.476   -16238765.046 7 -12522503.72523
 91  4 25 23 27 45.0030000  0  4G13G 2G15G 6
  22375410.937   -12216900.988 7  -9304640.18721
  21912863.7264   -9619220.22248  -7495449.80764
  24698768.140    -1075451.005 5   -769968.59821
  21511736.788   -16242776.079 7 -12525629.19223
 91  4 25 23 28  0.0030000  0  4G13G 2G15G 6
  22368424.601   -12253607.811 7  -9333242.86221
  21915966.0934   -9602921.42448  -7482749.44064
  24700670.8744   -1065483.58045   -762201.79161
  21510992.280   -16246699.957 7 -12528686.74023
 91  4 25 23 28 15.0030000  0  4G13G 2G15G 6
  22361463.601   -12290201.876 7  -9361757.66421
  21919073.2414   -9586580.51148  -7470016.26264
  24702590.851    -1055381.289 5   -754329.87521
  21510262.562   -16250533.563 7 -12531673.94923
 91  4 25 23 28 30.0030000  0  4G13G 2G15G 6
  22354519.554   -12326683.655 7  -9390184.96721
  21922190.4914   -9570198.28948  -7457250.88964
  24704539.0774   -1045144.99745   -746353.54261
  21509550.507   -16254277.377 7 -12534591.19323
 91  4 25 23 28 45.0030000  0  4G13G 2G15G 6
  22347599.655   -12363055.186 7  -9418526.36821
  21925316.2184   -9553776.90848  -7444455.00964
  24706510.8584   -1034776.79845   -738274.42261
  21508854.687   -16257933.457 7 -12537440.06623
 91  4 25 23 29  0.0030000  0  4G13G 2G15G 6
  22340697.757   -12399314.071 7  -9446779.99021
  21928448.5934   -9537314.43348  -7431627.10364
  24708507.5854   -1024274.47345   -730090.81561
  21508177.366   -16261499.505 7 -12540218.79023
 91  4 25 23 29 15.0030000  0  4G13G 2G15G 6
  22333820.2104  -12435459.10447  -9474944.89561
  21931589.1244   -9520809.75448  -7418766.31564
  24710532.0624   -1013637.27245   -721802.09961
  21507515.132   -16264974.357 7 -12542926.45423
 91  4 25 23 29 30.0030000  0  4G13G 2G15G 6
  22326965.812   -12471491.949 7  -9503022.38921
  21934738.0854   -9504264.92448  -7405874.23464
  24712581.8354   -1002867.05245   -713409.70761
  21506871.085   -16268359.486 7 -12545564.20223
 91  4 25 23 29 45.0030000  0  4G13G 2G15G 6
  22320128.280   -12507408.805 7  -9531009.49521
  21937894.3044   -9487676.30448  -7392948.04064
  24714661.0934    -991959.91845   -704910.64461
  21506242.858   -16271651.197 7 -12548129.15223
 91  4 25 23 30  0.0030000  0  4G13G 2G15G 6
  22313315.960   -12543209.340 7  -9558905.96521
  21941061.0544   -9471043.88348  -7379987.70764
  24716755.976     -980915.662 5   -696304.74621
  21505635.577   -16274849.107 7 -12550621.01323
 91  4 25 23 30 15.0030000  0  4G13G 2G15G 6
  22306524.968   -12578894.932 7  -9586712.87121
  21944233.8584   -9454369.24348  -7366994.48464
  24718885.233     -969736.193 5   -687593.46821
  21505045.804   -16277954.652 7 -12553040.90323
 91  4 25 23 30 30.0030000  0  4G13G 2G15G 6
  22299756.288   -12614464.684 7  -9614429.51421
  21947413.4524   -9437652.00748  -7353968.06364
  24721038.4764    -958420.94245   -678776.42461
  21504473.062   -16280967.015 7 -12555388.17823
 91  4 25 23 30 45.0030000  0  4G13G 2G15G 6
  22293009.515   -12649916.788 7  -9642054.48221
  21950602.7024   -9420890.68748  -7340907.29264
  24723224.5154    -946968.54045   -669852.45661
  21503917.1014  -16283884.51547 -12557661.54463
 91  4 25 23 31  0.0030000  0  4G13G 2G15G 6
  22286284.358   -12685253.813 7  -9669589.77421
  21953802.0464   -9404088.05348  -7327814.32764
  24725425.4294    -935381.72545   -660823.79361
  21503378.616   -16286709.777 7 -12559863.02823
 91  4 25 23 31 15.0030000  0  4G13G 2G15G 6
  22279587.3354  -12720474.03547  -9697034.05961
  21957006.7184   -9387242.45648  -7314687.88964
  24727655.335     -923658.966 5   -651689.19621
  21502857.608   -16289440.975 7 -12561991.21823
 91  4 25 23 31 30.0030000  0  4G13G 2G15G 6
  22272904.351   -12755578.965 7  -9724388.50721
  21960219.8744   -9370355.87448  -7301529.50764
  24729909.952     -911801.904 5   -642449.94821
  21502357.069   -16292079.632 7 -12564047.29223
 91  4 25 23 31 45.0030000  0  4G13G 2G15G 6
  22266247.077   -12790567.322 7  -9751652.10921
  21963441.2964   -9353427.31548  -7288338.42564
  24732194.6084    -899809.42245   -633105.17261
  21501872.093   -16294624.603 7 -12566030.36823
 91  4 25 23 32  0.0030000  0  4G13G 2G15G 6
  22259609.843   -12825437.834 7  -9778823.88921
  21966671.5224   -9336455.79548  -7275113.86264
  24734499.8744    -887680.61445   -623654.16161
  21501406.280   -16297074.573 7 -12567939.41523
 91  4 25 23 32 15.0030000  0  4G13G 2G15G 6
  22252996.522   -12860188.225 7  -9805902.07221
  21969908.5304   -9319439.35348  -7261854.29364
  24736837.194     -875413.530 5   -614095.40621
  21500959.944   -16299427.395 7 -12569772.76623
 91  4 25 23 32 30.0030000  0  4G13G 2G15G 6
  22246408.116   -12894817.058 7  -9832885.52721
  21973156.7024   -9302376.81048  -7248558.80564
  24739195.538     -863007.039 5   -604428.02921
  21500529.913   -16301681.676 7 -12571529.33323
 91  4 25 23 32 45.0030000  0  4G13G 2G15G 6
  22239842.608   -12929320.184 7  -9859771.03821
  21976412.1404   -9285264.22848  -7235224.32664
  24741582.8274    -850456.89145   -594648.70661
  21500120.772   -16303833.043 7 -12573205.70423
 91  4 25 23 33  0.0030000  0  4G13G 2G15G 6
  22233298.765   -12963701.316 7  -9886561.48421
  21979680.0304   -9268105.45548  -7221853.84864
  24743999.335     -837766.975 5   -584760.48521
  21499730.577   -16305885.304 7 -12574804.84123
 91  4 25 23 33 15.0030000  0  4G13G 2G15G 6
  22226780.358   -12997958.721 7  -9913255.52121
  21982951.4374   -9250899.03948  -7208446.25164
  24746443.093     -824936.068 5   -574762.37421
  21499360.241   -16307836.726 7 -12576325.41823
 91  4 25 23 33 30.0030000  0  4G13G 2G15G 6
  22220286.4684  -13032088.63947  -9939850.22061
  21986235.6164   -9233641.62748  -7194998.91364
  24748911.718     -811960.934 5   -564651.89321
  21499006.968   -16309683.780 7 -12577764.66823
 91  4 25 23 33 45.0030000  0  4G13G 2G15G 6
  22213815.155   -13066093.707 7  -9966347.62921
  21989528.4214   -9216336.15348  -7181514.12764
  24751409.343     -798844.289 5   -554431.15121
  21498674.780   -16311428.978 7 -12579124.54123
 91  4 25 23 34  0.0030000  0  4G13G 2G15G 6
  22207366.804   -13099974.823 7  -9992748.45121
  21992830.9294   -9198983.91248  -7167992.89464
  24753928.780     -785587.066 5   -544100.86221
  21498363.194   -16313073.243 7 -12580405.76523
 91  4 25 23 34 15.0030000  0  4G13G 2G15G 6
  22200943.374   -13133731.466 7 -10019052.28621
  21996143.0854   -9181584.44048  -7154434.85964
  24756483.9764    -772189.11346   -533660.91061
  21498067.812   -16314616.070 7 -12581607.95323
 91  4 25 23 34 30.0030000  0  4G13G 2G15G 6
  22194544.093   -13167360.209 7 -10045256.45321
  21999464.0224   -9164134.56648  -7140837.55064
  24759053.2334    -758647.31746   -523108.87361
  21497795.265   -16316054.019 7 -12582728.41123
 91  4 25 23 34 45.0030000  0  4G13G 2G15G 6
  22188168.335   -13200865.056 7 -10071364.08421
  22002791.2264   -9146638.84248  -7127204.51164
  24761661.5854    -744965.89145   -512448.01361
  21497540.155   -16317391.191 7 -12583770.34423
 91  4 25 23 35  0.0030000  0  4G13G 2G15G 6
  22181815.812   -13234245.312 7 -10097374.62821
  22006132.2264   -9129096.71648  -7113535.32064
  24764288.624     -731144.550 6   -501678.16921
  21497305.851   -16318626.920 7 -12584733.23023
 91  4 25 23 35 15.0030000  0  4G13G 2G15G 6
  22175488.7724  -13267499.81947 -10123287.19461
  22009476.3124   -9111506.99948  -7099829.04664
  24766949.913     -717182.237 6   -490798.45521
  21497089.757   -16319759.913 7 -12585616.05723
 91  4 25 23 35 30.0030000  0  4G13G 2G15G 6
  22169182.0544  -13300633.48647 -10149105.59161
  22012833.7024   -9093874.82048  -7086089.67864
  24769631.8584    -703083.94946   -479812.78561
  21496892.491   -16320795.133 7 -12586422.70623
 91  4 25 23 35 45.0030000  0  4G13G 2G15G 6
  22162901.374   -13333644.853 7 -10174828.69021
  22016196.3664   -9076199.16948  -7072316.44064
  24772339.1634    -688848.65046   -468720.36461
  21496712.257   -16321731.190 7 -12587152.08323
 91  4 25 23 36  0.0030000  0  4G13G 2G15G 6
  22156641.585   -13366537.030 7 -10200458.91821
  22019567.6084   -9058483.43848  -7058511.96964
  24775072.2024    -674479.71846   -457523.80461
  21496555.358   -16322571.123 7 -12587806.55723
 91  4 25 23 36 15.0030000  0  4G13G 2G15G 6
  22150405.7574  -13399302.06047 -10225990.06861
  22022948.7804   -9040719.59648  -7044670.00964
  24777834.015     -659969.107 6   -446216.85321
  21496413.741   -16323306.846 7 -12588379.83423
 91  4 25 23 36 30.0030000  0  4G13G 2G15G 6
  22144196.577   -13431936.846 7 -10251419.73421
  22026338.7724   -9022905.05248  -7030788.54264
  24780620.6634    -645314.29646   -434797.53361
  21496296.499   -16323935.504 7 -12588869.67723
 91  4 25 23 36 45.0030000  0  4G13G 2G15G 6
  22138010.624   -13464446.179 7 -10276751.63921
  22029736.9764   -9005045.08548  -7016871.68264
  24783436.608     -630520.440 6   -423269.88021
  21496194.155   -16324461.963 7 -12589279.88823
 91  4 25 23 37  0.0030000  0  4G13G 2G15G 6
  22131849.062   -13496827.303 7 -10301983.63621
  22033144.9834   -8987137.23948  -7002917.51564
  24786279.1944    -615584.78246   -411631.70861
  21496116.827   -16324883.460 7 -12589608.31023
 91  4 25 23 37 15.0030000  0  4G13G 2G15G 6
  22125709.757   -13529080.297 7 -10327115.78921
  22036561.5074   -8969181.64148  -6988926.13564
  24789146.413     -600507.861 6   -399883.47621
  21496053.733   -16325200.098 7 -12589855.02323
 91  4 25 23 37 30.0030000  0  4G13G 2G15G 6
  22119596.577   -13561205.482 7 -10352148.35921
  22039986.4214   -8951178.69748  -6974897.86764
  24792048.2264    -585290.02546   -388025.43361
  21496015.632   -16325412.053 7 -12590020.16523
 91  4 25 23 37 45.0030000  0  4G13G 2G15G 6
  22113507.257   -13593202.440 7 -10377081.00721
  22043422.1944   -8933128.29248  -6960832.60764
  24794972.2724    -569931.22546   -376057.54261
  21495992.749   -16325518.885 7
 91  4 25 23 38  0.0030000  0  4G13G 2G15G 6
  22107442.968   -13625070.969 7 -10401913.58621
  22046866.7104   -8915030.43348  -6946730.37664
  24797914.468     -554431.372 5   -363979.75421
  21495993.226   -16325520.366 7
 91  4 25 23 38 15.0030000  0  4G13G 2G15G 6
  22101403.155   -13656811.283 7 -10426646.25021
  22050318.6324   -8896885.65148  -6932591.58064
  24800894.835     -538791.223 6   -351792.64221
  21496013.640   -16325416.770 7
 91  4 25 23 38 30.0030000  0  4G13G 2G15G 6
  22095388.327   -13688421.044 7 -10451277.18521
  22053781.0384   -8878691.86848  -6918414.60564
  24803896.733     -523008.595 5   -339494.49221
  21496052.913   -16325205.796 7
 91  4 25 23 38 45.0030000  0  4G13G 2G15G 6
  22089399.1404  -13719899.88647 -10475806.11361
  22057252.7574   -8860448.69948  -6904199.14464
  24806927.8274    -507083.11646   -327085.05061
  21496115.296   -16324886.912 7
 91  4 25 23 39  0.0030000  0  4G13G 2G15G 6
  22083433.1244  -13751249.81247 -10500234.58561
  22060731.8124   -8842158.52548  -6889947.06464
  24809986.2024    -491017.16646   -314566.13461
  21496196.413   -16324462.501 7 -12589280.14623
 91  4 25 23 39 15.0030000  0  4G13G 2G15G 6
  22077491.1714  -13782471.66447 -10524563.25661
  22064221.5154   -8823822.58548  -6875659.31464
  24813069.718     -474811.986 6   -301938.75321
  21496297.827   -16323933.137 7 -12588867.63223
 91  4 25 23 39 30.0030000  0  4G13G 2G15G 6
  22071575.3664  -13813561.22347 -10548788.84761
  22067721.0384   -8805436.97948  -6861332.86464
  24816177.983     -458463.648 6   -289199.78921
  21496416.397   -16323294.780 7 -12588370.19523
 91  4 25 23 39 45.0030000  0  4G13G 2G15G 6
  22065684.077   -13844523.215 7 -10572915.03421
  22071227.8124   -8787006.58948  -6846971.52064
  24819319.304     -441977.132 6   -276353.17521
  21496559.116   -16322552.156 7 -12587791.50923
 91  4 25 23 40  0.0030000  0  4G13G 2G15G 6
  22059816.4054  -13875354.38947 -10596939.28361
  22074743.8664   -8768528.09248  -6832572.69064
  24822483.319     -425349.406 6   -263396.52121
  21496718.569   -16321701.731 7 -12587128.82323
 91  4 25 23 40 15.0030000  0  4G13G 2G15G 6
  22053975.2334  -13906058.20347 -10620864.29561
  22078268.7184   -8750005.27048  -6818139.32464
  24825674.3904    -408584.03246   -250332.61661
  21496900.405   -16320747.130 7 -12586384.96123
 91  4 25 23 40 30.0030000  0  4G13G 2G15G 6
  22048155.6554  -13936629.92047 -10644686.37061
  22081802.7024   -8731434.02348  -6803668.21564
  24828887.9764    -391676.65746   -237158.04361
  21497105.312   -16319683.684 7 -12585556.28323
 91  4 25 23 40 45.0030000  0  4G13G 2G15G 6
  22042364.452   -13967069.385 7 -10668405.40021
  22085347.0384   -8712813.91148  -6789159.03964
  24832136.4294    -374627.29746   -223872.84861
  21497327.155   -16318511.137 7 -12584642.59523
 91  4 25 23 41  0.0030000  0  4G13G 2G15G 6
  22036595.296   -13997382.462 7 -10692025.93021
  22088897.0694   -8694151.08148  -6774616.56764
  24835404.546     -357442.063 6   -210481.77021
  21497570.007   -16317235.250 7 -12583648.37923
 91  4 25 23 41 15.0030000  0  4G13G 2G15G 6
  22030851.3664  -14027570.80447 -10715549.28461
  22092456.9684   -8675447.52648  -6760042.36664
  24838703.343     -340123.004 6   -196986.40321
  21497832.788   -16315857.798 7 -12582575.02623
 91  4 25 23 41 30.0030000  0  4G13G 2G15G 6
  22025131.358   -14057631.501 7 -10738973.15921
  22096023.2104   -8656700.76548  -6745434.49864
  24842024.4604    -322667.61846   -183384.81461
  21498114.507   -16314376.098 7 -12581420.44323
 91  4 25 23 41 45.0030000  0  4G13G 2G15G 6
  22019432.8274  -14087568.44947 -10762300.60762
  22099599.2184   -8637914.70048  -6730795.99964
  24845365.6164    -305079.80345   -169680.04561
  21498415.007   -16312793.737 7 -12580187.41823
 91  4 25 23 42  0.0030000  0  4G13G 2G15G 6
  22013761.0544  -14117381.12347 -10785531.21861
  22103182.9524   -8619088.96248  -6716126.59664
  24848738.4834    -287359.15245   -155871.76061
  21498734.702   -16311110.295 7 -12578875.63223
 91  4 25 23 42 15.0030000  0  4G13G 2G15G 6
  22008110.3124  -14147065.05247 -10808661.51861
  22106773.5694   -8600219.38348  -6701423.02264
  24852140.5384    -269501.58845   -141956.80461
  21499075.124   -16309321.114 7 -12577481.44623
 91  4 25 23 42 30.0030000  0  4G13G 2G15G 6
  22002485.694   -14176621.959 7 -10831692.83121
  22110370.9764   -8581308.02848  -6686686.89764
  24855557.9914    -251509.18245   -127936.75261
  21499435.851   -16307428.219 7 -12576006.45123
 91  4 25 23 42 45.0030000  0  4G13G 2G15G 6
  21996887.0854  -14206050.49647 -10854624.12761
  22113977.7804   -8562353.61548  -6671917.22564
  24859012.4604    -233380.95545   -113810.89861
  21499813.4444  -16305430.22947 -12574449.56663
 91  4 25 23 43  0.0030000  0  4G13G 2G15G 6
  21991308.772   -14235360.178 7 -10877462.80021
  22117591.7494   -8543365.86648  -6657121.57364
  24862486.2574    -215126.73245    -99586.85361
  21500215.226   -16303336.565 7 -12572818.12923
 91  4 25 23 43 15.0030000  0  4G13G 2G15G 6
  21985754.6014  -14264546.87647 -10900205.64661
  22121209.9994   -8524340.82548  -6642296.85964
  24865984.4524    -196742.25345    -85261.30161
  21500630.976   -16301143.022 7 -12571108.86323
 91  4 25 23 43 30.0030000  0  4G13G 2G15G 6
  21980222.6714  -14293618.43847 -10922858.77761
  22124837.4684   -8505286.47948  -6627449.31764
  24869501.4214    -178235.65745    -70840.61161
  21501066.851   -16298857.311 7 -12569327.77823
 91  4 25 23 43 45.0030000  0  4G13G 2G15G 6
  21974711.5544  -14322572.93647 -10945420.68861
  22128469.7024   -8486201.30048  -6612577.74464
  24873052.1554    -159605.36445    -56323.51061
  21501521.374   -16296477.818 7 -12567473.61623
 91  4 25 23 44  0.0030000  0  4G13G 2G15G 6
  21969225.1084  -14351407.28747 -10967888.98061
  22132106.5624   -8467082.31448  -6597679.83363
  24876620.054     -140848.716 5    -41707.96821
  21501992.155   -16294001.262 7 -12565543.81923
 91  4 25 23 44 15.0030000  0  4G13G 2G15G 6
  21963761.3044  -14380122.14047 -10990264.15461
  22135751.1474   -8447930.34148  -6582756.21363
  24880217.7264    -121966.51245    -26994.59561
  21502480.147   -16291428.224 7 -12563538.84323
 91  4 25 23 44 30.0030000  0  4G13G 2G15G 6
  21958318.7884  -14408718.91647 -11012547.32561
  22139401.1634   -8428747.30748  -6567808.41064
  24883831.9294    -102960.49845    -12184.75561
  21502988.046   -16288760.373 7 -12561459.98623
 91  4 25 23 44 45.0030000  0  4G13G 2G15G 6
  21952899.9294  -14437194.70847 -11034736.21661
  22143059.8744   -8409530.39848
  24887468.616      -83828.295 5
  21503514.101   -16285994.698 7 -12559304.90223
 91  4 25 23 45  0.0030000  0  4G13G 2G15G 6
  21947502.2494  -14465553.76547 -11056834.14861
  22146721.7024   -8390283.84648
  24891132.226      -64574.157 5
  21504058.9294  -16283135.32447 -12557076.80963
 91  4 25 23 45 15.0030000  0  4G13G 2G15G 6
  21942129.9914  -14493793.69947 -11078839.25961
  22150388.7264   -8371005.58248  -6522814.84164
  24894815.8274     -45195.87245     32826.54961
  21504619.710   -16280179.871 7 -12554773.85023
 91  4 25 23 45 30.0030000  0  4G13G 2G15G 6
  21936778.0774  -14521914.37147 -11100751.43061
  22154064.1324   -8351695.58448  -6507768.08464
  24898535.874      -25693.422 5     48023.24021
  21505201.577   -16277128.245 7 -12552395.94023
 91  4 25 23 45 45.0030000  0  4G13G 2G15G 6
  21931451.3904  -14549913.45247 -11122568.86061
  22157745.2104   -8332351.76448  -6492694.97963
  24902273.1324      -6065.13845     63317.95761
  21505800.124   -16273978.021 7 -12549941.21023
 91  4 25 23 46  0.0030000  0  4G13G 2G15G 6
  21926145.4524  -14577794.12747 -11144294.02862
  22161431.9684   -8312977.48448  -6477598.13463
  24906029.4764      13686.03845     78708.45461
  21506418.960   -16270732.258 7 -12547412.03123
 91  4 25 23 46 15.0030000  0  4G13G 2G15G 6
  21920862.7574  -14605550.25847 -11165922.14262
  22165126.2964   -8293566.67448  -6462472.82863
  24909808.187       33565.686 5     94199.07721
  21507054.944   -16267384.787 7 -12544803.59723
 91  4 25 23 46 30.0030000  0  4G13G 2G15G 6
  21915606.2654  -14633182.17147 -11187453.47062
  22168825.7024   -8274119.90848  -6447319.49763
  24913617.530       53573.265 5    109789.35821
  21507711.4914  -16263936.16747 -12542116.35263
 91  4 25 23 46 45.0030000  0  4G13G 2G15G 6
  21910370.2964  -14660690.15947 -11208888.22462
  22172533.6324   -8254637.64548  -6432138.50763
  24917446.202       73708.153 5    125478.86021
  21508387.687   -16260386.586 7 -12539350.43023
 91  4 25 23 47  0.0030000  0  4G13G 2G15G 6
  21905158.4914  -14688072.22547 -11230224.86461
  22176248.3824   -8235118.06348  -6416928.44763
  24921304.7334      93972.12345    141268.93461
  21509082.069   -16256733.822 7 -12536504.11023
 91  4 25 23 47 15.0030000  0  4G13G 2G15G 6
  21899973.0774  -14715327.90147 -11251463.02162
  22179971.0934   -8215560.82648  -6401689.03663
  24925189.5934     114365.34145    157159.75861
  21509795.687   -16252977.530 7 -12533577.11423
 91  4 25 23 47 30.0030000  0  4G13G 2G15G 6
  21894811.6244  -14742454.15447 -11272600.32362
  22183699.7494   -8195963.16048  -6386418.12563
  24929091.796      134890.593 5    173153.43521
  21510531.749   -16249114.596 7 -12530567.02023
 91  4 25 23 47 45.0030000  0  4G13G 2G15G 6
  21889674.2964  -14769449.99847 -11293636.00762
  22187438.3124   -8176324.40748  -6371115.19563
  24933016.4444     155548.54545    189250.50461
  21511288.046   -16245144.280 7 -12527473.25623
 91  4 25 23 48  0.0030000  0  4G13G 2G15G 6
  21884562.5544  -14796314.85347 -11314569.62862
  22191181.3514   -8156644.02448  -6355779.83463
  24936976.5154     176339.79745    205451.44261
  21512064.405   -16241065.832 7 -12524295.23223
 91  4 25 23 48 15.0030000  0  4G13G 2G15G 6
  21879475.6634  -14823046.35347 -11335399.32962
  22194936.3194   -8136920.08648  -6340410.52963
  24940962.827      197266.025 5    221757.56521
  21512861.827   -16236877.022 7 -12521031.20923
 91  4 25 23 48 30.0030000  0  4G13G 2G15G 6
  21874414.5624  -14849642.02247 -11356123.19562
  22198697.6164   -8117150.03648  -6325005.29463
  24944975.3584     218329.76245    238170.85161
  21513678.312   -16232575.137 7 -12517679.07923
 91  4 25 23 48 45.0030000  0  4G13G 2G15G 6
  21869380.1634  -14876106.20647 -11376744.60162
  22202468.4444   -8097338.03748  -6309567.36863
  24949006.5224     239526.52145    254687.79561
  21514518.866   -16228164.307 7 -12514242.05223
 91  4 25 23 49  0.0030000  0  4G13G 2G15G 6
  21864368.8824  -14902434.02147 -11397259.74662
  22206245.2494   -8077479.84248  -6294093.44963
  24953064.663      260860.354 5    271311.53121
  21515380.499   -16223639.891 7 -12510716.51723
 91  4 25 23 49 15.0030000  0  4G13G 2G15G 6
  21859383.6404  -14928625.32247 -11417668.51462
  22210033.7654   -8057575.43148  -6278583.51663
  24957149.577      282331.348 5    288042.16821
  21516262.937   -16219001.703 7 -12507102.33123
 91  4 25 23 49 30.0030000  0  4G13G 2G15G 6
  21854425.0694  -14954680.27747 -11437971.04462
  22213828.8744   -8037625.07448  -6263037.78263
  24961264.1794     303939.48245    304879.65261
  21517166.601   -16214249.868 7 -12503399.58523
 91  4 25 23 49 45.0030000  0  4G13G 2G15G 6
  21849493.1244  -14980596.79847 -11458165.70162
  22217636.2724   -8017626.81848  -6247454.72163
  24965400.132      325686.634 5    321825.46821
  21518093.882   -16209382.140 7 -12499606.53423
 91  4 25 23 50  0.0030000  0  4G13G 2G15G 6
  21844587.7574  -15006378.48647 -11478255.29362
  22221450.7184   -7997584.55848  -6231837.37363
  24969561.0544     347568.66445    338876.36761
  21519040.858   -16204402.289 7 -12495726.11923
 91  4 25 23 50 15.0030000  0  4G13G 2G15G 6
  21839705.0774  -15032027.86347 -11498241.79062
  22225271.4914   -7977500.72748  -6216187.63363
  24973747.4684     369582.96045    356030.32261
  21520008.312   -16199312.667 7 -12491760.16523
 91  4 25 23 50 30.0030000  0  4G13G 2G15G 6
  21834850.5074  -15057549.83547 -11518129.00862
  22229100.1474   -7957380.50948  -6200509.53763
  24977966.2964     391724.15945    373283.18561
  21520998.069   -16194118.246 7 -12487712.55123
 91  4 25 23 50 45.0030000  0  4G13G 2G15G 6
  21830019.0464  -15082939.29747 -11537912.97562
  22232938.0384   -7937219.05648  -6184799.31763
  24982203.8124     413997.14745    390638.76761
  21522006.780   -16188813.803 7 -12483579.20523
 91  4 25 23 51  0.0030000  0  4G13G 2G15G 6
  21825211.7654  -15108198.44547 -11557595.39362
  22236782.5774   -7917018.85548  -6169058.89863
  24986467.5074     436399.28146    408094.94161
  21523035.265   -16183401.781 7 -12479362.03323
 91  4 25 23 51 15.0030000  0  4G13G 2G15G 6
  21820429.0154  -15133325.58747 -11577174.94962
  22240632.6164   -7896778.46948  -6153287.16563
  24990756.9914     458931.66045    425652.60561
  21524088.397   -16177880.544 7 -12475059.75723
 91  4 25 23 51 30.0030000  0  4G13G 2G15G 6
  21815675.4834  -15158317.05047 -11596648.78462
  22244492.1794   -7876493.99648  -6137481.07463
  24995066.7414     481598.06645    443314.71961
  21525160.085   -16172246.011 7 -12470669.19823
 91  4 25 23 51 45.0030000  0  4G13G 2G15G 6
  21810946.1874  -15183170.26247 -11616014.89162
  22248363.0934   -7856162.83148  -6121638.60963
  24999405.6084     504401.00845    461083.21161
  21526254.937   -16166495.487 7 -12466188.25723
 91  4 25 23 52  0.0030000  0  4G13G 2G15G 6
  21806243.0544  -15207885.26447 -11635273.30462
  22252237.4684   -7835785.24148  -6105759.96663
  25003778.296      527340.239 5    478957.91021
  21527369.241   -16160629.013 7 -12461616.96823
 91  4 25 23 52 15.0030000  0  4G13G 2G15G 6
  21801567.7264  -15232459.33747 -11654421.90262
  22256124.7264   -7815359.07048  -6089843.46163
  25008164.4524     550417.85545    496940.46461
  21528509.897   -16154644.150 7 -12456953.42423
 91  4 25 23 52 30.0030000  0  4G13G 2G15G 6
  21796917.8434  -15256889.03647 -11673457.99462
  22260022.3974   -7794880.85448  -6073886.40763
  25012581.687      573637.293 5    515033.48221
  21529671.952   -16148537.168 7 -12452194.72623
 91  4 25 23 52 45.0030000  0  4G13G 2G15G 6
  21792293.4914  -15281181.91347 -11692387.48262
  22263929.3584   -7774358.33448  -6057894.82863
  25017026.874      596990.380 5    533230.68021
  21530854.749   -16142315.829 7 -12447346.91623
 91  4 25 23 53  0.0030000  0  4G13G 2G15G 6
  21787697.9994  -15305334.27147 -11711207.47062
  22267843.5774   -7753787.95148  -6041865.96163
  25021495.8354     620480.97645    551535.01761
  21532061.804   -16135976.212 7 -12442406.93923
 91  4 25 23 53 15.0030000  0  4G13G 2G15G 6
  21783128.9134  -15329348.45047 -11729919.78962
  22271765.7104   -7733172.00248  -6025801.58163
  25025992.8354     644106.41345    569944.42661
  21533290.710   -16129520.573 7 -12437376.55323
 91  4 25 23 53 30.0030000  0  4G13G 2G15G 6
  21778584.9684  -15353221.44947 -11748522.09362
  22275698.2494   -7712507.72848  -6009699.54463
  25030514.8744     667869.26445    588460.90261
  21534542.335   -16122945.942 7 -12432253.45623
 91  4 25 23 53 45.0030000  0  4G13G 2G15G 6
  21774068.1794  -15376961.32547 -11767020.66862
  22279637.8664   -7691802.95948  -5993565.95463
  25035060.530      691761.588 5    607078.28021
  21535814.843   -16116260.147 7 -12427043.73323
 91  4 25 23 54  0.0030000  0  4G13G 2G15G 6
  21769575.4214  -15400568.40747 -11785415.76662
  22283586.3434   -7671058.42248  -5977401.37563
  25039630.749      715782.609 5    625795.90821
  21537106.124   -16109463.643 7 -12421747.74523
 91  4 25 23 54 15.0030000  0  4G13G 2G15G 6
  21765109.8824  -15424035.83747 -11803702.04362
  22287543.5854   -7650267.73248  -5961200.83763
  25044228.772      739938.663 5    644618.78621
  21538423.147   -16102549.774 7 -12416360.30723
 91  4 25 23 54 30.0030000  0  4G13G 2G15G 6
  21760671.7884  -15447369.13447 -11821883.80262
  22291506.2724   -7629436.32948  -5944968.57263
  25048847.6794     764224.00845    663542.41761
  21539758.4294  -16095523.87647 -12410885.57163
 91  4 25 23 54 45.0030000  0  4G13G 2G15G 6
  21756255.0074  -15470567.88947 -11839960.71962
  22295478.4444   -7608563.82948  -5928704.28463
  25053497.3124     788638.75145    682566.85461
  21541117.272   -16088385.411 7 -12405323.11523
 91  4 25 23 55  0.0030000  0  4G13G 2G15G 6
  21751867.1084  -15493632.27747 -11857932.94062
  22299457.1404   -7587650.57048  -5912408.23463
  25058166.038      813182.485 5    701691.79621
  21542497.530   -16081134.531 7 -12399673.06723
 91  4 25 23 55 15.0030000  0  4G13G 2G15G 6
  21747503.5304  -15516562.68147 -11875800.75562
  22303445.2494   -7566697.37748  -5896081.06963
  25062863.7884     837854.47945    720916.70261
  21543898.8194  -16073771.82647 -12393935.88363
 91  4 25 23 55 30.0030000  0  4G13G 2G15G 6
  21743164.6244  -15539360.13247 -11893564.97461
  22307438.9214   -7545705.03248  -5879723.39963
  25067578.1944     862653.93845    740240.92461
  21545321.030   -16066297.995 7 -12388112.10823
 91  4 25 23 55 45.0030000  0  4G13G 2G15G 6
  21738852.6084  -15562022.32247 -11911223.79162
  22311442.1474   -7524671.37348  -5863333.53263
  25072324.687      887582.844 5    759666.02521
  21546764.624   -16058710.547 7 -12382199.80023
 91  4 25 23 56  0.0030000  0  4G13G 2G15G 6
  21734565.6244  -15584550.55647 -11928778.22862
  22315451.7264   -7503598.04148  -5846912.75663
  25077088.616      912639.650 5    779190.77221
  21548229.819   -16051010.992 7 -12376200.13223
 91  4 25 23 56 15.0030000  0  4G13G 2G15G 6
  21730304.5224  -15606943.96847 -11946227.61162
  22319470.1244   -7482484.04148  -5830460.28963
  25081885.8904     937824.88845    798815.60761
  21549716.452   -16043198.289 7 -12370112.30423
 91  4 25 23 56 30.0030000  0  4G13G 2G15G 6
  21726067.9604  -15629200.96847 -11963570.69362
  22323497.4294   -7461328.06348  -5813975.11063
  25086707.6084     963139.84545    818541.52061
  21551225.749   -16035270.864 7 -12363935.07523
 91  4 25 23 56 45.0030000  0  3G13G 2G 6
  21721858.4684  -15651320.81247 -11980806.90162
  22327531.8514   -7440129.53648  -5797456.78363
  21552754.835   -16027228.036 7 -12357667.92423
 91  4 25 23 57  0.0030000  0  3G13G 2G 6
  21717675.2574  -15673303.96547 -11997936.60562
  22331573.2334   -7418888.76148  -5780905.52663
  21554308.093   -16019069.848 7 -12351310.87523
 91  4 25 23 57 15.0030000  0  3G13G 2G 6
  21713518.3744  -15695148.51147 -12014958.29762
  22335622.6084   -7397603.85148  -5764319.88763
  21555883.093   -16010794.661 7 -12344862.66423
 91  4 25 23 57 30.0030000  0  3G13G 2G 6
  21709389.4524  -15716855.57947 -12031872.86862
  22339681.5464   -7376276.32148  -5747701.03263
  21557481.101   -16002403.609 7 -12338324.16923
 91  4 25 23 57 45.0030000  0  3G13G 2G 6
  21705281.7574  -15738427.49147 -12048682.11462
  22343747.8974   -7354908.88948  -5731051.09163
  21559097.929   -15993899.245 7 -12331697.38323
 91  4 25 23 58  0.0030000  0  3G13G 2G 6
  21701205.0624  -15759860.35147 -12065383.01762
  22347821.5694   -7333497.23348  -5714366.68463
  21560737.437   -15985277.113 7 -12324978.82322
 91  4 25 23 58 15.0030000  0  3G13G 2G 6
  21697151.3044  -15781151.70747 -12081973.64962
  22351905.5934   -7312039.27948  -5697646.21063
  21562402.726   -15976534.903 7 -12318166.70123
 91  4 25 23 58 30.0030000  0  3G13G 2G 6
  21693131.4134  -15802299.71047 -12098452.58462
  22355996.8904   -7290533.31948  -5680888.32163
  21564087.366   -15967670.751 7 -12311259.55823
 91  4 25 23 58 45.0030000  0  3G13G 2G 6
  21689130.7264  -15823304.53647 -12114819.95462
  22360098.8434   -7268979.62848  -5664093.23963
  21565799.546   -15958684.680 7 -12304257.41623
 91  4 25 23 59  0.0030000  0  3G13G 2G 6
  21685161.8044  -15844167.18947 -12131076.53562
  22364207.3354   -7247379.05648  -5647261.63263
  21567530.960   -15949577.530 7 -12297160.92523
 91  4 25 23 59 15.0030000  0  3G13G 2G 6
  21681218.9214  -15864887.81647 -12147222.45262
  22368327.2334   -7225732.01348  -5630393.80963
  21569288.897   -15940349.538 7 -12289970.27023
 91  4 25 23 59 30.0030000  0  3G13G 2G 6
  21677301.7964  -15885468.42847 -12163259.26462
  22372456.0694   -7204040.52848  -5613491.36063
  21571067.069   -15931002.650 7 -12282686.97223
 91  4 25 23 59 45.0030000  0  3G13G 2G 6
  21673412.8044  -15905908.14447 -12179186.28562
  22376591.8124   -7182304.00248  -5596553.80963
  21572867.4834  -15921535.97647 -12275310.33563
 91  4 26  0  0  0.0030000  0  3G13G 2G 6
  21669549.8124  -15926207.56247 -12195003.98862
  22380735.8824   -7160523.12547  -5579581.70463
  21574692.022   -15911950.201 7 -12267840.88723
 91  4 26  0  0 15.0030000  0  3G13G 2G 6
  21665713.5854  -15946367.17547 -12210712.74762
  22384891.6474   -7138698.54648  -5562575.54163
  21576538.3744  -15902245.83847 -12260279.03863
 91  4 26  0  0 30.0030000  0  3G13G 2G 6
  21661903.5694  -15966383.11947 -12226309.56062
  22389052.3904   -7116826.32948  -5545532.25963
  21578408.4834  -15892418.89347 -12252621.67063
 91  4 26  0  0 45.0030000  0  3G13G 2G 6
  21658123.3744  -15986258.70147 -12241797.00062
  22393223.5544   -7094909.88448  -5528454.50963
  21580303.1404  -15882472.49047 -12244871.21863
 91  4 26  0  1  0.0030000  0  3G13G 2G 6
  21654367.1244  -16005995.95147 -12257176.64962
  22397400.7494   -7072951.26648  -5511343.90563
  21582216.0304  -15872408.36347 -12237029.03363
 91  4 26  0  1 15.0030000  0  3G13G 2G 6
  21650636.444   -16025593.727 7 -12272447.61522
  22401588.8514   -7050949.51548  -5494199.67663
  21584153.6874  -15862225.53147 -12229094.34863
 91  4 26  0  1 30.0030000  0  3G13G 2G 6
  21646934.671   -16045051.831 7 -12287609.75122
  22405782.8044   -7028904.41247  -5477021.67963
  21586114.8584  -15851923.74147 -12221066.97863
 91  4 26  0  1 45.0030000  0  3G13G 2G 6
  21643259.851   -16064367.596 7 -12302660.97222
  22409988.9994   -7006813.32948  -5459807.84263
  21588098.0624  -15841500.15347 -12212944.69463
 91  4 26  0  2  0.0030000  0  3G13G 2G 6
  21639609.7414  -16083540.46547 -12317600.84262
  22414198.2654   -6984675.60647  -5442557.67063
  21590104.9994  -15830954.16647 -12204727.03763
 91  4 26  0  2 15.0030000  0  3G13G 2G 6
  21635986.6404  -16102572.53947 -12332431.00262
  22418423.1404   -6962493.66348  -5425273.03863
  21592136.1474  -15820287.79847 -12196415.57662
 91  4 26  0  2 30.0030000  0  3G13G 2G 6
  21632393.8044  -16121464.43247 -12347151.93562
  22422650.7654   -6940268.18647  -5407954.48163
  21594185.569   -15809501.808 7 -12188010.89922
 91  4 26  0  2 45.0030000  0  3G13G 2G 6
  21628823.741   -16140219.545 7 -12361766.28622
  22426888.3744   -6918002.45347  -5390604.56363
  21596261.2654  -15798599.27647 -12179515.41462
 91  4 26  0  3  0.0030000  0  3G13G 2G 6
  21625281.366   -16158835.664 7 -12376272.32522
  22431132.4214   -6895694.51048  -5373221.74563
  21598359.2494  -15787578.11147 -12170927.48963
 91  4 26  0  3 15.0030000  0  3G13G 2G 6
  21621766.272   -16177310.423 7 -12390668.22122
  22435385.2494   -6873342.34947  -5355804.47163
  21600479.2264  -15776436.06547 -12162245.36863
 91  4 26  0  3 30.0030000  0  3G13G 2G 6
  21618277.2964  -16195643.93547 -12404954.05362
  22439648.1634   -6850945.90647  -5338352.69263
  21602622.054   -15765172.977 7 -12153468.92723
 91  4 26  0  3 45.0030000  0  3G13G 2G 6
  21614815.077   -16213837.689 7 -12419130.97922
  22443917.7724   -6828507.00847  -5320867.83363
  21604789.0304  -15753790.61947 -12144599.55163
 91  4 26  0  4  0.0030000  0  3G13G 2G 6
  21611380.210   -16231890.756 7 -12433198.28222
  22448196.8584   -6806024.40247  -5303348.91363
  21606976.9834  -15742287.71847 -12135636.24362
 91  4 26  0  4 15.0030000  0  3G13G 2G 6
  21607970.726   -16249802.380 7 -12447155.36922
  22452483.9134   -6783497.20248  -5285795.24763
  21609190.2024  -15730663.17447 -12126578.15062
 91  4 26  0  4 30.0030000  0  3G13G 2G 6
  21604589.976   -16267573.814 7 -12461003.21522
  22456777.8904   -6760926.97647  -5268208.05763
  21611424.5224  -15718918.45747 -12117426.41862
 91  4 26  0  4 45.0030000  0  3G13G 2G 6
  21601234.4374  -16285206.75147 -12474743.14062
  22461080.0694   -6738315.77548  -5250588.92963
  21613681.7414  -15707055.30247 -12108182.39363
 91  4 26  0  5  0.0030000  0  3G13G 2G 6
  21597905.4834  -16302697.57147 -12488372.32562
  22465390.3514   -6715659.84648  -5232934.94963
  21615962.4684  -15695070.07547 -12098843.24862
 91  4 26  0  5 15.0030000  0  3G13G 2G 6
  21594604.694   -16320044.876 7 -12501889.68322
  22469713.0774   -6692957.82248  -5215245.05663
  21618266.3514  -15682961.15347 -12089407.71762
 91  4 26  0  5 30.0030000  0  3G13G 2G 6
  21591329.366   -16337252.650 7 -12515298.31822
  22474039.3744   -6670213.72048  -5197522.37563
  21620593.8514  -15670732.47547 -12079878.86963
 91  4 26  0  5 45.0030000  0  3G13G 2G 6
  21588081.249   -16354320.104 7 -12528597.60722
  22478374.9914   -6647426.72747  -5179766.26763
  21622944.8354  -15658383.20547 -12070256.05662
 91  4 26  0  6  0.0030000  0  3G13G 2G 6
  21584860.272   -16371242.887 7 -12541784.17222
  22482721.5304   -6624592.53448  -5161973.38463
  21625319.6014  -15645908.75847 -12060535.70463
 91  4 26  0  6 15.0030000  0  3G13G 2G 6
  21581668.390   -16388024.134 7 -12554860.44322
  22487073.8354   -6601714.55347  -5144146.38463
  21627715.6164  -15633312.49047 -12050720.42763
 91  4 26  0  6 30.0030000  0  3G13G 2G 6
  21578502.608   -16404662.514 7 -12567825.39222
  22491438.0934   -6578791.39948  -5126284.17863
  21630134.335   -15620592.815 7 -12040808.98123
 91  4 26  0  6 45.0030000  0  3G13G 2G 6
  21575361.108   -16421164.772 7 -12580684.27722
  22495807.0854   -6555829.91648  -5108392.11463
  21632578.6634  -15607756.60847 -12030806.73362
 91  4 26  0  7  0.0030000  0  3G13G 2G 6
  21572247.780   -16437527.147 7 -12593434.15622
  22500184.3044   -6532826.32348  -5090467.23463
  21635042.8974  -15594799.88747 -12020710.58363
 91  4 26  0  7 15.0030000  0  3G13G 2G 6
  21569161.366   -16453750.239 7 -12606075.50022
  22504567.3744   -6509781.28648  -5072510.05563
  21637531.5854  -15581723.32947 -12010521.04963
 91  4 26  0  7 30.0030000  0  3G13G 2G 6
  21566099.312   -16469835.572 7 -12618609.50722
  22508963.4764   -6486696.29348  -5054521.74863
  21640043.2724  -15568528.15347 -12000239.09063
 91  4 26  0  7 45.0030000  0  3G13G 2G 6
  21563065.015   -16485780.056 7 -12631033.75522
  22513363.2494   -6463568.13948  -5036499.80663
  21642576.5624  -15555211.24147 -11989862.27363
